Wetterdaten: Donnerstag, 09.02.2017
Datum Zeit Temp. A. Feuchte A. Luftdruck Regen Wind Richtung Richtung Sonnenschein ET UV Solar Taupunkt Windchill Windben Empfang
09.02.2017 00:00 -2,3 C 87 % 1026,4 hPa 0,0 l/m 21,4 km/h (4 Bft) O-NO 63 0 min 0,000 mm 0,0 UV-I 0 W/m -4,2 C -13,3 C 27,4 km/h (4 Bft) 96,23 %
09.02.2017 00:02 -2,3 C 87 % 1026,4 hPa 0,0 l/m 19,9 km/h (4 Bft) O-NO 68 0 min 0,000 mm 0,0 UV-I 0 W/m -4,2 C -12,6 C 27,4 km/h (4 Bft) 97,67 %
09.02.2017 00:04 -2,3 C 87 % 1026,4 hPa 0,0 l/m 21,1 km/h (4 Bft) O-NO 69 0 min 0,000 mm 0,0 UV-I 0 W/m -4,2 C -13,1 C 27,4 km/h (4 Bft) 98,00 %
09.02.2017 00:06 -2,4 C 87 % 1026,5 hPa 0,0 l/m 21,1 km/h (4 Bft) O-NO 72 0 min 0,000 mm 0,0 UV-I 0 W/m -4,3 C -13,3 C 27,4 km/h (4 Bft) 93,62 %
09.02.2017 00:08 -2,4 C 87 % 1026,5 hPa 0,0 l/m 18,0 km/h (3 Bft) NO 44 0 min 0,000 mm 0,0 UV-I 0 W/m -4,3 C -11,7 C 25,7 km/h (4 Bft) 95,74 %
09.02.2017 00:10 -2,4 C 87 % 1026,6 hPa 0,0 l/m 17,5 km/h (3 Bft) O 79 0 min 0,000 mm 0,0 UV-I 0 W/m -4,3 C -11,4 C 22,5 km/h (4 Bft) 97,14 %
09.02.2017 00:12 -2,5 C 87 % 1026,7 hPa 0,0 l/m 13,7 km/h (3 Bft) O-NO 72 0 min 0,000 mm 0,0 UV-I 0 W/m -4,4 C -9,1 C 17,7 km/h (3 Bft) 98,21 %
09.02.2017 00:14 -2,5 C 87 % 1026,7 hPa 0,0 l/m 13,9 km/h (3 Bft) O-NO 71 0 min 0,000 mm 0,0 UV-I 0 W/m -4,4 C -9,3 C 17,7 km/h (3 Bft) 97,37 %
09.02.2017 00:16 -2,6 C 87 % 1026,7 hPa 0,0 l/m 15,3 km/h (3 Bft) NO 56 0 min 0,000 mm 0,0 UV-I 0 W/m -4,5 C -10,3 C 20,9 km/h (4 Bft) 96,61 %
09.02.2017 00:18 -2,6 C 88 % 1026,7 hPa 0,0 l/m 12,6 km/h (3 Bft) O-NO 67 0 min 0,000 mm 0,0 UV-I 0 W/m -4,3 C -8,5 C 17,7 km/h (3 Bft) 97,37 %
09.02.2017 00:20 -2,6 C 87 % 1026,7 hPa 0,0 l/m 13,3 km/h (3 Bft) O-NO 69 0 min 0,000 mm 0,0 UV-I 0 W/m -4,5 C -9,0 C 17,7 km/h (3 Bft) 96,00 %
09.02.2017 00:22 -2,6 C 88 % 1026,7 hPa 0,0 l/m 14,9 km/h (3 Bft) O-NO 71 0 min 0,000 mm 0,0 UV-I 0 W/m -4,3 C -10,1 C 19,3 km/h (3 Bft) 100,00 %
09.02.2017 00:24 -2,6 C 88 % 1026,7 hPa 0,0 l/m 15,7 km/h (3 Bft) O-NO 70 0 min 0,000 mm 0,0 UV-I 0 W/m -4,3 C -10,6 C 20,9 km/h (4 Bft) 96,00 %
09.02.2017 00:26 -2,6 C 88 % 1026,6 hPa 0,0 l/m 13,8 km/h (3 Bft) O-NO 60 0 min 0,000 mm 0,0 UV-I 0 W/m -4,3 C -9,3 C 19,3 km/h (3 Bft) 97,44 %
09.02.2017 00:28 -2,7 C 88 % 1026,6 hPa 0,0 l/m 15,8 km/h (3 Bft) NO 41 0 min 0,000 mm 0,0 UV-I 0 W/m -4,4 C -10,8 C 22,5 km/h (4 Bft) 100,00 %
09.02.2017 00:30 -2,7 C 88 % 1026,6 hPa 0,0 l/m 14,0 km/h (3 Bft) NO 55 0 min 0,000 mm 0,0 UV-I 0 W/m -4,4 C -9,6 C 20,9 km/h (4 Bft) 98,15 %
09.02.2017 00:32 -2,7 C 88 % 1026,5 hPa 0,0 l/m 14,6 km/h (3 Bft) NO 50 0 min 0,000 mm 0,0 UV-I 0 W/m -4,4 C -10,0 C 20,9 km/h (4 Bft) 100,00 %
09.02.2017 00:34 -2,7 C 88 % 1026,5 hPa 0,0 l/m 15,5 km/h (3 Bft) O-NO 70 0 min 0,000 mm 0,0 UV-I 0 W/m -4,4 C -10,6 C 22,5 km/h (4 Bft) 97,87 %
09.02.2017 00:36 -2,8 C 88 % 1026,5 hPa 0,0 l/m 17,4 km/h (3 Bft) O-NO 58 0 min 0,000 mm 0,0 UV-I 0 W/m -4,5 C -11,8 C 25,7 km/h (4 Bft) 100,00 %
09.02.2017 00:38 -2,8 C 88 % 1026,5 hPa 0,0 l/m 15,0 km/h (3 Bft) NO 55 0 min 0,000 mm 0,0 UV-I 0 W/m -4,5 C -10,4 C 20,9 km/h (4 Bft) 100,00 %
09.02.2017 00:40 -2,8 C 88 % 1026,5 hPa 0,0 l/m 15,9 km/h (3 Bft) O-NO 58 0 min 0,000 mm 0,0 UV-I 0 W/m -4,5 C -10,9 C 20,9 km/h (4 Bft) 100,00 %
09.02.2017 00:42 -2,8 C 88 % 1026,5 hPa 0,0 l/m 16,9 km/h (3 Bft) NO 51 0 min 0,000 mm 0,0 UV-I 0 W/m -4,5 C -11,6 C 20,9 km/h (4 Bft) 98,21 %
09.02.2017 00:44 -2,8 C 88 % 1026,5 hPa 0,0 l/m 16,7 km/h (3 Bft) NO 52 0 min 0,000 mm 0,0 UV-I 0 W/m -4,5 C -11,4 C 20,9 km/h (4 Bft) 97,73 %
09.02.2017 00:46 -2,8 C 88 % 1026,4 hPa 0,0 l/m 14,7 km/h (3 Bft) NO 51 0 min 0,000 mm 0,0 UV-I 0 W/m -4,5 C -10,2 C 19,3 km/h (3 Bft) 100,00 %
09.02.2017 00:48 -2,8 C 88 % 1026,5 hPa 0,0 l/m 17,4 km/h (3 Bft) O-NO 62 0 min 0,000 mm 0,0 UV-I 0 W/m -4,5 C -11,8 C 22,5 km/h (4 Bft) 98,11 %
09.02.2017 00:50 -2,9 C 88 % 1026,5 hPa 0,0 l/m 15,3 km/h (3 Bft) O-NO 71 0 min 0,000 mm 0,0 UV-I 0 W/m -4,6 C -10,7 C 20,9 km/h (4 Bft) 97,37 %
09.02.2017 00:52 -2,9 C 88 % 1026,5 hPa 0,0 l/m 16,6 km/h (3 Bft) NO 42 0 min 0,000 mm 0,0 UV-I 0 W/m -4,6 C -11,5 C 22,5 km/h (4 Bft) 100,00 %
09.02.2017 00:54 -2,9 C 88 % 1026,5 hPa 0,0 l/m 13,1 km/h (3 Bft) O-NO 68 0 min 0,000 mm 0,0 UV-I 0 W/m -4,6 C -9,2 C 20,9 km/h (4 Bft) 100,00 %
09.02.2017 00:56 -2,9 C 88 % 1026,6 hPa 0,0 l/m 13,3 km/h (3 Bft) NO 49 0 min 0,000 mm 0,0 UV-I 0 W/m -4,6 C -9,3 C 19,3 km/h (3 Bft) 100,00 %
09.02.2017 00:58 -2,9 C 88 % 1026,6 hPa 0,0 l/m 10,7 km/h (2 Bft) NO 45 0 min 0,000 mm 0,0 UV-I 0 W/m -4,6 C -7,3 C 19,3 km/h (3 Bft) 100,00 %
09.02.2017 01:00 -3,0 C 88 % 1026,7 hPa 0,0 l/m 13,9 km/h (3 Bft) O-NO 65 0 min 0,025 mm 0,0 UV-I 0 W/m -4,7 C -9,9 C 20,9 km/h (4 Bft) 100,00 %
09.02.2017 01:02 -3,0 C 88 % 1026,6 hPa 0,0 l/m 11,4 km/h (2 Bft) O-NO 60 0 min 0,000 mm 0,0 UV-I 0 W/m -4,7 C -8,0 C 16,1 km/h (3 Bft) 100,00 %
09.02.2017 01:04 -3,0 C 88 % 1026,7 hPa 0,0 l/m 13,5 km/h (3 Bft) O-NO 78 0 min 0,000 mm 0,0 UV-I 0 W/m -4,7 C -9,6 C 19,3 km/h (3 Bft) 97,22 %
09.02.2017 01:06 -3,1 C 88 % 1026,7 hPa 0,0 l/m 11,4 km/h (2 Bft) O-NO 67 0 min 0,000 mm 0,0 UV-I 0 W/m -4,8 C -8,1 C 17,7 km/h (3 Bft) 100,00 %
09.02.2017 01:08 -3,1 C 88 % 1026,8 hPa 0,0 l/m 12,7 km/h (3 Bft) O-NO 64 0 min 0,000 mm 0,0 UV-I 0 W/m -4,8 C -9,1 C 16,1 km/h (3 Bft) 100,00 %
09.02.2017 01:10 -3,1 C 88 % 1026,8 hPa 0,0 l/m 11,0 km/h (2 Bft) O-NO 67 0 min 0,000 mm 0,0 UV-I 0 W/m -4,8 C -7,8 C 16,1 km/h (3 Bft) 100,00 %
09.02.2017 01:12 -3,1 C 88 % 1026,7 hPa 0,0 l/m 10,7 km/h (2 Bft) O-NO 76 0 min 0,000 mm 0,0 UV-I 0 W/m -4,8 C -7,5 C 16,1 km/h (3 Bft) 100,00 %
09.02.2017 01:14 -3,1 C 88 % 1026,7 hPa 0,0 l/m 9,5 km/h (2 Bft) NO 55 0 min 0,000 mm 0,0 UV-I 0 W/m -4,8 C -6,4 C 14,5 km/h (3 Bft) 97,56 %
09.02.2017 01:16 -3,2 C 88 % 1026,7 hPa 0,0 l/m 11,1 km/h (2 Bft) NO 51 0 min 0,000 mm 0,0 UV-I 0 W/m -4,9 C -7,9 C 16,1 km/h (3 Bft) 100,00 %
09.02.2017 01:18 -3,2 C 88 % 1026,8 hPa 0,0 l/m 12,1 km/h (2 Bft) NO 55 0 min 0,000 mm 0,0 UV-I 0 W/m -4,9 C -8,8 C 16,1 km/h (3 Bft) 100,00 %
09.02.2017 01:20 -3,2 C 88 % 1026,8 hPa 0,0 l/m 11,2 km/h (2 Bft) NO 44 0 min 0,000 mm 0,0 UV-I 0 W/m -4,9 C -8,0 C 16,1 km/h (3 Bft) 100,00 %
09.02.2017 01:22 -3,2 C 88 % 1026,8 hPa 0,0 l/m 11,4 km/h (2 Bft) O-NO 66 0 min 0,000 mm 0,0 UV-I 0 W/m -4,9 C -8,2 C 16,1 km/h (3 Bft) 97,87 %
09.02.2017 01:24 -3,2 C 88 % 1026,8 hPa 0,0 l/m 12,0 km/h (2 Bft) NO 49 0 min 0,000 mm 0,0 UV-I 0 W/m -4,9 C -8,7 C 16,1 km/h (3 Bft) 96,00 %
09.02.2017 01:26 -3,2 C 88 % 1026,8 hPa 0,0 l/m 11,3 km/h (2 Bft) O-NO 73 0 min 0,000 mm 0,0 UV-I 0 W/m -4,9 C -8,1 C 16,1 km/h (3 Bft) 100,00 %
09.02.2017 01:28 -3,2 C 88 % 1026,8 hPa 0,0 l/m 11,4 km/h (2 Bft) NO 53 0 min 0,000 mm 0,0 UV-I 0 W/m -4,9 C -8,2 C 16,1 km/h (3 Bft) 100,00 %
09.02.2017 01:30 -3,2 C 88 % 1026,8 hPa 0,0 l/m 14,4 km/h (3 Bft) O 82 0 min 0,000 mm 0,0 UV-I 0 W/m -4,9 C -10,5 C 19,3 km/h (3 Bft) 100,00 %
09.02.2017 01:32 -3,2 C 88 % 1026,8 hPa 0,0 l/m 13,4 km/h (3 Bft) O-NO 76 0 min 0,000 mm 0,0 UV-I 0 W/m -4,9 C -9,7 C 17,7 km/h (3 Bft) 97,92 %
09.02.2017 01:34 -3,3 C 88 % 1026,8 hPa 0,0 l/m 10,9 km/h (2 Bft) NO 55 0 min 0,000 mm 0,0 UV-I 0 W/m -5,0 C -7,9 C 17,7 km/h (3 Bft) 97,87 %
09.02.2017 01:36 -3,3 C 88 % 1026,8 hPa 0,0 l/m 11,6 km/h (2 Bft) NO 51 0 min 0,000 mm 0,0 UV-I 0 W/m -5,0 C -8,5 C 16,1 km/h (3 Bft) 100,00 %
09.02.2017 01:38 -3,3 C 88 % 1026,8 hPa 0,0 l/m 11,3 km/h (2 Bft) NO 49 0 min 0,000 mm 0,0 UV-I 0 W/m -5,0 C -8,2 C 16,1 km/h (3 Bft) 100,00 %
09.02.2017 01:40 -3,3 C 88 % 1026,8 hPa 0,0 l/m 11,8 km/h (2 Bft) O-NO 63 0 min 0,000 mm 0,0 UV-I 0 W/m -5,0 C -8,6 C 16,1 km/h (3 Bft) 100,00 %
09.02.2017 01:42 -3,4 C 88 % 1026,8 hPa 0,0 l/m 10,9 km/h (2 Bft) O-NO 64 0 min 0,000 mm 0,0 UV-I 0 W/m -5,1 C -8,0 C 17,7 km/h (3 Bft) 100,00 %
09.02.2017 01:44 -3,4 C 88 % 1026,9 hPa 0,0 l/m 9,9 km/h (2 Bft) O-NO 67 0 min 0,000 mm 0,0 UV-I 0 W/m -5,1 C -7,1 C 14,5 km/h (3 Bft) 100,00 %
09.02.2017 01:46 -3,4 C 88 % 1026,9 hPa 0,0 l/m 10,8 km/h (2 Bft) O-NO 77 0 min 0,000 mm 0,0 UV-I 0 W/m -5,1 C -7,9 C 16,1 km/h (3 Bft) 100,00 %
09.02.2017 01:48 -3,4 C 88 % 1026,9 hPa 0,0 l/m 13,2 km/h (3 Bft) O-NO 59 0 min 0,000 mm 0,0 UV-I 0 W/m -5,1 C -9,8 C 19,3 km/h (3 Bft) 100,00 %
09.02.2017 01:50 -3,4 C 88 % 1026,9 hPa 0,0 l/m 11,8 km/h (2 Bft) O-NO 67 0 min 0,000 mm 0,0 UV-I 0 W/m -5,1 C -8,8 C 17,7 km/h (3 Bft) 98,11 %
09.02.2017 01:52 -3,5 C 88 % 1026,9 hPa 0,0 l/m 10,8 km/h (2 Bft) O-NO 74 0 min 0,000 mm 0,0 UV-I 0 W/m -5,2 C -8,0 C 14,5 km/h (3 Bft) 97,37 %
09.02.2017 01:54 -3,5 C 88 % 1026,9 hPa 0,0 l/m 8,9 km/h (2 Bft) O-NO 65 0 min 0,000 mm 0,0 UV-I 0 W/m -5,2 C -6,3 C 14,5 km/h (3 Bft) 96,00 %
09.02.2017 01:56 -3,5 C 88 % 1026,9 hPa 0,0 l/m 13,6 km/h (3 Bft) O-NO 70 0 min 0,000 mm 0,0 UV-I 0 W/m -5,2 C -10,2 C 19,3 km/h (3 Bft) 96,23 %
09.02.2017 01:58 -3,6 C 88 % 1026,9 hPa 0,0 l/m 11,5 km/h (2 Bft) O-NO 66 0 min 0,000 mm 0,0 UV-I 0 W/m -5,3 C -8,7 C 16,1 km/h (3 Bft) 95,74 %
09.02.2017 02:00 -3,6 C 88 % 1026,9 hPa 0,0 l/m 12,1 km/h (2 Bft) NO 53 0 min 0,000 mm 0,0 UV-I 0 W/m -5,3 C -9,2 C 19,3 km/h (3 Bft) 97,56 %
09.02.2017 02:02 -3,6 C 88 % 1026,9 hPa 0,0 l/m 13,6 km/h (3 Bft) O-NO 68 0 min 0,000 mm 0,0 UV-I 0 W/m -5,3 C -10,4 C 20,9 km/h (4 Bft) 95,83 %
09.02.2017 02:04 -3,6 C 88 % 1026,9 hPa 0,0 l/m 12,1 km/h (2 Bft) NO 53 0 min 0,000 mm 0,0 UV-I 0 W/m -5,3 C -9,2 C 16,1 km/h (3 Bft) 97,56 %
09.02.2017 02:06 -3,6 C 88 % 1027,0 hPa 0,0 l/m 12,4 km/h (3 Bft) O-NO 60 0 min 0,000 mm 0,0 UV-I 0 W/m -5,3 C -9,5 C 17,7 km/h (3 Bft) 97,87 %
09.02.2017 02:08 -3,6 C 88 % 1027,0 hPa 0,0 l/m 15,9 km/h (3 Bft) O-NO 78 0 min 0,000 mm 0,0 UV-I 0 W/m -5,3 C -11,9 C 24,1 km/h (4 Bft) 98,00 %
09.02.2017 02:10 -3,6 C 88 % 1027,0 hPa 0,0 l/m 14,1 km/h (3 Bft) NO 50 0 min 0,000 mm 0,0 UV-I 0 W/m -5,3 C -10,7 C 19,3 km/h (3 Bft) 95,45 %
09.02.2017 02:12 -3,6 C 88 % 1027,0 hPa 0,0 l/m 15,8 km/h (3 Bft) O 84 0 min 0,000 mm 0,0 UV-I 0 W/m -5,3 C -11,9 C 22,5 km/h (4 Bft) 96,43 %
09.02.2017 02:14 -3,6 C 88 % 1026,9 hPa 0,0 l/m 17,0 km/h (3 Bft) NO 50 0 min 0,000 mm 0,0 UV-I 0 W/m -5,3 C -12,6 C 25,7 km/h (4 Bft) 97,37 %
09.02.2017 02:16 -3,6 C 87 % 1026,9 hPa 0,0 l/m 14,9 km/h (3 Bft) O-NO 66 0 min 0,000 mm 0,0 UV-I 0 W/m -5,4 C -11,3 C 19,3 km/h (3 Bft) 96,43 %
09.02.2017 02:18 -3,6 C 87 % 1026,9 hPa 0,0 l/m 14,2 km/h (3 Bft) O 88 0 min 0,000 mm 0,0 UV-I 0 W/m -5,4 C -10,8 C 20,9 km/h (4 Bft) 100,00 %
09.02.2017 02:20 -3,7 C 87 % 1027,0 hPa 0,0 l/m 15,4 km/h (3 Bft) O-NO 67 0 min 0,000 mm 0,0 UV-I 0 W/m -5,5 C -11,7 C 20,9 km/h (4 Bft) 93,62 %
09.02.2017 02:22 -3,7 C 87 % 1027,0 hPa 0,0 l/m 14,8 km/h (3 Bft) O-NO 67 0 min 0,000 mm 0,0 UV-I 0 W/m -5,5 C -11,3 C 24,1 km/h (4 Bft) 97,92 %
09.02.2017 02:24 -3,7 C 87 % 1027,0 hPa 0,0 l/m 14,3 km/h (3 Bft) O-NO 62 0 min 0,000 mm 0,0 UV-I 0 W/m -5,5 C -11,0 C 17,7 km/h (3 Bft) 98,18 %
09.02.2017 02:26 -3,7 C 87 % 1027,0 hPa 0,0 l/m 12,8 km/h (3 Bft) NO 52 0 min 0,000 mm 0,0 UV-I 0 W/m -5,5 C -9,9 C 19,3 km/h (3 Bft) 97,62 %
09.02.2017 02:28 -3,7 C 87 % 1026,9 hPa 0,0 l/m 15,8 km/h (3 Bft) NO 51 0 min 0,000 mm 0,0 UV-I 0 W/m -5,5 C -12,0 C 20,9 km/h (4 Bft) 100,00 %
09.02.2017 02:30 -3,7 C 87 % 1026,9 hPa 0,0 l/m 15,5 km/h (3 Bft) NO 34 0 min 0,000 mm 0,0 UV-I 0 W/m -5,5 C -11,8 C 20,9 km/h (4 Bft) 100,00 %
09.02.2017 02:32 -3,8 C 87 % 1026,9 hPa 0,0 l/m 13,0 km/h (3 Bft) O 80 0 min 0,000 mm 0,0 UV-I 0 W/m -5,6 C -10,2 C 20,9 km/h (4 Bft) 96,00 %
09.02.2017 02:34 -3,8 C 88 % 1026,9 hPa 0,0 l/m 18,2 km/h (3 Bft) O-NO 78 0 min 0,000 mm 0,0 UV-I 0 W/m -5,5 C -13,6 C 24,1 km/h (4 Bft) 100,00 %
09.02.2017 02:36 -3,7 C 88 % 1026,9 hPa 0,0 l/m 21,2 km/h (4 Bft) O-NO 67 0 min 0,000 mm 0,0 UV-I 0 W/m -5,4 C -15,0 C 27,4 km/h (4 Bft) 100,00 %
09.02.2017 02:38 -3,8 C 87 % 1026,9 hPa 0,0 l/m 15,5 km/h (3 Bft) O 82 0 min 0,000 mm 0,0 UV-I 0 W/m -5,6 C -11,9 C 19,3 km/h (3 Bft) 100,00 %
09.02.2017 02:40 -3,8 C 87 % 1026,8 hPa 0,0 l/m 17,3 km/h (3 Bft) NO 54 0 min 0,000 mm 0,0 UV-I 0 W/m -5,6 C -13,0 C 25,7 km/h (4 Bft) 100,00 %
09.02.2017 02:42 -3,8 C 87 % 1026,9 hPa 0,0 l/m 16,5 km/h (3 Bft) O 84 0 min 0,000 mm 0,0 UV-I 0 W/m -5,6 C -12,6 C 20,9 km/h (4 Bft) 100,00 %
09.02.2017 02:44 -3,8 C 87 % 1026,9 hPa 0,0 l/m 15,8 km/h (3 Bft) O-NO 64 0 min 0,000 mm 0,0 UV-I 0 W/m -5,6 C -12,1 C 20,9 km/h (4 Bft) 100,00 %
09.02.2017 02:46 -3,8 C 87 % 1026,9 hPa 0,0 l/m 13,4 km/h (3 Bft) O-NO 64 0 min 0,000 mm 0,0 UV-I 0 W/m -5,6 C -10,5 C 19,3 km/h (3 Bft) 96,43 %
09.02.2017 02:48 -3,8 C 87 % 1026,8 hPa 0,0 l/m 13,3 km/h (3 Bft) O 80 0 min 0,000 mm 0,0 UV-I 0 W/m -5,6 C -10,4 C 19,3 km/h (3 Bft) 100,00 %
09.02.2017 02:50 -3,8 C 88 % 1026,8 hPa 0,0 l/m 13,2 km/h (3 Bft) O-NO 73 0 min 0,000 mm 0,0 UV-I 0 W/m -5,5 C -10,3 C 17,7 km/h (3 Bft) 100,00 %
09.02.2017 02:52 -3,8 C 88 % 1026,8 hPa 0,0 l/m 16,8 km/h (3 Bft) O-NO 65 0 min 0,000 mm 0,0 UV-I 0 W/m -5,5 C -12,7 C 22,5 km/h (4 Bft) 100,00 %
09.02.2017 02:54 -3,9 C 88 % 1026,8 hPa 0,0 l/m 13,4 km/h (3 Bft) O-NO 57 0 min 0,000 mm 0,0 UV-I 0 W/m -5,6 C -10,6 C 17,7 km/h (3 Bft) 100,00 %
09.02.2017 02:56 -3,9 C 88 % 1026,8 hPa 0,0 l/m 11,0 km/h (2 Bft) NO 55 0 min 0,000 mm 0,0 UV-I 0 W/m -5,6 C -8,7 C 16,1 km/h (3 Bft) 100,00 %
09.02.2017 02:58 -3,9 C 88 % 1026,8 hPa 0,0 l/m 12,2 km/h (2 Bft) O-NO 57 0 min 0,000 mm 0,0 UV-I 0 W/m -5,6 C -9,7 C 19,3 km/h (3 Bft) 100,00 %
09.02.2017 03:00 -3,9 C 88 % 1026,8 hPa 0,0 l/m 10,3 km/h (2 Bft) NO 51 0 min 0,000 mm 0,0 UV-I 0 W/m -5,6 C -8,0 C 17,7 km/h (3 Bft) 97,56 %
09.02.2017 03:02 -4,0 C 88 % 1026,8 hPa 0,0 l/m 11,6 km/h (2 Bft) NO 49 0 min 0,000 mm 0,0 UV-I 0 W/m -5,7 C -9,3 C 16,1 km/h (3 Bft) 100,00 %
09.02.2017 03:04 -4,0 C 88 % 1026,8 hPa 0,0 l/m 13,2 km/h (3 Bft) O-NO 72 0 min 0,000 mm 0,0 UV-I 0 W/m -5,7 C -10,5 C 20,9 km/h (4 Bft) 98,00 %
09.02.2017 03:06 -4,0 C 88 % 1026,8 hPa 0,0 l/m 14,0 km/h (3 Bft) O 79 0 min 0,000 mm 0,0 UV-I 0 W/m -5,7 C -11,1 C 17,7 km/h (3 Bft) 100,00 %
09.02.2017 03:08 -4,0 C 88 % 1026,8 hPa 0,0 l/m 12,8 km/h (3 Bft) NO 51 0 min 0,000 mm 0,0 UV-I 0 W/m -5,7 C -10,2 C 17,7 km/h (3 Bft) 100,00 %
09.02.2017 03:10 -4,0 C 88 % 1026,8 hPa 0,0 l/m 11,3 km/h (2 Bft) O-NO 78 0 min 0,000 mm 0,0 UV-I 0 W/m -5,7 C -9,0 C 16,1 km/h (3 Bft) 98,11 %
09.02.2017 03:12 -4,1 C 88 % 1026,8 hPa 0,0 l/m 13,7 km/h (3 Bft) NO 54 0 min 0,000 mm 0,0 UV-I 0 W/m -5,8 C -11,0 C 19,3 km/h (3 Bft) 97,14 %
09.02.2017 03:14 -4,1 C 88 % 1026,8 hPa 0,0 l/m 12,4 km/h (3 Bft) N-NO 31 0 min 0,000 mm 0,0 UV-I 0 W/m -5,8 C -10,0 C 16,1 km/h (3 Bft) 100,00 %
09.02.2017 03:16 -4,1 C 88 % 1026,8 hPa 0,0 l/m 13,0 km/h (3 Bft) O-NO 67 0 min 0,000 mm 0,0 UV-I 0 W/m -5,8 C -10,5 C 17,7 km/h (3 Bft) 98,11 %
09.02.2017 03:18 -4,1 C 88 % 1026,8 hPa 0,0 l/m 15,8 km/h (3 Bft) NO 42 0 min 0,000 mm 0,0 UV-I 0 W/m -5,8 C -12,5 C 19,3 km/h (3 Bft) 98,00 %
09.02.2017 03:20 -4,1 C 88 % 1026,8 hPa 0,0 l/m 14,8 km/h (3 Bft) O-NO 64 0 min 0,000 mm 0,0 UV-I 0 W/m -5,8 C -11,8 C 20,9 km/h (4 Bft) 100,00 %
09.02.2017 03:22 -4,1 C 88 % 1026,8 hPa 0,0 l/m 13,9 km/h (3 Bft) NO 53 0 min 0,000 mm 0,0 UV-I 0 W/m -5,8 C -11,2 C 19,3 km/h (3 Bft) 100,00 %
09.02.2017 03:24 -4,1 C 88 % 1026,8 hPa 0,0 l/m 12,8 km/h (3 Bft) O-NO 57 0 min 0,000 mm 0,0 UV-I 0 W/m -5,8 C -10,4 C 17,7 km/h (3 Bft) 98,11 %
09.02.2017 03:26 -4,1 C 88 % 1026,8 hPa 0,0 l/m 12,1 km/h (2 Bft) O-NO 69 0 min 0,000 mm 0,0 UV-I 0 W/m -5,8 C -9,8 C 17,7 km/h (3 Bft) 100,00 %
09.02.2017 03:28 -4,1 C 88 % 1026,7 hPa 0,0 l/m 12,9 km/h (3 Bft) NO 49 0 min 0,000 mm 0,0 UV-I 0 W/m -5,8 C -10,4 C 19,3 km/h (3 Bft) 100,00 %
09.02.2017 03:30 -4,2 C 88 % 1026,7 hPa 0,0 l/m 12,1 km/h (2 Bft) O-NO 69 0 min 0,000 mm 0,0 UV-I 0 W/m -5,9 C -9,9 C 17,7 km/h (3 Bft) 97,56 %
09.02.2017 03:32 -4,2 C 88 % 1026,7 hPa 0,0 l/m 10,8 km/h (2 Bft) NO 45 0 min 0,000 mm 0,0 UV-I 0 W/m -5,9 C -8,8 C 16,1 km/h (3 Bft) 100,00 %
09.02.2017 03:34 -4,2 C 88 % 1026,7 hPa 0,0 l/m 11,0 km/h (2 Bft) NO 47 0 min 0,000 mm 0,0 UV-I 0 W/m -5,9 C -9,0 C 16,1 km/h (3 Bft) 100,00 %
09.02.2017 03:36 -4,2 C 88 % 1026,8 hPa 0,0 l/m 11,5 km/h (2 Bft) O-NO 67 0 min 0,000 mm 0,0 UV-I 0 W/m -5,9 C -9,4 C 16,1 km/h (3 Bft) 97,37 %
09.02.2017 03:38 -4,3 C 88 % 1026,8 hPa 0,0 l/m 11,9 km/h (2 Bft) O-NO 59 0 min 0,000 mm 0,0 UV-I 0 W/m -6,0 C -9,9 C 17,7 km/h (3 Bft) 98,00 %
09.02.2017 03:40 -4,3 C 88 % 1026,8 hPa 0,0 l/m 10,0 km/h (2 Bft) O-NO 60 0 min 0,000 mm 0,0 UV-I 0 W/m -6,0 C -8,2 C 17,7 km/h (3 Bft) 100,00 %
09.02.2017 03:42 -4,3 C 88 % 1026,8 hPa 0,0 l/m 12,9 km/h (3 Bft) NO 51 0 min 0,000 mm 0,0 UV-I 0 W/m -6,0 C -10,7 C 17,7 km/h (3 Bft) 100,00 %
09.02.2017 03:44 -4,3 C 88 % 1026,8 hPa 0,0 l/m 12,9 km/h (3 Bft) O-NO 61 0 min 0,000 mm 0,0 UV-I 0 W/m -6,0 C -10,7 C 19,3 km/h (3 Bft) 100,00 %
09.02.2017 03:46 -4,3 C 89 % 1026,8 hPa 0,0 l/m 13,6 km/h (3 Bft) O 80 0 min 0,000 mm 0,0 UV-I 0 W/m -5,8 C -11,2 C 19,3 km/h (3 Bft) 97,87 %
09.02.2017 03:48 -4,3 C 89 % 1026,8 hPa 0,0 l/m 12,4 km/h (3 Bft) O-NO 59 0 min 0,000 mm 0,0 UV-I 0 W/m -5,8 C -10,3 C 17,7 km/h (3 Bft) 97,22 %
09.02.2017 03:50 -4,3 C 89 % 1026,7 hPa 0,0 l/m 13,5 km/h (3 Bft) NO 44 0 min 0,000 mm 0,0 UV-I 0 W/m -5,8 C -11,1 C 17,7 km/h (3 Bft) 100,00 %
09.02.2017 03:52 -4,3 C 89 % 1026,7 hPa 0,0 l/m 15,6 km/h (3 Bft) NO 47 0 min 0,000 mm 0,0 UV-I 0 W/m -5,8 C -12,6 C 20,9 km/h (4 Bft) 98,21 %
09.02.2017 03:54 -4,3 C 89 % 1026,7 hPa 0,0 l/m 16,7 km/h (3 Bft) O-NO 64 0 min 0,000 mm 0,0 UV-I 0 W/m -5,8 C -13,3 C 24,1 km/h (4 Bft) 97,56 %
09.02.2017 03:56 -4,3 C 89 % 1026,7 hPa 0,0 l/m 16,5 km/h (3 Bft) O-NO 74 0 min 0,000 mm 0,0 UV-I 0 W/m -5,8 C -13,2 C 20,9 km/h (4 Bft) 100,00 %
09.02.2017 03:58 -4,3 C 89 % 1026,8 hPa 0,0 l/m 12,5 km/h (3 Bft) O-NO 61 0 min 0,000 mm 0,0 UV-I 0 W/m -5,8 C -10,4 C 22,5 km/h (4 Bft) 97,37 %
09.02.2017 04:00 -4,4 C 89 % 1026,7 hPa 0,0 l/m 12,8 km/h (3 Bft) O-NO 70 0 min 0,000 mm 0,0 UV-I 0 W/m -5,9 C -10,7 C 17,7 km/h (3 Bft) 96,00 %
09.02.2017 04:02 -4,4 C 89 % 1026,8 hPa 0,0 l/m 15,9 km/h (3 Bft) O-NO 60 0 min 0,000 mm 0,0 UV-I 0 W/m -5,9 C -12,9 C 22,5 km/h (4 Bft) 96,77 %
09.02.2017 04:04 -4,4 C 89 % 1026,7 hPa 0,0 l/m 15,7 km/h (3 Bft) O-NO 69 0 min 0,000 mm 0,0 UV-I 0 W/m -5,9 C -12,8 C 22,5 km/h (4 Bft) 98,11 %
09.02.2017 04:06 -4,4 C 89 % 1026,8 hPa 0,0 l/m 11,1 km/h (2 Bft) NO 51 0 min 0,000 mm 0,0 UV-I 0 W/m -5,9 C -9,3 C 16,1 km/h (3 Bft) 97,73 %
09.02.2017 04:08 -4,4 C 89 % 1026,8 hPa 0,0 l/m 9,8 km/h (2 Bft) NO 50 0 min 0,000 mm 0,0 UV-I 0 W/m -5,9 C -8,1 C 14,5 km/h (3 Bft) 94,74 %
09.02.2017 04:10 -4,4 C 89 % 1026,8 hPa 0,0 l/m 13,2 km/h (3 Bft) NO 52 0 min 0,000 mm 0,0 UV-I 0 W/m -5,9 C -11,0 C 17,7 km/h (3 Bft) 98,11 %
09.02.2017 04:12 -4,4 C 89 % 1026,7 hPa 0,0 l/m 12,3 km/h (3 Bft) O-NO 61 0 min 0,000 mm 0,0 UV-I 0 W/m -5,9 C -10,3 C 17,7 km/h (3 Bft) 97,56 %
09.02.2017 04:14 -4,4 C 89 % 1026,8 hPa 0,0 l/m 13,3 km/h (3 Bft) NO 48 0 min 0,000 mm 0,0 UV-I 0 W/m -5,9 C -11,1 C 20,9 km/h (4 Bft) 98,31 %
09.02.2017 04:16 -4,4 C 89 % 1026,7 hPa 0,0 l/m 13,8 km/h (3 Bft) NO 55 0 min 0,000 mm 0,0 UV-I 0 W/m -5,9 C -11,5 C 20,9 km/h (4 Bft) 92,11 %
09.02.2017 04:18 -4,4 C 89 % 1026,9 hPa 0,0 l/m 16,7 km/h (3 Bft) O-NO 67 0 min 0,000 mm 0,0 UV-I 0 W/m -5,9 C -13,4 C 22,5 km/h (4 Bft) 94,34 %
09.02.2017 04:20 -4,4 C 89 % 1026,8 hPa 0,0 l/m 15,7 km/h (3 Bft) O-NO 64 0 min 0,000 mm 0,0 UV-I 0 W/m -5,9 C -12,8 C 22,5 km/h (4 Bft) 97,87 %
09.02.2017 04:22 -4,4 C 89 % 1026,9 hPa 0,0 l/m 12,6 km/h (3 Bft) O-NO 58 0 min 0,000 mm 0,0 UV-I 0 W/m -5,9 C -10,6 C 19,3 km/h (3 Bft) 95,12 %
09.02.2017 04:24 -4,4 C 89 % 1026,9 hPa 0,0 l/m 13,2 km/h (3 Bft) NO 55 0 min 0,000 mm 0,0 UV-I 0 W/m -5,9 C -11,0 C 19,3 km/h (3 Bft) 97,44 %
09.02.2017 04:26 -4,5 C 89 % 1026,9 hPa 0,0 l/m 13,8 km/h (3 Bft) O-NO 67 0 min 0,000 mm 0,0 UV-I 0 W/m -6,0 C -11,6 C 17,7 km/h (3 Bft) 98,31 %
09.02.2017 04:28 -4,5 C 89 % 1026,9 hPa 0,0 l/m 12,3 km/h (3 Bft) NO 38 0 min 0,000 mm 0,0 UV-I 0 W/m -6,0 C -10,4 C 17,7 km/h (3 Bft) 97,56 %
09.02.2017 04:30 -4,5 C 89 % 1026,9 hPa 0,0 l/m 11,4 km/h (2 Bft) NO 47 0 min 0,000 mm 0,0 UV-I 0 W/m -6,0 C -9,7 C 16,1 km/h (3 Bft) 98,00 %
09.02.2017 04:32 -4,6 C 89 % 1026,9 hPa 0,0 l/m 12,9 km/h (3 Bft) NO 45 0 min 0,000 mm 0,0 UV-I 0 W/m -6,1 C -11,0 C 17,7 km/h (3 Bft) 100,00 %
09.02.2017 04:34 -4,6 C 89 % 1026,9 hPa 0,0 l/m 12,3 km/h (3 Bft) O-NO 66 0 min 0,000 mm 0,0 UV-I 0 W/m -6,1 C -10,5 C 17,7 km/h (3 Bft) 97,87 %
09.02.2017 04:36 -4,6 C 89 % 1027,0 hPa 0,0 l/m 12,9 km/h (3 Bft) O-NO 59 0 min 0,000 mm 0,0 UV-I 0 W/m -6,1 C -11,0 C 17,7 km/h (3 Bft) 100,00 %
09.02.2017 04:38 -4,6 C 89 % 1027,0 hPa 0,0 l/m 12,7 km/h (3 Bft) NO 48 0 min 0,000 mm 0,0 UV-I 0 W/m -6,1 C -10,9 C 17,7 km/h (3 Bft) 100,00 %
09.02.2017 04:40 -4,6 C 89 % 1026,9 hPa 0,0 l/m 17,0 km/h (3 Bft) O-NO 61 0 min 0,000 mm 0,0 UV-I 0 W/m -6,1 C -13,9 C 22,5 km/h (4 Bft) 100,00 %
09.02.2017 04:42 -4,6 C 89 % 1026,9 hPa 0,0 l/m 13,2 km/h (3 Bft) O-NO 57 0 min 0,000 mm 0,0 UV-I 0 W/m -6,1 C -11,3 C 19,3 km/h (3 Bft) 100,00 %
09.02.2017 04:44 -4,6 C 89 % 1027,0 hPa 0,0 l/m 15,3 km/h (3 Bft) NO 53 0 min 0,000 mm 0,0 UV-I 0 W/m -6,1 C -12,8 C 20,9 km/h (4 Bft) 100,00 %
09.02.2017 04:46 -4,6 C 89 % 1027,0 hPa 0,0 l/m 11,8 km/h (2 Bft) NO 55 0 min 0,000 mm 0,0 UV-I 0 W/m -6,1 C -10,1 C 17,7 km/h (3 Bft) 100,00 %
09.02.2017 04:48 -4,7 C 89 % 1027,0 hPa 0,0 l/m 12,5 km/h (3 Bft) O-NO 77 0 min 0,000 mm 0,0 UV-I 0 W/m -6,2 C -10,8 C 17,7 km/h (3 Bft) 100,00 %
09.02.2017 04:50 -4,7 C 89 % 1027,0 hPa 0,0 l/m 12,6 km/h (3 Bft) NO 47 0 min 0,000 mm 0,0 UV-I 0 W/m -6,2 C -10,9 C 16,1 km/h (3 Bft) 97,14 %
09.02.2017 04:52 -4,7 C 89 % 1027,0 hPa 0,0 l/m 14,2 km/h (3 Bft) O-NO 62 0 min 0,000 mm 0,0 UV-I 0 W/m -6,2 C -12,1 C 19,3 km/h (3 Bft) 100,00 %
09.02.2017 04:54 -4,7 C 89 % 1027,0 hPa 0,0 l/m 13,3 km/h (3 Bft) O 87 0 min 0,000 mm 0,0 UV-I 0 W/m -6,2 C -11,4 C 17,7 km/h (3 Bft) 100,00 %
09.02.2017 04:56 -4,7 C 89 % 1027,0 hPa 0,0 l/m 16,1 km/h (3 Bft) NO 46 0 min 0,000 mm 0,0 UV-I 0 W/m -6,2 C -13,4 C 20,9 km/h (4 Bft) 98,11 %
09.02.2017 04:58 -4,7 C 89 % 1027,0 hPa 0,0 l/m 15,0 km/h (3 Bft) O-NO 64 0 min 0,000 mm 0,0 UV-I 0 W/m -6,2 C -12,7 C 17,7 km/h (3 Bft) 100,00 %
09.02.2017 05:00 -4,7 C 89 % 1027,0 hPa 0,0 l/m 14,3 km/h (3 Bft) NO 43 0 min 0,000 mm 0,0 UV-I 0 W/m -6,2 C -12,2 C 19,3 km/h (3 Bft) 100,00 %
09.02.2017 05:02 -4,7 C 89 % 1027,0 hPa 0,0 l/m 15,6 km/h (3 Bft) NO 46 0 min 0,000 mm 0,0 UV-I 0 W/m -6,2 C -13,1 C 20,9 km/h (4 Bft) 100,00 %
09.02.2017 05:04 -4,7 C 89 % 1027,0 hPa 0,0 l/m 16,8 km/h (3 Bft) O-NO 58 0 min 0,000 mm 0,0 UV-I 0 W/m -6,2 C -13,9 C 20,9 km/h (4 Bft) 100,00 %
09.02.2017 05:06 -4,7 C 89 % 1027,1 hPa 0,0 l/m 16,8 km/h (3 Bft) O-NO 76 0 min 0,000 mm 0,0 UV-I 0 W/m -6,2 C -13,9 C 24,1 km/h (4 Bft) 98,44 %
09.02.2017 05:08 -4,7 C 89 % 1027,1 hPa 0,0 l/m 17,3 km/h (3 Bft) O-NO 71 0 min 0,000 mm 0,0 UV-I 0 W/m -6,2 C -14,2 C 22,5 km/h (4 Bft) 94,87 %
09.02.2017 05:10 -4,7 C 89 % 1027,1 hPa 0,0 l/m 20,2 km/h (4 Bft) O-NO 59 0 min 0,000 mm 0,0 UV-I 0 W/m -6,2 C -15,8 C 25,7 km/h (4 Bft) 100,00 %
09.02.2017 05:12 -4,6 C 89 % 1027,1 hPa 0,0 l/m 20,0 km/h (4 Bft) O-NO 61 0 min 0,000 mm 0,0 UV-I 0 W/m -6,1 C -15,6 C 29,0 km/h (5 Bft) 100,00 %
09.02.2017 05:14 -4,6 C 88 % 1027,1 hPa 0,0 l/m 15,8 km/h (3 Bft) O-NO 77 0 min 0,000 mm 0,0 UV-I 0 W/m -6,3 C -13,1 C 20,9 km/h (4 Bft) 100,00 %
09.02.2017 05:16 -4,6 C 88 % 1027,1 hPa 0,0 l/m 17,4 km/h (3 Bft) NO 56 0 min 0,000 mm 0,0 UV-I 0 W/m -6,3 C -14,1 C 29,0 km/h (5 Bft) 100,00 %
09.02.2017 05:18 -4,6 C 88 % 1027,1 hPa 0,0 l/m 17,8 km/h (3 Bft) NO 51 0 min 0,000 mm 0,0 UV-I 0 W/m -6,3 C -14,3 C 24,1 km/h (4 Bft) 100,00 %
09.02.2017 05:20 -4,6 C 88 % 1027,1 hPa 0,0 l/m 16,1 km/h (3 Bft) O 80 0 min 0,000 mm 0,0 UV-I 0 W/m -6,3 C -13,3 C 22,5 km/h (4 Bft) 98,11 %
09.02.2017 05:22 -4,6 C 88 % 1027,1 hPa 0,0 l/m 14,6 km/h (3 Bft) NO 43 0 min 0,000 mm 0,0 UV-I 0 W/m -6,3 C -12,3 C 20,9 km/h (4 Bft) 100,00 %
09.02.2017 05:24 -4,6 C 88 % 1027,1 hPa 0,0 l/m 17,0 km/h (3 Bft) O-NO 63 0 min 0,000 mm 0,0 UV-I 0 W/m -6,3 C -13,9 C 22,5 km/h (4 Bft) 100,00 %
09.02.2017 05:26 -4,6 C 88 % 1027,1 hPa 0,0 l/m 17,7 km/h (3 Bft) NO 51 0 min 0,000 mm 0,0 UV-I 0 W/m -6,3 C -14,3 C 24,1 km/h (4 Bft) 100,00 %
09.02.2017 05:28 -4,6 C 88 % 1027,1 hPa 0,0 l/m 18,2 km/h (3 Bft) O-NO 65 0 min 0,000 mm 0,0 UV-I 0 W/m -6,3 C -14,6 C 24,1 km/h (4 Bft) 100,00 %
09.02.2017 05:30 -4,6 C 88 % 1027,1 hPa 0,0 l/m 19,0 km/h (3 Bft) O-NO 74 0 min 0,000 mm 0,0 UV-I 0 W/m -6,3 C -15,0 C 25,7 km/h (4 Bft) 100,00 %
09.02.2017 05:32 -4,6 C 88 % 1027,1 hPa 0,0 l/m 19,6 km/h (3 Bft) O-NO 63 0 min 0,000 mm 0,0 UV-I 0 W/m -6,3 C -15,4 C 25,7 km/h (4 Bft) 100,00 %
09.02.2017 05:34 -4,6 C 88 % 1027,0 hPa 0,0 l/m 20,1 km/h (4 Bft) O-NO 59 0 min 0,000 mm 0,0 UV-I 0 W/m -6,3 C -15,6 C 29,0 km/h (5 Bft) 100,00 %
09.02.2017 05:36 -4,6 C 87 % 1027,0 hPa 0,0 l/m 17,2 km/h (3 Bft) O-NO 75 0 min 0,000 mm 0,0 UV-I 0 W/m -6,4 C -14,0 C 27,4 km/h (4 Bft) 100,00 %
09.02.2017 05:38 -4,6 C 87 % 1027,1 hPa 0,0 l/m 17,7 km/h (3 Bft) O-NO 69 0 min 0,000 mm 0,0 UV-I 0 W/m -6,4 C -14,3 C 20,9 km/h (4 Bft) 100,00 %
09.02.2017 05:40 -4,6 C 87 % 1027,1 hPa 0,0 l/m 18,8 km/h (3 Bft) O 95 0 min 0,000 mm 0,0 UV-I 0 W/m -6,4 C -14,9 C 25,7 km/h (4 Bft) 100,00 %
09.02.2017 05:42 -4,6 C 87 % 1027,0 hPa 0,0 l/m 20,2 km/h (4 Bft) O-NO 66 0 min 0,000 mm 0,0 UV-I 0 W/m -6,4 C -15,7 C 25,7 km/h (4 Bft) 100,00 %
09.02.2017 05:44 -4,6 C 87 % 1027,0 hPa 0,0 l/m 19,0 km/h (3 Bft) O-NO 63 0 min 0,000 mm 0,0 UV-I 0 W/m -6,4 C -15,0 C 24,1 km/h (4 Bft) 100,00 %
09.02.2017 05:46 -4,6 C 87 % 1027,0 hPa 0,0 l/m 19,2 km/h (3 Bft) O-NO 57 0 min 0,000 mm 0,0 UV-I 0 W/m -6,4 C -15,1 C 25,7 km/h (4 Bft) 100,00 %
09.02.2017 05:48 -4,6 C 87 % 1026,9 hPa 0,0 l/m 18,1 km/h (3 Bft) O-NO 64 0 min 0,000 mm 0,0 UV-I 0 W/m -6,4 C -14,5 C 22,5 km/h (4 Bft) 100,00 %
09.02.2017 05:50 -4,6 C 87 % 1026,9 hPa 0,0 l/m 18,9 km/h (3 Bft) O-NO 64 0 min 0,000 mm 0,0 UV-I 0 W/m -6,4 C -15,0 C 24,1 km/h (4 Bft) 100,00 %
09.02.2017 05:52 -4,6 C 87 % 1026,9 hPa 0,0 l/m 19,1 km/h (3 Bft) O-NO 59 0 min 0,000 mm 0,0 UV-I 0 W/m -6,4 C -15,1 C 27,4 km/h (4 Bft) 100,00 %
09.02.2017 05:54 -4,6 C 87 % 1027,0 hPa 0,0 l/m 15,7 km/h (3 Bft) NO 44 0 min 0,000 mm 0,0 UV-I 0 W/m -6,4 C -13,0 C 24,1 km/h (4 Bft) 100,00 %
09.02.2017 05:56 -4,6 C 87 % 1026,9 hPa 0,0 l/m 16,1 km/h (3 Bft) O-NO 64 0 min 0,000 mm 0,0 UV-I 0 W/m -6,4 C -13,3 C 22,5 km/h (4 Bft) 100,00 %
09.02.2017 05:58 -4,6 C 87 % 1026,9 hPa 0,0 l/m 18,9 km/h (3 Bft) O-NO 70 0 min 0,000 mm 0,0 UV-I 0 W/m -6,4 C -15,0 C 27,4 km/h (4 Bft) 100,00 %
09.02.2017 06:00 -4,6 C 87 % 1027,0 hPa 0,0 l/m 18,7 km/h (3 Bft) O-NO 63 0 min 0,026 mm 0,0 UV-I 0 W/m -6,4 C -14,9 C 25,7 km/h (4 Bft) 94,74 %
09.02.2017 06:02 -4,6 C 87 % 1027,0 hPa 0,0 l/m 17,2 km/h (3 Bft) O-NO 57 0 min 0,000 mm 0,0 UV-I 0 W/m -6,4 C -14,0 C 22,5 km/h (4 Bft) 96,00 %
09.02.2017 06:04 -4,6 C 87 % 1027,0 hPa 0,0 l/m 19,3 km/h (3 Bft) NO 46 0 min 0,000 mm 0,0 UV-I 0 W/m -6,4 C -15,2 C 30,6 km/h (5 Bft) 96,00 %
09.02.2017 06:06 -4,6 C 87 % 1027,0 hPa 0,0 l/m 19,6 km/h (3 Bft) O-NO 78 0 min 0,000 mm 0,0 UV-I 0 W/m -6,4 C -15,4 C 27,4 km/h (4 Bft) 97,37 %
09.02.2017 06:08 -4,6 C 87 % 1027,0 hPa 0,0 l/m 19,2 km/h (3 Bft) O-NO 57 0 min 0,000 mm 0,0 UV-I 0 W/m -6,4 C -15,1 C 27,4 km/h (4 Bft) 98,00 %
09.02.2017 06:10 -4,6 C 87 % 1027,1 hPa 0,0 l/m 19,6 km/h (3 Bft) O-NO 74 0 min 0,000 mm 0,0 UV-I 0 W/m -6,4 C -15,4 C 25,7 km/h (4 Bft) 96,00 %
09.02.2017 06:12 -4,6 C 87 % 1027,1 hPa 0,0 l/m 20,4 km/h (4 Bft) O-NO 63 0 min 0,000 mm 0,0 UV-I 0 W/m -6,4 C -15,8 C 27,4 km/h (4 Bft) 97,73 %
09.02.2017 06:14 -4,6 C 87 % 1027,1 hPa 0,0 l/m 17,2 km/h (3 Bft) O-NO 74 0 min 0,000 mm 0,0 UV-I 0 W/m -6,4 C -14,0 C 24,1 km/h (4 Bft) 96,00 %
09.02.2017 06:16 -4,6 C 87 % 1027,1 hPa 0,0 l/m 18,0 km/h (3 Bft) O-NO 74 0 min 0,000 mm 0,0 UV-I 0 W/m -6,4 C -14,5 C 24,1 km/h (4 Bft) 98,00 %
09.02.2017 06:18 -4,6 C 87 % 1027,0 hPa 0,0 l/m 18,1 km/h (3 Bft) O-NO 66 0 min 0,000 mm 0,0 UV-I 0 W/m -6,4 C -14,5 C 24,1 km/h (4 Bft) 97,37 %
09.02.2017 06:20 -4,6 C 87 % 1027,0 hPa 0,0 l/m 20,6 km/h (4 Bft) O-NO 69 0 min 0,000 mm 0,0 UV-I 0 W/m -6,4 C -15,9 C 27,4 km/h (4 Bft) 94,34 %
09.02.2017 06:22 -4,6 C 87 % 1027,0 hPa 0,0 l/m 19,6 km/h (3 Bft) O-NO 78 0 min 0,000 mm 0,0 UV-I 0 W/m -6,4 C -15,4 C 24,1 km/h (4 Bft) 96,00 %
09.02.2017 06:24 -4,6 C 87 % 1027,0 hPa 0,0 l/m 18,4 km/h (3 Bft) O-NO 63 0 min 0,000 mm 0,0 UV-I 0 W/m -6,4 C -14,7 C 24,1 km/h (4 Bft) 95,45 %
09.02.2017 06:26 -4,6 C 87 % 1027,0 hPa 0,0 l/m 20,8 km/h (4 Bft) O-NO 66 0 min 0,000 mm 0,0 UV-I 0 W/m -6,4 C -16,0 C 27,4 km/h (4 Bft) 92,86 %
09.02.2017 06:28 -4,6 C 87 % 1026,9 hPa 0,0 l/m 22,1 km/h (4 Bft) O-NO 74 0 min 0,000 mm 0,0 UV-I 0 W/m -6,4 C -16,6 C 32,2 km/h (5 Bft) 94,55 %
09.02.2017 06:30 -4,6 C 87 % 1026,9 hPa 0,0 l/m 22,8 km/h (4 Bft) O-NO 74 0 min 0,000 mm 0,0 UV-I 0 W/m -6,4 C -17,0 C 33,8 km/h (5 Bft) 97,87 %
09.02.2017 06:32 -4,6 C 87 % 1026,9 hPa 0,0 l/m 20,0 km/h (4 Bft) O-NO 58 0 min 0,000 mm 0,0 UV-I 0 W/m -6,4 C -15,6 C 29,0 km/h (5 Bft) 97,92 %
09.02.2017 06:34 -4,6 C 87 % 1026,9 hPa 0,0 l/m 21,1 km/h (4 Bft) O-NO 74 0 min 0,000 mm 0,0 UV-I 0 W/m -6,4 C -16,1 C 32,2 km/h (5 Bft) 92,68 %
09.02.2017 06:36 -4,5 C 87 % 1027,0 hPa 0,0 l/m 21,0 km/h (4 Bft) O-NO 71 0 min 0,000 mm 0,0 UV-I 0 W/m -6,3 C -16,0 C 29,0 km/h (5 Bft) 100,00 %
09.02.2017 06:38 -4,5 C 87 % 1027,0 hPa 0,0 l/m 20,6 km/h (4 Bft) O-NO 65 0 min 0,000 mm 0,0 UV-I 0 W/m -6,3 C -15,8 C 27,4 km/h (4 Bft) 100,00 %
09.02.2017 06:40 -4,6 C 87 % 1027,0 hPa 0,0 l/m 21,1 km/h (4 Bft) O 80 0 min 0,000 mm 0,0 UV-I 0 W/m -6,4 C -16,1 C 27,4 km/h (4 Bft) 100,00 %
09.02.2017 06:42 -4,6 C 87 % 1027,0 hPa 0,0 l/m 20,8 km/h (4 Bft) O-NO 73 0 min 0,000 mm 0,0 UV-I 0 W/m -6,4 C -16,0 C 29,0 km/h (5 Bft) 94,34 %
09.02.2017 06:44 -4,6 C 87 % 1026,9 hPa 0,0 l/m 21,2 km/h (4 Bft) O-NO 78 0 min 0,000 mm 0,0 UV-I 0 W/m -6,4 C -16,2 C 29,0 km/h (5 Bft) 96,00 %
09.02.2017 06:46 -4,6 C 87 % 1027,0 hPa 0,0 l/m 21,5 km/h (4 Bft) O-NO 69 0 min 0,000 mm 0,0 UV-I 0 W/m -6,4 C -16,3 C 30,6 km/h (5 Bft) 97,87 %
09.02.2017 06:48 -4,6 C 87 % 1027,0 hPa 0,0 l/m 19,4 km/h (3 Bft) O-NO 61 0 min 0,000 mm 0,0 UV-I 0 W/m -6,4 C -15,3 C 25,7 km/h (4 Bft) 96,00 %
09.02.2017 06:50 -4,6 C 87 % 1027,0 hPa 0,0 l/m 21,2 km/h (4 Bft) NO 35 0 min 0,000 mm 0,0 UV-I 0 W/m -6,4 C -16,2 C 30,6 km/h (5 Bft) 92,31 %
09.02.2017 06:52 -4,6 C 88 % 1027,0 hPa 0,0 l/m 24,1 km/h (4 Bft) O-NO 64 0 min 0,000 mm 0,0 UV-I 0 W/m -6,3 C -17,6 C 33,8 km/h (5 Bft) 100,00 %
09.02.2017 06:54 -4,6 C 88 % 1027,0 hPa 0,0 l/m 23,4 km/h (4 Bft) NO 56 0 min 0,000 mm 0,0 UV-I 0 W/m -6,3 C -17,2 C 33,8 km/h (5 Bft) 95,12 %
09.02.2017 06:56 -4,6 C 88 % 1027,0 hPa 0,0 l/m 23,2 km/h (4 Bft) O-NO 71 0 min 0,000 mm 0,0 UV-I 0 W/m -6,3 C -17,2 C 30,6 km/h (5 Bft) 93,18 %
09.02.2017 06:58 -4,6 C 88 % 1027,0 hPa 0,0 l/m 21,2 km/h (4 Bft) O-SO 103 0 min 0,000 mm 0,0 UV-I 0 W/m -6,3 C -16,2 C 32,2 km/h (5 Bft) 100,00 %
09.02.2017 07:00 -4,6 C 88 % 1027,0 hPa 0,0 l/m 21,6 km/h (4 Bft) O-NO 59 0 min 0,025 mm 0,0 UV-I 0 W/m -6,3 C -16,4 C 30,6 km/h (5 Bft) 100,00 %
09.02.2017 07:02 -4,6 C 88 % 1027,0 hPa 0,0 l/m 21,1 km/h (4 Bft) O 82 0 min 0,000 mm 0,0 UV-I 0 W/m -6,3 C -16,1 C 29,0 km/h (5 Bft) 98,00 %
09.02.2017 07:04 -4,6 C 88 % 1027,0 hPa 0,0 l/m 18,6 km/h (3 Bft) O-NO 66 0 min 0,000 mm 0,0 UV-I 0 W/m -6,3 C -14,8 C 25,7 km/h (4 Bft) 100,00 %
09.02.2017 07:06 -4,6 C 88 % 1027,1 hPa 0,0 l/m 19,2 km/h (3 Bft) O-SO 108 0 min 0,000 mm 0,0 UV-I 0 W/m -6,3 C -15,1 C 25,7 km/h (4 Bft) 96,23 %
09.02.2017 07:08 -4,6 C 88 % 1027,0 hPa 0,0 l/m 21,5 km/h (4 Bft) O-NO 73 0 min 0,000 mm 0,0 UV-I 0 W/m -6,3 C -16,3 C 30,6 km/h (5 Bft) 97,62 %
09.02.2017 07:10 -4,6 C 88 % 1027,0 hPa 0,0 l/m 19,2 km/h (3 Bft) NO 54 0 min 0,000 mm 0,0 UV-I 5 W/m -6,3 C -15,1 C 24,1 km/h (4 Bft) 96,23 %
09.02.2017 07:12 -4,6 C 88 % 1027,0 hPa 0,0 l/m 21,7 km/h (4 Bft) O-NO 68 0 min 0,000 mm 0,0 UV-I 5 W/m -6,3 C -16,4 C 29,0 km/h (5 Bft) 95,74 %
09.02.2017 07:14 -4,6 C 88 % 1027,0 hPa 0,0 l/m 21,6 km/h (4 Bft) NO 56 0 min 0,000 mm 0,0 UV-I 5 W/m -6,3 C -16,4 C 29,0 km/h (5 Bft) 97,87 %
09.02.2017 07:16 -4,6 C 88 % 1027,0 hPa 0,0 l/m 20,0 km/h (4 Bft) O-NO 58 0 min 0,000 mm 0,0 UV-I 5 W/m -6,3 C -15,6 C 29,0 km/h (5 Bft) 97,37 %
09.02.2017 07:18 -4,6 C 88 % 1027,0 hPa 0,0 l/m 21,4 km/h (4 Bft) NO 54 0 min 0,000 mm 0,0 UV-I 7 W/m -6,3 C -16,3 C 30,6 km/h (5 Bft) 98,11 %
09.02.2017 07:20 -4,6 C 88 % 1027,0 hPa 0,0 l/m 23,0 km/h (4 Bft) NO 56 0 min 0,000 mm 0,0 UV-I 7 W/m -6,3 C -17,1 C 30,6 km/h (5 Bft) 89,47 %
09.02.2017 07:22 -4,6 C 88 % 1027,0 hPa 0,0 l/m 22,0 km/h (4 Bft) O-NO 57 0 min 0,000 mm 0,0 UV-I 7 W/m -6,3 C -16,6 C 27,4 km/h (4 Bft) 96,43 %
09.02.2017 07:24 -4,6 C 88 % 1027,0 hPa 0,0 l/m 21,4 km/h (4 Bft) O 82 0 min 0,000 mm 0,0 UV-I 8 W/m -6,3 C -16,3 C 32,2 km/h (5 Bft) 95,12 %
09.02.2017 07:26 -4,6 C 88 % 1027,0 hPa 0,0 l/m 20,9 km/h (4 Bft) NO 52 0 min 0,000 mm 0,0 UV-I 9 W/m -6,3 C -16,0 C 27,4 km/h (4 Bft) 94,34 %
09.02.2017 07:28 -4,6 C 88 % 1027,0 hPa 0,0 l/m 23,5 km/h (4 Bft) O-NO 63 0 min 0,000 mm 0,0 UV-I 10 W/m -6,3 C -17,3 C 32,2 km/h (5 Bft) 94,00 %
09.02.2017 07:30 -4,6 C 88 % 1027,1 hPa 0,0 l/m 21,9 km/h (4 Bft) O-NO 61 0 min 0,000 mm 0,0 UV-I 11 W/m -6,3 C -16,5 C 29,0 km/h (5 Bft) 100,00 %
09.02.2017 07:32 -4,5 C 88 % 1027,0 hPa 0,0 l/m 21,3 km/h (4 Bft) NO 47 2 min 0,000 mm 0,0 UV-I 12 W/m -6,2 C -16,1 C 27,4 km/h (4 Bft) 94,00 %
09.02.2017 07:34 -4,5 C 88 % 1027,1 hPa 0,0 l/m 21,5 km/h (4 Bft) NO 49 2 min 0,000 mm 0,0 UV-I 14 W/m -6,2 C -16,2 C 29,0 km/h (5 Bft) 92,68 %
09.02.2017 07:36 -4,5 C 88 % 1027,1 hPa 0,0 l/m 21,2 km/h (4 Bft) O-NO 71 0 min 0,000 mm 0,0 UV-I 16 W/m -6,2 C -16,1 C 27,4 km/h (4 Bft) 98,11 %
09.02.2017 07:38 -4,5 C 88 % 1027,1 hPa 0,0 l/m 22,8 km/h (4 Bft) O-NO 77 0 min 0,000 mm 0,0 UV-I 18 W/m -6,2 C -16,8 C 32,2 km/h (5 Bft) 98,00 %
09.02.2017 07:40 -4,5 C 88 % 1027,1 hPa 0,0 l/m 19,0 km/h (3 Bft) O 81 0 min 0,000 mm 0,0 UV-I 19 W/m -6,2 C -14,9 C 25,7 km/h (4 Bft) 92,11 %
09.02.2017 07:42 -4,5 C 88 % 1027,1 hPa 0,0 l/m 22,1 km/h (4 Bft) NO 51 0 min 0,000 mm 0,0 UV-I 22 W/m -6,2 C -16,5 C 30,6 km/h (5 Bft) 98,00 %
09.02.2017 07:44 -4,4 C 88 % 1027,0 hPa 0,0 l/m 22,8 km/h (4 Bft) O 86 0 min 0,000 mm 0,0 UV-I 25 W/m -6,1 C -16,7 C 29,0 km/h (5 Bft) 100,00 %
09.02.2017 07:46 -4,4 C 88 % 1027,0 hPa 0,0 l/m 23,7 km/h (4 Bft) NO 51 0 min 0,000 mm 0,0 UV-I 28 W/m -6,1 C -17,1 C 33,8 km/h (5 Bft) 100,00 %
09.02.2017 07:48 -4,4 C 88 % 1027,1 hPa 0,0 l/m 21,7 km/h (4 Bft) O-NO 63 0 min 0,000 mm 0,0 UV-I 32 W/m -6,1 C -16,2 C 27,4 km/h (4 Bft) 94,34 %
09.02.2017 07:50 -4,4 C 89 % 1027,0 hPa 0,0 l/m 18,9 km/h (3 Bft) O-NO 65 0 min 0,000 mm 0,0 UV-I 32 W/m -5,9 C -14,7 C 25,7 km/h (4 Bft) 100,00 %
09.02.2017 07:52 -4,4 C 89 % 1027,1 hPa 0,0 l/m 16,6 km/h (3 Bft) O-NO 59 0 min 0,000 mm 0,0 UV-I 32 W/m -5,9 C -13,4 C 20,9 km/h (4 Bft) 98,21 %
09.02.2017 07:54 -4,4 C 89 % 1027,1 hPa 0,0 l/m 21,3 km/h (4 Bft) NO 54 0 min 0,000 mm 0,0 UV-I 34 W/m -5,9 C -16,0 C 29,0 km/h (5 Bft) 98,31 %
09.02.2017 07:56 -4,4 C 89 % 1027,1 hPa 0,0 l/m 19,2 km/h (3 Bft) O-NO 63 0 min 0,000 mm 0,0 UV-I 35 W/m -5,9 C -14,9 C 27,4 km/h (4 Bft) 97,37 %
09.02.2017 07:58 -4,4 C 88 % 1027,1 hPa 0,0 l/m 20,5 km/h (4 Bft) O-NO 58 0 min 0,000 mm 0,0 UV-I 36 W/m -6,1 C -15,6 C 29,0 km/h (5 Bft) 100,00 %
09.02.2017 08:00 -4,3 C 88 % 1027,1 hPa 0,0 l/m 19,1 km/h (3 Bft) O-NO 73 0 min 0,026 mm 0,0 UV-I 36 W/m -6,0 C -14,7 C 27,4 km/h (4 Bft) 98,00 %
09.02.2017 08:02 -4,3 C 88 % 1027,1 hPa 0,0 l/m 18,6 km/h (3 Bft) O-NO 58 0 min 0,000 mm 0,0 UV-I 38 W/m -6,0 C -14,4 C 27,4 km/h (4 Bft) 97,56 %
09.02.2017 08:04 -4,3 C 88 % 1027,1 hPa 0,0 l/m 18,4 km/h (3 Bft) O-NO 70 0 min 0,000 mm 0,0 UV-I 40 W/m -6,0 C -14,3 C 24,1 km/h (4 Bft) 94,34 %
09.02.2017 08:06 -4,3 C 89 % 1027,1 hPa 0,0 l/m 17,9 km/h (3 Bft) O-NO 65 0 min 0,000 mm 0,0 UV-I 43 W/m -5,8 C -14,0 C 25,7 km/h (4 Bft) 95,12 %
09.02.2017 08:08 -4,3 C 89 % 1027,1 hPa 0,0 l/m 17,9 km/h (3 Bft) NO 40 0 min 0,000 mm 0,0 UV-I 45 W/m -5,8 C -14,0 C 27,4 km/h (4 Bft) 94,34 %
09.02.2017 08:10 -4,3 C 89 % 1027,0 hPa 0,0 l/m 19,2 km/h (3 Bft) O-NO 67 0 min 0,000 mm 0,0 UV-I 47 W/m -5,8 C -14,8 C 24,1 km/h (4 Bft) 94,74 %
09.02.2017 08:12 -4,3 C 89 % 1027,0 hPa 0,0 l/m 20,8 km/h (4 Bft) O-NO 60 0 min 0,000 mm 0,0 UV-I 50 W/m -5,8 C -15,6 C 29,0 km/h (5 Bft) 96,00 %
09.02.2017 08:14 -4,3 C 88 % 1027,0 hPa 0,0 l/m 22,0 km/h (4 Bft) O-NO 60 0 min 0,000 mm 0,0 UV-I 54 W/m -6,0 C -16,2 C 27,4 km/h (4 Bft) 93,62 %
09.02.2017 08:16 -4,2 C 88 % 1026,9 hPa 0,0 l/m 21,8 km/h (4 Bft) O-NO 63 0 min 0,000 mm 0,0 UV-I 54 W/m -5,9 C -16,0 C 25,7 km/h (4 Bft) 97,87 %
09.02.2017 08:18 -4,2 C 88 % 1027,0 hPa 0,0 l/m 20,0 km/h (4 Bft) O-NO 68 0 min 0,000 mm 0,0 UV-I 54 W/m -5,9 C -15,1 C 27,4 km/h (4 Bft) 97,56 %
09.02.2017 08:20 -4,2 C 89 % 1027,0 hPa 0,0 l/m 18,1 km/h (3 Bft) O-NO 74 0 min 0,000 mm 0,0 UV-I 55 W/m -5,7 C -14,0 C 24,1 km/h (4 Bft) 93,94 %
09.02.2017 08:22 -4,2 C 89 % 1027,0 hPa 0,0 l/m 17,1 km/h (3 Bft) NO 55 0 min 0,000 mm 0,0 UV-I 57 W/m -5,7 C -13,4 C 22,5 km/h (4 Bft) 95,71 %
09.02.2017 08:24 -4,2 C 89 % 1027,0 hPa 0,0 l/m 18,1 km/h (3 Bft) O-NO 74 0 min 0,000 mm 0,0 UV-I 61 W/m -5,7 C -14,0 C 25,7 km/h (4 Bft) 97,73 %
09.02.2017 08:26 -4,1 C 89 % 1027,0 hPa 0,0 l/m 16,0 km/h (3 Bft) O-NO 73 0 min 0,000 mm 0,0 UV-I 63 W/m -5,6 C -12,6 C 22,5 km/h (4 Bft) 94,00 %
09.02.2017 08:28 -4,1 C 89 % 1027,0 hPa 0,0 l/m 18,3 km/h (3 Bft) NO 55 0 min 0,000 mm 0,0 UV-I 64 W/m -5,6 C -14,0 C 24,1 km/h (4 Bft) 94,44 %
09.02.2017 08:30 -4,1 C 89 % 1027,0 hPa 0,0 l/m 16,1 km/h (3 Bft) NO 46 0 min 0,000 mm 0,0 UV-I 65 W/m -5,6 C -12,7 C 20,9 km/h (4 Bft) 95,45 %
09.02.2017 08:32 -4,1 C 89 % 1027,0 hPa 0,0 l/m 19,6 km/h (3 Bft) O-NO 57 0 min 0,000 mm 0,0 UV-I 65 W/m -5,6 C -14,7 C 25,7 km/h (4 Bft) 96,61 %
09.02.2017 08:34 -4,1 C 88 % 1027,0 hPa 0,0 l/m 19,2 km/h (3 Bft) O-NO 57 0 min 0,000 mm 0,0 UV-I 66 W/m -5,8 C -14,5 C 22,5 km/h (4 Bft) 97,56 %
09.02.2017 08:36 -4,0 C 89 % 1027,0 hPa 0,0 l/m 16,9 km/h (3 Bft) O-NO 75 0 min 0,000 mm 0,0 UV-I 65 W/m -5,5 C -13,0 C 20,9 km/h (4 Bft) 96,43 %
09.02.2017 08:38 -4,0 C 88 % 1027,0 hPa 0,0 l/m 18,8 km/h (3 Bft) O-NO 61 0 min 0,000 mm 0,0 UV-I 66 W/m -5,7 C -14,2 C 24,1 km/h (4 Bft) 93,62 %
09.02.2017 08:40 -3,9 C 88 % 1027,0 hPa 0,0 l/m 20,9 km/h (4 Bft) O-NO 61 0 min 0,000 mm 0,0 UV-I 68 W/m -5,6 C -15,1 C 27,4 km/h (4 Bft) 100,00 %
09.02.2017 08:42 -3,9 C 88 % 1027,0 hPa 0,0 l/m 23,4 km/h (4 Bft) O-NO 67 0 min 0,000 mm 0,0 UV-I 72 W/m -5,6 C -16,3 C 30,6 km/h (5 Bft) 98,00 %
09.02.2017 08:44 -3,9 C 88 % 1027,0 hPa 0,0 l/m 20,7 km/h (4 Bft) O-NO 58 0 min 0,000 mm 0,0 UV-I 75 W/m -5,6 C -15,0 C 27,4 km/h (4 Bft) 100,00 %
09.02.2017 08:46 -3,9 C 88 % 1027,0 hPa 0,0 l/m 19,1 km/h (3 Bft) NO 44 0 min 0,000 mm 0,0 UV-I 77 W/m -5,6 C -14,2 C 22,5 km/h (4 Bft) 92,50 %
09.02.2017 08:48 -3,8 C 88 % 1027,0 hPa 0,0 l/m 15,8 km/h (3 Bft) NO 55 0 min 0,000 mm 0,0 UV-I 79 W/m -5,5 C -12,1 C 20,9 km/h (4 Bft) 96,23 %
09.02.2017 08:50 -3,8 C 89 % 1027,0 hPa 0,0 l/m 18,1 km/h (3 Bft) O-NO 59 0 min 0,000 mm 0,0 UV-I 86 W/m -5,3 C -13,5 C 25,7 km/h (4 Bft) 100,00 %
09.02.2017 08:52 -3,8 C 88 % 1027,0 hPa 0,0 l/m 19,7 km/h (3 Bft) O-NO 65 0 min 0,000 mm 0,0 UV-I 93 W/m -5,5 C -14,4 C 24,1 km/h (4 Bft) 97,37 %
09.02.2017 08:54 -3,8 C 88 % 1027,0 hPa 0,0 l/m 17,8 km/h (3 Bft) NO 41 0 min 0,000 mm 0,0 UV-I 88 W/m -5,5 C -13,3 C 24,1 km/h (4 Bft) 100,00 %
09.02.2017 08:56 -3,7 C 88 % 1027,0 hPa 0,0 l/m 15,4 km/h (3 Bft) NO 51 0 min 0,000 mm 0,0 UV-I 84 W/m -5,4 C -11,7 C 20,9 km/h (4 Bft) 96,00 %
09.02.2017 08:58 -3,7 C 88 % 1027,0 hPa 0,0 l/m 19,1 km/h (3 Bft) O-NO 61 0 min 0,000 mm 0,0 UV-I 84 W/m -5,4 C -13,9 C 25,7 km/h (4 Bft) 95,74 %
09.02.2017 09:00 -3,7 C 88 % 1027,0 hPa 0,0 l/m 19,5 km/h (3 Bft) O-NO 69 0 min 0,025 mm 0,0 UV-I 87 W/m -5,4 C -14,1 C 25,7 km/h (4 Bft) 100,00 %
09.02.2017 09:02 -3,7 C 88 % 1027,0 hPa 0,0 l/m 16,0 km/h (3 Bft) O-NO 65 0 min 0,000 mm 0,0 UV-I 87 W/m -5,4 C -12,1 C 24,1 km/h (4 Bft) 100,00 %
09.02.2017 09:04 -3,7 C 88 % 1026,9 hPa 0,0 l/m 19,9 km/h (4 Bft) NO 55 0 min 0,000 mm 0,0 UV-I 91 W/m -5,4 C -14,4 C 25,7 km/h (4 Bft) 100,00 %
09.02.2017 09:06 -3,7 C 88 % 1026,9 hPa 0,0 l/m 20,2 km/h (4 Bft) O-NO 58 0 min 0,000 mm 0,0 UV-I 94 W/m -5,4 C -14,5 C 29,0 km/h (5 Bft) 98,08 %
09.02.2017 09:08 -3,6 C 88 % 1026,9 hPa 0,0 l/m 19,3 km/h (3 Bft) O-NO 66 0 min 0,000 mm 0,0 UV-I 97 W/m -5,3 C -13,9 C 24,1 km/h (4 Bft) 97,62 %
09.02.2017 09:10 -3,6 C 88 % 1026,9 hPa 0,0 l/m 19,4 km/h (3 Bft) NO 36 0 min 0,000 mm 0,0 UV-I 103 W/m -5,3 C -14,0 C 25,7 km/h (4 Bft) 100,00 %
09.02.2017 09:12 -3,6 C 88 % 1026,9 hPa 0,0 l/m 17,2 km/h (3 Bft) O-NO 60 0 min 0,000 mm 0,0 UV-I 106 W/m -5,3 C -12,7 C 33,8 km/h (5 Bft) 100,00 %
09.02.2017 09:14 -3,6 C 88 % 1026,9 hPa 0,0 l/m 19,8 km/h (3 Bft) NO 51 0 min 0,000 mm 0,0 UV-I 108 W/m -5,3 C -14,2 C 32,2 km/h (5 Bft) 100,00 %
09.02.2017 09:19 -3,6 C 88 % 1026,7 hPa 0,0 l/m 20,1 km/h (4 Bft) NO 50 0 min 0,000 mm 0,0 UV-I 112 W/m -5,3 C -14,3 C 29,0 km/h (5 Bft) 96,15 %
09.02.2017 09:20 -3,6 C 88 % 1026,7 hPa 0,0 l/m 21,3 km/h (4 Bft) O-NO 58 0 min 0,000 mm 0,0 UV-I 126 W/m -5,3 C -14,9 C 27,4 km/h (4 Bft) 100,00 %
09.02.2017 09:22 -3,6 C 88 % 1026,7 hPa 0,0 l/m 20,6 km/h (4 Bft) O-NO 66 0 min 0,000 mm 0,0 UV-I 128 W/m -5,3 C -14,6 C 29,0 km/h (5 Bft) 100,00 %
09.02.2017 09:24 -3,5 C 88 % 1026,7 hPa 0,0 l/m 22,9 km/h (4 Bft) O-NO 60 0 min 0,000 mm 0,0 UV-I 137 W/m -5,2 C -15,6 C 30,6 km/h (5 Bft) 100,00 %
09.02.2017 09:26 -3,6 C 87 % 1026,7 hPa 0,0 l/m 23,7 km/h (4 Bft) O-NO 60 0 min 0,000 mm 0,0 UV-I 138 W/m -5,4 C -16,0 C 30,6 km/h (5 Bft) 100,00 %
09.02.2017 09:28 -3,6 C 87 % 1026,6 hPa 0,0 l/m 23,4 km/h (4 Bft) O 88 0 min 0,000 mm 0,0 UV-I 135 W/m -5,4 C -15,9 C 32,2 km/h (5 Bft) 97,87 %
09.02.2017 09:30 -3,5 C 87 % 1026,6 hPa 0,0 l/m 22,0 km/h (4 Bft) O-NO 74 0 min 0,000 mm 0,0 UV-I 140 W/m -5,3 C -15,1 C 30,6 km/h (5 Bft) 92,98 %
09.02.2017 09:32 -3,5 C 87 % 1026,5 hPa 0,0 l/m 24,1 km/h (4 Bft) O-NO 65 0 min 0,000 mm 0,0 UV-I 148 W/m -5,3 C -16,1 C 24,1 km/h (4 Bft) 100,00 %
09.02.2017 09:34 -3,5 C 88 % 1026,6 hPa 0,0 l/m 23,3 km/h (4 Bft) NO 47 0 min 0,000 mm 0,0 UV-I 147 W/m -5,2 C -15,7 C 27,4 km/h (4 Bft) 96,23 %
09.02.2017 09:36 -3,5 C 88 % 1026,5 hPa 0,0 l/m 21,8 km/h (4 Bft) O-NO 74 0 min 0,000 mm 0,0 UV-I 139 W/m -5,2 C -15,0 C 25,7 km/h (4 Bft) 97,56 %
09.02.2017 09:39 -3,5 C 87 % 1026,4 hPa 0,0 l/m 22,1 km/h (4 Bft) NO 55 0 min 0,000 mm 0,0 UV-I 138 W/m -5,3 C -15,2 C 30,6 km/h (5 Bft) 95,12 %
09.02.2017 09:40 -3,5 C 87 % 1026,4 hPa 0,0 l/m 21,6 km/h (4 Bft) O-NO 57 0 min 0,000 mm 0,0 UV-I 159 W/m -5,3 C -14,9 C 27,4 km/h (4 Bft) 100,00 %
09.02.2017 09:42 -3,4 C 88 % 1026,4 hPa 0,0 l/m 23,9 km/h (4 Bft) O-NO 69 0 min 0,000 mm 0,0 UV-I 153 W/m -5,1 C -15,9 C 32,2 km/h (5 Bft) 98,21 %
09.02.2017 09:44 -3,4 C 87 % 1026,4 hPa 0,0 l/m 22,1 km/h (4 Bft) O-NO 77 0 min 0,000 mm 0,0 UV-I 164 W/m -5,2 C -15,1 C 29,0 km/h (5 Bft) 94,74 %
09.02.2017 09:46 -3,4 C 87 % 1026,4 hPa 0,0 l/m 20,2 km/h (4 Bft) O-NO 63 0 min 0,000 mm 0,0 UV-I 170 W/m -5,2 C -14,1 C 27,4 km/h (4 Bft) 98,11 %
09.02.2017 09:48 -3,4 C 87 % 1026,4 hPa 0,0 l/m 20,3 km/h (4 Bft) O 97 0 min 0,000 mm 0,0 UV-I 170 W/m -5,2 C -14,2 C 27,4 km/h (4 Bft) 98,00 %
09.02.2017 09:50 -3,4 C 87 % 1026,4 hPa 0,0 l/m 19,7 km/h (3 Bft) NO 49 0 min 0,000 mm 0,0 UV-I 167 W/m -5,2 C -13,9 C 25,7 km/h (4 Bft) 100,00 %
09.02.2017 09:54 -3,3 C 87 % 1026,4 hPa 0,0 l/m 19,0 km/h (3 Bft) O-NO 74 0 min 0,000 mm 0,0 UV-I 181 W/m -5,1 C -13,4 C 20,9 km/h (4 Bft) 100,00 %
09.02.2017 09:56 -3,3 C 87 % 1026,4 hPa 0,0 l/m 20,9 km/h (4 Bft) O-NO 61 2 min 0,000 mm 0,0 UV-I 190 W/m -5,1 C -14,3 C 29,0 km/h (5 Bft) 100,00 %
09.02.2017 09:58 -3,3 C 87 % 1026,4 hPa 0,0 l/m 19,8 km/h (3 Bft) NO 52 0 min 0,000 mm 0,0 UV-I 177 W/m -5,1 C -13,8 C 25,7 km/h (4 Bft) 100,00 %
09.02.2017 10:00 -3,2 C 87 % 1026,4 hPa 0,0 l/m 20,5 km/h (4 Bft) NO 53 0 min 0,051 mm 0,0 UV-I 191 W/m -5,0 C -14,0 C 25,7 km/h (4 Bft) 100,00 %
09.02.2017 10:02 -3,2 C 87 % 1026,3 hPa 0,0 l/m 24,1 km/h (4 Bft) O-NO 66 0 min 0,000 mm 0,0 UV-I 181 W/m -5,0 C -15,7 C 32,2 km/h (5 Bft) 100,00 %
09.02.2017 10:04 -3,2 C 87 % 1026,3 hPa 0,0 l/m 23,3 km/h (4 Bft) NO 53 0 min 0,000 mm 0,0 UV-I 161 W/m -5,0 C -15,3 C 30,6 km/h (5 Bft) 97,87 %
09.02.2017 10:06 -3,2 C 87 % 1026,3 hPa 0,0 l/m 20,7 km/h (4 Bft) O-NO 73 0 min 0,000 mm 0,0 UV-I 185 W/m -5,0 C -14,1 C 29,0 km/h (5 Bft) 94,34 %
09.02.2017 10:08 -3,2 C 87 % 1026,3 hPa 0,0 l/m 14,4 km/h (3 Bft) O-NO 78 0 min 0,000 mm 0,0 UV-I 182 W/m -5,0 C -10,5 C 22,5 km/h (4 Bft) 94,87 %
09.02.2017 10:10 -3,1 C 87 % 1026,3 hPa 0,0 l/m 21,5 km/h (4 Bft) NO 51 0 min 0,000 mm 0,0 UV-I 187 W/m -4,9 C -14,4 C 25,7 km/h (4 Bft) 98,18 %
09.02.2017 10:12 -3,1 C 87 % 1026,3 hPa 0,0 l/m 20,3 km/h (4 Bft) O-NO 70 0 min 0,000 mm 0,0 UV-I 187 W/m -4,9 C -13,8 C 27,4 km/h (4 Bft) 92,86 %
09.02.2017 10:14 -3,1 C 87 % 1026,3 hPa 0,0 l/m 19,8 km/h (3 Bft) NO 54 0 min 0,000 mm 0,0 UV-I 180 W/m -4,9 C -13,5 C 27,4 km/h (4 Bft) 96,23 %
09.02.2017 10:16 -3,0 C 87 % 1026,3 hPa 0,0 l/m 18,5 km/h (3 Bft) O-NO 71 0 min 0,000 mm 0,0 UV-I 169 W/m -4,9 C -12,7 C 25,7 km/h (4 Bft) 93,62 %
09.02.2017 10:18 -2,9 C 87 % 1026,3 hPa 0,0 l/m 19,4 km/h (3 Bft) O-NO 58 0 min 0,000 mm 0,0 UV-I 174 W/m -4,8 C -13,1 C 29,0 km/h (5 Bft) 92,68 %
09.02.2017 10:20 -2,9 C 87 % 1026,3 hPa 0,0 l/m 19,1 km/h (3 Bft) NO 54 0 min 0,000 mm 0,0 UV-I 190 W/m -4,8 C -12,9 C 24,1 km/h (4 Bft) 98,11 %
09.02.2017 10:22 -2,9 C 87 % 1026,2 hPa 0,0 l/m 21,2 km/h (4 Bft) O 90 0 min 0,000 mm 0,0 UV-I 197 W/m -4,8 C -14,0 C 27,4 km/h (4 Bft) 97,56 %
09.02.2017 10:24 -2,9 C 87 % 1026,2 hPa 0,0 l/m 18,1 km/h (3 Bft) O-NO 61 0 min 0,000 mm 0,0 UV-I 186 W/m -4,8 C -12,4 C 27,4 km/h (4 Bft) 96,23 %
09.02.2017 10:26 -2,9 C 87 % 1026,2 hPa 0,0 l/m 21,4 km/h (4 Bft) NO 51 0 min 0,000 mm 0,2 UV-I 189 W/m -4,8 C -14,1 C 27,4 km/h (4 Bft) 97,37 %
09.02.2017 10:28 -2,9 C 87 % 1026,2 hPa 0,0 l/m 20,9 km/h (4 Bft) O-NO 63 0 min 0,000 mm 0,0 UV-I 182 W/m -4,8 C -13,8 C 27,4 km/h (4 Bft) 97,73 %
09.02.2017 10:30 -2,9 C 87 % 1026,2 hPa 0,0 l/m 21,0 km/h (4 Bft) NO 51 0 min 0,000 mm 0,0 UV-I 173 W/m -4,8 C -13,9 C 32,2 km/h (5 Bft) 98,11 %
09.02.2017 10:32 -2,9 C 87 % 1026,2 hPa 0,0 l/m 20,0 km/h (4 Bft) O 84 0 min 0,000 mm 0,1 UV-I 172 W/m -4,8 C -13,4 C 29,0 km/h (5 Bft) 92,45 %
09.02.2017 10:34 -2,9 C 87 % 1026,1 hPa 0,0 l/m 22,2 km/h (4 Bft) O-NO 65 0 min 0,000 mm 0,5 UV-I 183 W/m -4,8 C -14,4 C 30,6 km/h (5 Bft) 97,73 %
09.02.2017 10:36 -2,8 C 87 % 1026,1 hPa 0,0 l/m 20,2 km/h (4 Bft) O-NO 62 0 min 0,000 mm 0,5 UV-I 187 W/m -4,7 C -13,3 C 30,6 km/h (5 Bft) 97,56 %
09.02.2017 10:38 -2,8 C 87 % 1026,2 hPa 0,0 l/m 23,0 km/h (4 Bft) O-NO 59 0 min 0,000 mm 0,5 UV-I 181 W/m -4,7 C -14,7 C 32,2 km/h (5 Bft) 98,00 %
09.02.2017 10:40 -2,9 C 87 % 1026,1 hPa 0,0 l/m 22,4 km/h (4 Bft) O-NO 77 0 min 0,000 mm 0,5 UV-I 174 W/m -4,8 C -14,5 C 27,4 km/h (4 Bft) 98,11 %
09.02.2017 10:42 -2,8 C 87 % 1026,1 hPa 0,0 l/m 26,0 km/h (4 Bft) NO 44 0 min 0,000 mm 0,5 UV-I 170 W/m -4,7 C -15,9 C 33,8 km/h (5 Bft) 100,00 %
09.02.2017 10:44 -2,9 C 87 % 1026,1 hPa 0,0 l/m 27,3 km/h (4 Bft) NO 55 0 min 0,000 mm 0,5 UV-I 172 W/m -4,8 C -16,5 C 33,8 km/h (5 Bft) 95,45 %
09.02.2017 10:46 -2,9 C 87 % 1026,1 hPa 0,0 l/m 24,2 km/h (4 Bft) O 79 0 min 0,000 mm 0,5 UV-I 170 W/m -4,8 C -15,3 C 33,8 km/h (5 Bft) 95,74 %
09.02.2017 10:48 -2,9 C 87 % 1026,1 hPa 0,0 l/m 22,6 km/h (4 Bft) O-NO 66 0 min 0,000 mm 0,5 UV-I 170 W/m -4,8 C -14,6 C 29,0 km/h (5 Bft) 97,62 %
09.02.2017 10:50 -2,9 C 87 % 1026,1 hPa 0,0 l/m 21,0 km/h (4 Bft) O-NO 71 0 min 0,000 mm 0,5 UV-I 192 W/m -4,8 C -13,9 C 30,6 km/h (5 Bft) 96,36 %
09.02.2017 10:52 -2,9 C 87 % 1026,1 hPa 0,0 l/m 25,8 km/h (4 Bft) O-NO 64 0 min 0,000 mm 0,5 UV-I 189 W/m -4,8 C -16,0 C 38,6 km/h (5 Bft) 96,00 %
09.02.2017 10:54 -2,9 C 87 % 1026,1 hPa 0,0 l/m 23,8 km/h (4 Bft) O-NO 61 0 min 0,000 mm 0,5 UV-I 191 W/m -4,8 C -15,1 C 30,6 km/h (5 Bft) 97,62 %
09.02.2017 10:56 -2,9 C 87 % 1026,1 hPa 0,0 l/m 21,4 km/h (4 Bft) O 90 0 min 0,000 mm 0,5 UV-I 183 W/m -4,8 C -14,1 C 30,6 km/h (5 Bft) 97,56 %
09.02.2017 10:58 -2,9 C 87 % 1026,2 hPa 0,0 l/m 24,4 km/h (4 Bft) O-NO 72 0 min 0,000 mm 0,5 UV-I 180 W/m -4,8 C -15,4 C 35,4 km/h (5 Bft) 97,78 %
09.02.2017 11:00 -2,9 C 87 % 1026,1 hPa 0,0 l/m 26,2 km/h (4 Bft) NO 47 0 min 0,076 mm 0,6 UV-I 204 W/m -4,8 C -16,1 C 35,4 km/h (5 Bft) 98,11 %
09.02.2017 11:02 -2,9 C 87 % 1026,1 hPa 0,0 l/m 24,0 km/h (4 Bft) O 86 0 min 0,000 mm 0,6 UV-I 206 W/m -4,8 C -15,2 C 32,2 km/h (5 Bft) 100,00 %
09.02.2017 11:04 -2,9 C 87 % 1026,1 hPa 0,0 l/m 26,0 km/h (4 Bft) O-NO 65 0 min 0,000 mm 0,6 UV-I 201 W/m -4,8 C -16,0 C 38,6 km/h (5 Bft) 100,00 %
09.02.2017 11:06 -2,9 C 87 % 1026,0 hPa 0,0 l/m 30,5 km/h (5 Bft) O-NO 77 0 min 0,000 mm 0,6 UV-I 191 W/m -4,8 C -17,6 C 40,2 km/h (6 Bft) 100,00 %
09.02.2017 11:08 -2,9 C 87 % 1026,0 hPa 0,0 l/m 28,2 km/h (4 Bft) NO 41 0 min 0,000 mm 0,6 UV-I 184 W/m -4,8 C -16,9 C 35,4 km/h (5 Bft) 100,00 %
09.02.2017 11:10 -2,9 C 87 % 1026,1 hPa 0,0 l/m 21,5 km/h (4 Bft) O 94 0 min 0,000 mm 0,5 UV-I 166 W/m -4,8 C -14,1 C 32,2 km/h (5 Bft) 100,00 %
09.02.2017 11:12 -2,9 C 88 % 1026,0 hPa 0,0 l/m 23,7 km/h (4 Bft) NO 53 0 min 0,000 mm 0,5 UV-I 160 W/m -4,6 C -15,1 C 30,6 km/h (5 Bft) 98,00 %
09.02.2017 11:16 -3,0 C 87 % 1026,0 hPa 0,0 l/m 28,0 km/h (4 Bft) O-NO 65 0 min 0,000 mm 0,5 UV-I 168 W/m -4,9 C -16,9 C 37,0 km/h (5 Bft) 98,81 %
09.02.2017 11:18 -3,1 C 87 % 1026,0 hPa 0,0 l/m 29,2 km/h (5 Bft) O-NO 65 0 min 0,000 mm 0,5 UV-I 166 W/m -4,9 C -17,5 C 37,0 km/h (5 Bft) 100,00 %
09.02.2017 11:20 -3,1 C 88 % 1026,0 hPa 0,0 l/m 29,5 km/h (5 Bft) O-NO 73 0 min 0,000 mm 0,5 UV-I 174 W/m -4,8 C -17,6 C 37,0 km/h (5 Bft) 100,00 %
09.02.2017 11:22 -3,1 C 87 % 1026,0 hPa 0,0 l/m 27,3 km/h (4 Bft) O-NO 57 0 min 0,000 mm 0,5 UV-I 171 W/m -4,9 C -16,8 C 33,8 km/h (5 Bft) 97,56 %
09.02.2017 11:24 -3,1 C 88 % 1025,9 hPa 0,0 l/m 23,9 km/h (4 Bft) O-NO 60 0 min 0,000 mm 0,5 UV-I 164 W/m -4,8 C -15,5 C 32,2 km/h (5 Bft) 100,00 %
09.02.2017 11:26 -3,1 C 88 % 1025,9 hPa 0,0 l/m 27,6 km/h (4 Bft) O-NO 63 0 min 0,000 mm 0,5 UV-I 153 W/m -4,8 C -16,9 C 35,4 km/h (5 Bft) 100,00 %
09.02.2017 11:28 -3,1 C 88 % 1026,0 hPa 0,0 l/m 26,2 km/h (4 Bft) NO 53 0 min 0,000 mm 0,5 UV-I 164 W/m -4,8 C -16,4 C 37,0 km/h (5 Bft) 100,00 %
09.02.2017 11:30 -3,1 C 88 % 1025,9 hPa 0,0 l/m 29,9 km/h (5 Bft) NO 53 0 min 0,000 mm 0,5 UV-I 169 W/m -4,8 C -17,7 C 43,5 km/h (6 Bft) 100,00 %
09.02.2017 11:33 -3,2 C 88 % 1025,9 hPa 0,0 l/m 32,5 km/h (5 Bft) O-NO 60 0 min 0,000 mm 0,5 UV-I 164 W/m -4,9 C -18,7 C 41,8 km/h (6 Bft) 98,57 %
09.02.2017 11:34 -3,2 C 88 % 1025,9 hPa 0,0 l/m 28,9 km/h (5 Bft) O-NO 58 0 min 0,000 mm 0,5 UV-I 168 W/m -4,9 C -17,5 C 38,6 km/h (5 Bft) 100,00 %
09.02.2017 11:36 -3,2 C 88 % 1025,8 hPa 0,0 l/m 31,2 km/h (5 Bft) NO 39 0 min 0,000 mm 0,5 UV-I 168 W/m -4,9 C -18,3 C 41,8 km/h (6 Bft) 100,00 %
09.02.2017 11:38 -3,2 C 88 % 1025,9 hPa 0,0 l/m 30,9 km/h (5 Bft) O-NO 65 0 min 0,000 mm 0,5 UV-I 163 W/m -4,9 C -18,2 C 43,5 km/h (6 Bft) 96,43 %
09.02.2017 11:40 -3,2 C 88 % 1025,8 hPa 0,0 l/m 26,5 km/h (4 Bft) O-NO 57 0 min 0,000 mm 0,5 UV-I 161 W/m -4,9 C -16,7 C 33,8 km/h (5 Bft) 100,00 %
09.02.2017 11:42 -3,2 C 88 % 1025,8 hPa 0,0 l/m 25,5 km/h (4 Bft) O-NO 74 0 min 0,000 mm 0,5 UV-I 164 W/m -4,9 C -16,3 C 35,4 km/h (5 Bft) 100,00 %
09.02.2017 11:44 -3,2 C 88 % 1025,8 hPa 0,0 l/m 22,3 km/h (4 Bft) NO 56 0 min 0,000 mm 0,5 UV-I 167 W/m -4,9 C -14,9 C 33,8 km/h (5 Bft) 97,73 %
09.02.2017 11:46 -3,2 C 88 % 1025,8 hPa 0,0 l/m 25,0 km/h (4 Bft) O-NO 61 0 min 0,000 mm 0,5 UV-I 162 W/m -4,9 C -16,1 C 35,4 km/h (5 Bft) 98,21 %
09.02.2017 11:48 -3,2 C 88 % 1025,8 hPa 0,0 l/m 26,4 km/h (4 Bft) O-NO 66 0 min 0,000 mm 0,5 UV-I 173 W/m -4,9 C -16,6 C 35,4 km/h (5 Bft) 100,00 %
09.02.2017 11:50 -3,3 C 88 % 1025,7 hPa 0,0 l/m 32,1 km/h (5 Bft) NO 50 0 min 0,000 mm 0,5 UV-I 170 W/m -5,0 C -18,7 C 40,2 km/h (6 Bft) 100,00 %
09.02.2017 11:52 -3,3 C 88 % 1025,8 hPa 0,0 l/m 30,8 km/h (5 Bft) O 79 0 min 0,000 mm 0,5 UV-I 176 W/m -5,0 C -18,3 C 37,0 km/h (5 Bft) 98,00 %
09.02.2017 11:54 -3,3 C 88 % 1025,7 hPa 0,0 l/m 27,6 km/h (4 Bft) O-NO 77 0 min 0,000 mm 0,6 UV-I 202 W/m -5,0 C -17,2 C 37,0 km/h (5 Bft) 100,00 %
09.02.2017 11:56 -3,4 C 88 % 1025,7 hPa 0,0 l/m 28,4 km/h (4 Bft) O-NO 57 0 min 0,000 mm 0,6 UV-I 191 W/m -5,1 C -17,6 C 40,2 km/h (6 Bft) 98,00 %
09.02.2017 11:58 -3,3 C 88 % 1025,7 hPa 0,0 l/m 28,5 km/h (4 Bft) O-NO 64 0 min 0,000 mm 0,6 UV-I 185 W/m -5,0 C -17,5 C 41,8 km/h (6 Bft) 93,33 %
09.02.2017 12:00 -3,4 C 88 % 1025,6 hPa 0,0 l/m 26,4 km/h (4 Bft) O-NO 74 0 min 0,076 mm 0,6 UV-I 195 W/m -5,1 C -16,9 C 33,8 km/h (5 Bft) 98,18 %
09.02.2017 12:02 -3,3 C 88 % 1025,6 hPa 0,0 l/m 27,3 km/h (4 Bft) O-NO 74 0 min 0,000 mm 0,6 UV-I 185 W/m -5,0 C -17,1 C 38,6 km/h (5 Bft) 97,62 %
09.02.2017 12:04 -3,3 C 88 % 1025,5 hPa 0,0 l/m 26,2 km/h (4 Bft) O-NO 61 0 min 0,000 mm 0,6 UV-I 180 W/m -5,0 C -16,7 C 38,6 km/h (5 Bft) 96,00 %
09.02.2017 12:06 -3,3 C 88 % 1025,5 hPa 0,0 l/m 22,2 km/h (4 Bft) O-NO 62 0 min 0,000 mm 0,6 UV-I 192 W/m -5,0 C -15,0 C 32,2 km/h (5 Bft) 97,37 %
09.02.2017 12:08 -3,3 C 88 % 1025,5 hPa 0,0 l/m 25,1 km/h (4 Bft) O-NO 64 0 min 0,000 mm 0,6 UV-I 216 W/m -5,0 C -16,2 C 35,4 km/h (5 Bft) 92,45 %
09.02.2017 12:10 -3,2 C 88 % 1025,4 hPa 0,0 l/m 23,6 km/h (4 Bft) O 79 0 min 0,000 mm 0,7 UV-I 215 W/m -4,9 C -15,5 C 37,0 km/h (5 Bft) 95,74 %
09.02.2017 12:12 -3,2 C 88 % 1025,4 hPa 0,0 l/m 27,3 km/h (4 Bft) O 82 0 min 0,000 mm 0,7 UV-I 207 W/m -4,9 C -17,0 C 33,8 km/h (5 Bft) 95,12 %
09.02.2017 12:14 -3,2 C 89 % 1025,4 hPa 0,0 l/m 22,3 km/h (4 Bft) O-NO 65 0 min 0,000 mm 0,7 UV-I 203 W/m -4,7 C -14,9 C 32,2 km/h (5 Bft) 96,00 %
09.02.2017 12:16 -3,2 C 88 % 1025,4 hPa 0,0 l/m 24,1 km/h (4 Bft) O-NO 71 0 min 0,000 mm 0,7 UV-I 202 W/m -4,9 C -15,7 C 30,6 km/h (5 Bft) 96,23 %
09.02.2017 12:18 -3,2 C 88 % 1025,3 hPa 0,0 l/m 21,3 km/h (4 Bft) NO 51 0 min 0,000 mm 0,7 UV-I 216 W/m -4,9 C -14,4 C 30,6 km/h (5 Bft) 92,31 %
09.02.2017 12:20 -3,1 C 89 % 1025,4 hPa 0,0 l/m 17,5 km/h (3 Bft) O-NO 57 0 min 0,000 mm 0,7 UV-I 216 W/m -4,6 C -12,3 C 27,4 km/h (4 Bft) 95,59 %
09.02.2017 12:22 -3,0 C 89 % 1025,3 hPa 0,0 l/m 21,9 km/h (4 Bft) O 82 0 min 0,000 mm 0,7 UV-I 248 W/m -4,6 C -14,4 C 33,8 km/h (5 Bft) 95,45 %
09.02.2017 12:24 -3,0 C 88 % 1025,3 hPa 0,0 l/m 26,5 km/h (4 Bft) O-NO 64 0 min 0,000 mm 0,7 UV-I 248 W/m -4,7 C -16,4 C 38,6 km/h (5 Bft) 97,56 %
09.02.2017 12:26 -3,0 C 88 % 1025,3 hPa 0,0 l/m 21,3 km/h (4 Bft) O-NO 72 0 min 0,000 mm 0,7 UV-I 234 W/m -4,7 C -14,1 C 32,2 km/h (5 Bft) 96,43 %
09.02.2017 12:28 -3,1 C 88 % 1025,3 hPa 0,0 l/m 26,7 km/h (4 Bft) O-NO 65 0 min 0,000 mm 0,7 UV-I 219 W/m -4,8 C -16,6 C 30,6 km/h (5 Bft) 95,45 %
09.02.2017 12:30 -3,1 C 88 % 1025,3 hPa 0,0 l/m 26,5 km/h (4 Bft) O 96 0 min 0,000 mm 0,7 UV-I 236 W/m -4,8 C -16,5 C 43,5 km/h (6 Bft) 97,73 %
09.02.2017 12:32 -3,1 C 88 % 1025,3 hPa 0,0 l/m 24,7 km/h (4 Bft) O-NO 76 0 min 0,000 mm 0,7 UV-I 221 W/m -4,8 C -15,8 C 35,4 km/h (5 Bft) 97,73 %
09.02.2017 12:34 -3,1 C 88 % 1025,2 hPa 0,0 l/m 25,2 km/h (4 Bft) O-NO 65 0 min 0,000 mm 0,7 UV-I 237 W/m -4,8 C -16,0 C 38,6 km/h (5 Bft) 96,23 %
09.02.2017 12:36 -3,0 C 88 % 1025,2 hPa 0,0 l/m 25,3 km/h (4 Bft) O 90 2 min 0,000 mm 0,7 UV-I 274 W/m -4,7 C -15,9 C 41,8 km/h (6 Bft) 95,74 %
09.02.2017 12:38 -3,0 C 88 % 1025,3 hPa 0,0 l/m 26,9 km/h (4 Bft) O 98 0 min 0,000 mm 0,7 UV-I 251 W/m -4,7 C -16,5 C 33,8 km/h (5 Bft) 97,62 %
09.02.2017 12:40 -2,9 C 88 % 1025,2 hPa 0,0 l/m 22,7 km/h (4 Bft) O-NO 77 0 min 0,000 mm 0,7 UV-I 218 W/m -4,6 C -14,7 C 32,2 km/h (5 Bft) 100,00 %
09.02.2017 12:42 -2,9 C 88 % 1025,2 hPa 0,0 l/m 20,0 km/h (4 Bft) O-NO 70 0 min 0,000 mm 0,7 UV-I 205 W/m -4,6 C -13,4 C 29,0 km/h (5 Bft) 97,73 %
09.02.2017 12:44 -2,9 C 88 % 1025,1 hPa 0,0 l/m 20,3 km/h (4 Bft) NO 48 0 min 0,000 mm 0,7 UV-I 192 W/m -4,6 C -13,5 C 29,0 km/h (5 Bft) 100,00 %
09.02.2017 12:46 -2,9 C 88 % 1025,2 hPa 0,0 l/m 20,0 km/h (4 Bft) O 98 0 min 0,000 mm 0,7 UV-I 200 W/m -4,6 C -13,4 C 30,6 km/h (5 Bft) 100,00 %
09.02.2017 12:48 -2,9 C 88 % 1025,1 hPa 0,0 l/m 21,9 km/h (4 Bft) O 81 0 min 0,000 mm 0,7 UV-I 228 W/m -4,6 C -14,3 C 35,4 km/h (5 Bft) 100,00 %
09.02.2017 12:50 -2,8 C 88 % 1025,1 hPa 0,0 l/m 22,1 km/h (4 Bft) O-NO 74 0 min 0,000 mm 0,7 UV-I 221 W/m -4,5 C -14,3 C 32,2 km/h (5 Bft) 100,00 %
09.02.2017 12:52 -2,8 C 88 % 1025,0 hPa 0,0 l/m 26,2 km/h (4 Bft) NO 43 0 min 0,000 mm 0,7 UV-I 221 W/m -4,5 C -16,0 C 33,8 km/h (5 Bft) 98,11 %
09.02.2017 12:54 -2,8 C 88 % 1025,0 hPa 0,0 l/m 26,3 km/h (4 Bft) NO 51 0 min 0,000 mm 0,7 UV-I 204 W/m -4,5 C -16,0 C 37,0 km/h (5 Bft) 100,00 %
09.02.2017 12:56 -2,9 C 88 % 1025,0 hPa 0,0 l/m 23,4 km/h (4 Bft) O-NO 69 0 min 0,000 mm 0,8 UV-I 231 W/m -4,6 C -15,0 C 30,6 km/h (5 Bft) 94,74 %
09.02.2017 12:58 -2,9 C 88 % 1025,0 hPa 0,0 l/m 24,0 km/h (4 Bft) O-NO 68 0 min 0,000 mm 0,7 UV-I 214 W/m -4,6 C -15,2 C 30,6 km/h (5 Bft) 97,87 %
09.02.2017 13:00 -2,8 C 88 % 1025,0 hPa 0,0 l/m 20,7 km/h (4 Bft) O 85 0 min 0,076 mm 0,7 UV-I 211 W/m -4,5 C -13,6 C 29,0 km/h (5 Bft) 100,00 %
09.02.2017 13:02 -2,8 C 89 % 1024,9 hPa 0,0 l/m 20,8 km/h (4 Bft) O 92 0 min 0,000 mm 0,7 UV-I 220 W/m -4,4 C -13,6 C 27,4 km/h (4 Bft) 100,00 %
09.02.2017 13:04 -2,8 C 88 % 1024,9 hPa 0,0 l/m 20,2 km/h (4 Bft) O-NO 63 0 min 0,000 mm 0,8 UV-I 236 W/m -4,5 C -13,3 C 27,4 km/h (4 Bft) 94,74 %
09.02.2017 13:06 -2,8 C 88 % 1024,9 hPa 0,0 l/m 16,2 km/h (3 Bft) O-NO 60 0 min 0,000 mm 0,7 UV-I 236 W/m -4,5 C -11,1 C 25,7 km/h (4 Bft) 100,00 %
09.02.2017 13:08 -2,7 C 88 % 1024,8 hPa 0,0 l/m 19,8 km/h (3 Bft) O 84 0 min 0,000 mm 0,8 UV-I 241 W/m -4,4 C -13,0 C 25,7 km/h (4 Bft) 100,00 %
09.02.2017 13:10 -2,7 C 88 % 1024,8 hPa 0,0 l/m 18,7 km/h (3 Bft) O-NO 58 0 min 0,000 mm 0,7 UV-I 212 W/m -4,4 C -12,4 C 25,7 km/h (4 Bft) 100,00 %
09.02.2017 13:12 -2,7 C 88 % 1024,8 hPa 0,0 l/m 19,5 km/h (3 Bft) O 87 0 min 0,000 mm 0,7 UV-I 193 W/m -4,4 C -12,9 C 25,7 km/h (4 Bft) 100,00 %
09.02.2017 13:14 -2,7 C 88 % 1024,8 hPa 0,0 l/m 17,3 km/h (3 Bft) O-NO 62 0 min 0,000 mm 0,7 UV-I 181 W/m -4,4 C -11,7 C 27,4 km/h (4 Bft) 98,11 %
09.02.2017 13:16 -2,7 C 88 % 1024,8 hPa 0,0 l/m 19,8 km/h (3 Bft) O-NO 76 0 min 0,000 mm 0,7 UV-I 183 W/m -4,4 C -13,0 C 32,2 km/h (5 Bft) 100,00 %
09.02.2017 13:18 -2,7 C 88 % 1024,7 hPa 0,0 l/m 15,0 km/h (3 Bft) NO 51 0 min 0,000 mm 0,7 UV-I 198 W/m -4,4 C -10,3 C 22,5 km/h (4 Bft) 100,00 %
09.02.2017 13:20 -2,6 C 88 % 1024,8 hPa 0,0 l/m 17,8 km/h (3 Bft) O 89 0 min 0,000 mm 0,7 UV-I 209 W/m -4,3 C -11,8 C 25,7 km/h (4 Bft) 96,23 %
09.02.2017 13:22 -2,6 C 88 % 1024,7 hPa 0,0 l/m 15,5 km/h (3 Bft) NO 49 0 min 0,000 mm 0,7 UV-I 207 W/m -4,3 C -10,5 C 22,5 km/h (4 Bft) 100,00 %
09.02.2017 13:24 -2,6 C 88 % 1024,7 hPa 0,0 l/m 18,2 km/h (3 Bft) O-NO 66 0 min 0,000 mm 0,7 UV-I 184 W/m -4,3 C -12,0 C 27,4 km/h (4 Bft) 100,00 %
09.02.2017 13:26 -2,5 C 88 % 1024,7 hPa 0,0 l/m 18,2 km/h (3 Bft) O 80 0 min 0,000 mm 0,7 UV-I 170 W/m -4,2 C -11,9 C 24,1 km/h (4 Bft) 100,00 %
09.02.2017 13:28 -2,5 C 88 % 1024,7 hPa 0,0 l/m 14,4 km/h (3 Bft) O-NO 61 0 min 0,000 mm 0,7 UV-I 210 W/m -4,2 C -9,6 C 22,5 km/h (4 Bft) 100,00 %
09.02.2017 13:30 -2,4 C 88 % 1024,6 hPa 0,0 l/m 17,6 km/h (3 Bft) NO 51 0 min 0,000 mm 0,7 UV-I 200 W/m -4,1 C -11,5 C 24,1 km/h (4 Bft) 100,00 %
09.02.2017 13:32 -2,4 C 88 % 1024,6 hPa 0,0 l/m 15,6 km/h (3 Bft) O-NO 59 0 min 0,000 mm 0,7 UV-I 232 W/m -4,1 C -10,3 C 22,5 km/h (4 Bft) 100,00 %
09.02.2017 13:34 -2,4 C 88 % 1024,6 hPa 0,0 l/m 18,0 km/h (3 Bft) O 91 0 min 0,000 mm 0,7 UV-I 214 W/m -4,1 C -11,7 C 25,7 km/h (4 Bft) 100,00 %
09.02.2017 13:36 -2,4 C 88 % 1024,5 hPa 0,0 l/m 21,5 km/h (4 Bft) O-NO 67 0 min 0,000 mm 0,7 UV-I 200 W/m -4,1 C -13,5 C 29,0 km/h (5 Bft) 100,00 %
09.02.2017 13:38 -2,4 C 88 % 1024,5 hPa 0,0 l/m 19,7 km/h (3 Bft) O 87 0 min 0,000 mm 0,7 UV-I 203 W/m -4,1 C -12,6 C 27,4 km/h (4 Bft) 97,87 %
09.02.2017 13:40 -2,4 C 88 % 1024,5 hPa 0,0 l/m 16,3 km/h (3 Bft) O-NO 59 0 min 0,000 mm 0,7 UV-I 206 W/m -4,1 C -10,7 C 24,1 km/h (4 Bft) 100,00 %
09.02.2017 13:42 -2,4 C 88 % 1024,3 hPa 0,0 l/m 17,5 km/h (3 Bft) O-NO 69 0 min 0,000 mm 0,7 UV-I 225 W/m -4,1 C -11,4 C 25,7 km/h (4 Bft) 100,00 %
09.02.2017 13:44 -2,4 C 88 % 1024,3 hPa 0,0 l/m 17,2 km/h (3 Bft) O-NO 67 0 min 0,000 mm 0,7 UV-I 228 W/m -4,1 C -11,2 C 27,4 km/h (4 Bft) 100,00 %
09.02.2017 13:46 -2,4 C 88 % 1024,4 hPa 0,0 l/m 20,3 km/h (4 Bft) NO 53 0 min 0,000 mm 0,7 UV-I 194 W/m -4,1 C -12,9 C 25,7 km/h (4 Bft) 100,00 %
09.02.2017 13:48 -2,4 C 88 % 1024,4 hPa 0,0 l/m 20,0 km/h (4 Bft) O 92 0 min 0,000 mm 0,7 UV-I 211 W/m -4,1 C -12,7 C 30,6 km/h (5 Bft) 100,00 %
09.02.2017 13:50 -2,4 C 88 % 1024,4 hPa 0,0 l/m 21,4 km/h (4 Bft) O-NO 71 0 min 0,000 mm 0,6 UV-I 182 W/m -4,1 C -13,4 C 33,8 km/h (5 Bft) 98,31 %
09.02.2017 13:52 -2,4 C 88 % 1024,3 hPa 0,0 l/m 19,3 km/h (3 Bft) O 81 0 min 0,000 mm 0,6 UV-I 170 W/m -4,1 C -12,4 C 27,4 km/h (4 Bft) 95,74 %
09.02.2017 13:54 -2,4 C 88 % 1024,4 hPa 0,0 l/m 17,9 km/h (3 Bft) O 88 0 min 0,000 mm 0,6 UV-I 168 W/m -4,1 C -11,6 C 25,7 km/h (4 Bft) 97,22 %
09.02.2017 13:56 -2,4 C 88 % 1024,3 hPa 0,0 l/m 17,2 km/h (3 Bft) O-NO 59 0 min 0,000 mm 0,6 UV-I 188 W/m -4,1 C -11,2 C 24,1 km/h (4 Bft) 98,00 %
09.02.2017 13:58 -2,4 C 88 % 1024,3 hPa 0,0 l/m 16,0 km/h (3 Bft) O 81 0 min 0,000 mm 0,6 UV-I 192 W/m -4,1 C -10,5 C 22,5 km/h (4 Bft) 96,00 %
09.02.2017 14:00 -2,4 C 88 % 1024,2 hPa 0,0 l/m 22,0 km/h (4 Bft) O-NO 63 0 min 0,077 mm 0,6 UV-I 212 W/m -4,1 C -13,7 C 37,0 km/h (5 Bft) 90,38 %
09.02.2017 14:02 -2,4 C 88 % 1024,2 hPa 0,0 l/m 23,0 km/h (4 Bft) O-NO 61 2 min 0,000 mm 0,7 UV-I 222 W/m -4,1 C -14,1 C 33,8 km/h (5 Bft) 95,24 %
09.02.2017 14:04 -2,4 C 88 % 1024,2 hPa 0,0 l/m 16,6 km/h (3 Bft) NO 56 0 min 0,000 mm 0,6 UV-I 196 W/m -4,1 C -10,9 C 24,1 km/h (4 Bft) 96,00 %
09.02.2017 14:06 -2,4 C 88 % 1024,2 hPa 0,0 l/m 20,6 km/h (4 Bft) O 91 0 min 0,000 mm 0,6 UV-I 164 W/m -4,1 C -13,0 C 25,7 km/h (4 Bft) 94,74 %
09.02.2017 14:08 -2,4 C 88 % 1024,2 hPa 0,0 l/m 17,7 km/h (3 Bft) O-NO 60 0 min 0,000 mm 0,6 UV-I 194 W/m -4,1 C -11,5 C 27,4 km/h (4 Bft) 95,74 %
09.02.2017 14:10 -2,4 C 88 % 1024,1 hPa 0,0 l/m 21,4 km/h (4 Bft) O 80 2 min 0,000 mm 0,6 UV-I 222 W/m -4,1 C -13,4 C 25,7 km/h (4 Bft) 94,64 %
09.02.2017 14:12 -2,4 C 88 % 1024,1 hPa 0,0 l/m 22,7 km/h (4 Bft) O 80 0 min 0,000 mm 0,5 UV-I 176 W/m -4,1 C -14,0 C 29,0 km/h (5 Bft) 94,74 %
09.02.2017 14:14 -2,4 C 88 % 1024,1 hPa 0,0 l/m 19,6 km/h (3 Bft) O 82 0 min 0,000 mm 0,6 UV-I 202 W/m -4,1 C -12,5 C 27,4 km/h (4 Bft) 96,00 %
09.02.2017 14:16 -2,3 C 88 % 1024,1 hPa 0,0 l/m 19,5 km/h (3 Bft) O-NO 66 2 min 0,000 mm 0,6 UV-I 224 W/m -4,0 C -12,4 C 25,7 km/h (4 Bft) 96,23 %
09.02.2017 14:18 -2,3 C 88 % 1024,1 hPa 0,0 l/m 21,6 km/h (4 Bft) O-NO 72 0 min 0,000 mm 0,5 UV-I 170 W/m -4,0 C -13,4 C 32,2 km/h (5 Bft) 94,74 %
09.02.2017 14:20 -2,3 C 88 % 1024,1 hPa 0,0 l/m 23,7 km/h (4 Bft) O-NO 75 0 min 0,000 mm 0,5 UV-I 162 W/m -4,0 C -14,3 C 32,2 km/h (5 Bft) 94,64 %
09.02.2017 14:22 -2,3 C 88 % 1024,1 hPa 0,0 l/m 19,6 km/h (3 Bft) O-NO 64 0 min 0,000 mm 0,5 UV-I 173 W/m -4,0 C -12,4 C 24,1 km/h (4 Bft) 97,37 %
09.02.2017 14:24 -2,3 C 88 % 1024,0 hPa 0,0 l/m 20,2 km/h (4 Bft) NO 54 0 min 0,000 mm 0,5 UV-I 179 W/m -4,0 C -12,7 C 29,0 km/h (5 Bft) 96,00 %
09.02.2017 14:26 -2,3 C 88 % 1024,0 hPa 0,0 l/m 19,2 km/h (3 Bft) O 80 0 min 0,000 mm 0,5 UV-I 187 W/m -4,0 C -12,2 C 30,6 km/h (5 Bft) 96,00 %
09.02.2017 14:28 -2,3 C 88 % 1024,0 hPa 0,0 l/m 21,6 km/h (4 Bft) NO 36 0 min 0,000 mm 0,3 UV-I 164 W/m -4,0 C -13,4 C 30,6 km/h (5 Bft) 97,87 %
09.02.2017 14:30 -2,3 C 88 % 1024,0 hPa 0,0 l/m 17,2 km/h (3 Bft) O 101 0 min 0,000 mm 0,1 UV-I 158 W/m -4,0 C -11,1 C 25,7 km/h (4 Bft) 97,56 %
09.02.2017 14:32 -2,3 C 88 % 1024,1 hPa 0,0 l/m 25,1 km/h (4 Bft) NO 53 0 min 0,000 mm 0,5 UV-I 180 W/m -4,0 C -14,9 C 37,0 km/h (5 Bft) 96,23 %
09.02.2017 14:34 -2,3 C 88 % 1024,1 hPa 0,0 l/m 24,6 km/h (4 Bft) O-NO 57 0 min 0,000 mm 0,5 UV-I 195 W/m -4,0 C -14,7 C 37,0 km/h (5 Bft) 100,00 %
09.02.2017 14:36 -2,3 C 88 % 1024,0 hPa 0,0 l/m 24,1 km/h (4 Bft) O-NO 63 2 min 0,000 mm 0,5 UV-I 194 W/m -4,0 C -14,5 C 32,2 km/h (5 Bft) 98,11 %
09.02.2017 14:38 -2,3 C 88 % 1024,0 hPa 0,0 l/m 23,8 km/h (4 Bft) O-NO 69 2 min 0,000 mm 0,5 UV-I 201 W/m -4,0 C -14,3 C 30,6 km/h (5 Bft) 97,87 %
09.02.2017 14:40 -2,3 C 88 % 1024,0 hPa 0,0 l/m 17,6 km/h (3 Bft) O-NO 63 2 min 0,000 mm 0,5 UV-I 197 W/m -4,0 C -11,3 C 24,1 km/h (4 Bft) 97,62 %
09.02.2017 14:42 -2,3 C 88 % 1023,9 hPa 0,0 l/m 17,5 km/h (3 Bft) O-NO 59 0 min 0,000 mm 0,2 UV-I 182 W/m -4,0 C -11,3 C 25,7 km/h (4 Bft) 100,00 %
09.02.2017 14:44 -2,3 C 88 % 1024,0 hPa 0,0 l/m 20,8 km/h (4 Bft) O 90 0 min 0,000 mm 0,0 UV-I 147 W/m -4,0 C -13,0 C 27,4 km/h (4 Bft) 100,00 %
09.02.2017 14:46 -2,3 C 88 % 1023,9 hPa 0,0 l/m 26,3 km/h (4 Bft) NO 53 2 min 0,000 mm 0,0 UV-I 186 W/m -4,0 C -15,3 C 40,2 km/h (6 Bft) 100,00 %
09.02.2017 14:48 -2,3 C 88 % 1023,9 hPa 0,0 l/m 23,4 km/h (4 Bft) NO 50 2 min 0,000 mm 0,0 UV-I 190 W/m -4,0 C -14,2 C 30,6 km/h (5 Bft) 100,00 %
09.02.2017 14:50 -2,3 C 88 % 1023,9 hPa 0,0 l/m 23,2 km/h (4 Bft) O-NO 58 2 min 0,000 mm 0,0 UV-I 195 W/m -4,0 C -14,1 C 30,6 km/h (5 Bft) 100,00 %
09.02.2017 14:52 -2,2 C 88 % 1023,9 hPa 0,0 l/m 19,6 km/h (3 Bft) O-NO 75 0 min 0,000 mm 0,0 UV-I 165 W/m -3,9 C -12,3 C 25,7 km/h (4 Bft) 100,00 %
09.02.2017 14:54 -2,2 C 88 % 1023,8 hPa 0,0 l/m 23,6 km/h (4 Bft) O-NO 59 0 min 0,000 mm 0,0 UV-I 151 W/m -3,9 C -14,1 C 45,1 km/h (6 Bft) 100,00 %
09.02.2017 14:56 -2,2 C 88 % 1023,9 hPa 0,0 l/m 26,0 km/h (4 Bft) O-NO 76 0 min 0,000 mm 0,0 UV-I 158 W/m -3,9 C -15,1 C 35,4 km/h (5 Bft) 100,00 %
09.02.2017 14:58 -2,2 C 88 % 1023,9 hPa 0,0 l/m 25,5 km/h (4 Bft) SO 134 2 min 0,000 mm 0,0 UV-I 189 W/m -3,9 C -14,9 C 37,0 km/h (5 Bft) 100,00 %
09.02.2017 15:00 -2,2 C 88 % 1023,9 hPa 0,0 l/m 21,8 km/h (4 Bft) O-NO 64 2 min 0,076 mm 0,0 UV-I 172 W/m -3,9 C -13,3 C 33,8 km/h (5 Bft) 100,00 %
09.02.2017 15:02 -2,2 C 88 % 1023,8 hPa 0,0 l/m 24,5 km/h (4 Bft) NO 54 2 min 0,000 mm 0,0 UV-I 185 W/m -3,9 C -14,5 C 37,0 km/h (5 Bft) 100,00 %
09.02.2017 15:04 -2,2 C 88 % 1023,8 hPa 0,0 l/m 27,1 km/h (4 Bft) O-NO 61 2 min 0,000 mm 0,0 UV-I 172 W/m -3,9 C -15,5 C 35,4 km/h (5 Bft) 98,11 %
09.02.2017 15:06 -2,2 C 88 % 1023,8 hPa 0,0 l/m 23,6 km/h (4 Bft) NO 54 0 min 0,000 mm 0,0 UV-I 141 W/m -3,9 C -14,1 C 32,2 km/h (5 Bft) 100,00 %
09.02.2017 15:08 -2,2 C 88 % 1023,8 hPa 0,0 l/m 19,5 km/h (3 Bft) O-NO 73 0 min 0,000 mm 0,0 UV-I 152 W/m -3,9 C -12,2 C 25,7 km/h (4 Bft) 98,21 %
09.02.2017 15:10 -2,2 C 88 % 1023,8 hPa 0,0 l/m 24,5 km/h (4 Bft) O-NO 64 0 min 0,000 mm 0,0 UV-I 146 W/m -3,9 C -14,5 C 32,2 km/h (5 Bft) 100,00 %
09.02.2017 15:12 -2,2 C 88 % 1023,8 hPa 0,0 l/m 23,9 km/h (4 Bft) O-NO 78 0 min 0,000 mm 0,0 UV-I 143 W/m -3,9 C -14,3 C 37,0 km/h (5 Bft) 100,00 %
09.02.2017 15:14 -2,2 C 88 % 1023,8 hPa 0,0 l/m 29,8 km/h (5 Bft) O-NO 66 2 min 0,000 mm 0,0 UV-I 181 W/m -3,9 C -16,4 C 40,2 km/h (6 Bft) 100,00 %
09.02.2017 15:16 -2,1 C 88 % 1023,8 hPa 0,0 l/m 26,7 km/h (4 Bft) O-NO 77 2 min 0,000 mm 0,0 UV-I 201 W/m -3,8 C -15,2 C 35,4 km/h (5 Bft) 98,18 %
09.02.2017 15:18 -2,1 C 88 % 1023,8 hPa 0,0 l/m 24,5 km/h (4 Bft) O-NO 68 2 min 0,000 mm 0,0 UV-I 171 W/m -3,8 C -14,4 C 30,6 km/h (5 Bft) 100,00 %
09.02.2017 15:20 -2,1 C 88 % 1023,7 hPa 0,0 l/m 27,2 km/h (4 Bft) O 85 2 min 0,000 mm 0,0 UV-I 170 W/m -3,8 C -15,4 C 38,6 km/h (5 Bft) 100,00 %
09.02.2017 15:22 -2,1 C 88 % 1023,7 hPa 0,0 l/m 23,9 km/h (4 Bft) O 101 2 min 0,000 mm 0,0 UV-I 160 W/m -3,8 C -14,1 C 30,6 km/h (5 Bft) 100,00 %
09.02.2017 15:24 -2,1 C 88 % 1023,7 hPa 0,0 l/m 23,4 km/h (4 Bft) O 96 2 min 0,000 mm 0,0 UV-I 149 W/m -3,8 C -13,9 C 33,8 km/h (5 Bft) 100,00 %
09.02.2017 15:26 -2,0 C 88 % 1023,7 hPa 0,0 l/m 22,8 km/h (4 Bft) O 95 0 min 0,000 mm 0,0 UV-I 131 W/m -3,7 C -13,5 C 27,4 km/h (4 Bft) 97,73 %
09.02.2017 15:28 -2,0 C 88 % 1023,7 hPa 0,0 l/m 18,1 km/h (3 Bft) O-NO 76 2 min 0,000 mm 0,0 UV-I 149 W/m -3,7 C -11,2 C 24,1 km/h (4 Bft) 100,00 %
09.02.2017 15:30 -2,0 C 88 % 1023,7 hPa 0,0 l/m 19,1 km/h (3 Bft) O 90 0 min 0,000 mm 0,0 UV-I 126 W/m -3,7 C -11,8 C 27,4 km/h (4 Bft) 100,00 %
09.02.2017 15:32 -2,0 C 88 % 1023,7 hPa 0,0 l/m 21,2 km/h (4 Bft) O-NO 58 0 min 0,000 mm 0,0 UV-I 114 W/m -3,7 C -12,8 C 30,6 km/h (5 Bft) 100,00 %
09.02.2017 15:34 -2,0 C 88 % 1023,6 hPa 0,0 l/m 21,8 km/h (4 Bft) O 79 2 min 0,000 mm 0,0 UV-I 137 W/m -3,7 C -13,1 C 30,6 km/h (5 Bft) 97,37 %
09.02.2017 15:36 -2,0 C 88 % 1023,6 hPa 0,0 l/m 18,6 km/h (3 Bft) NO 36 0 min 0,000 mm 0,0 UV-I 123 W/m -3,7 C -11,5 C 32,2 km/h (5 Bft) 100,00 %
09.02.2017 15:38 -2,0 C 88 % 1023,7 hPa 0,0 l/m 21,3 km/h (4 Bft) O-NO 73 0 min 0,000 mm 0,0 UV-I 114 W/m -3,7 C -12,8 C 32,2 km/h (5 Bft) 100,00 %
09.02.2017 15:40 -2,0 C 88 % 1023,6 hPa 0,0 l/m 22,1 km/h (4 Bft) NO 44 2 min 0,000 mm 0,0 UV-I 136 W/m -3,7 C -13,2 C 33,8 km/h (5 Bft) 100,00 %
09.02.2017 15:42 -2,0 C 88 % 1023,6 hPa 0,0 l/m 20,1 km/h (4 Bft) O-NO 67 2 min 0,000 mm 0,0 UV-I 141 W/m -3,7 C -12,3 C 29,0 km/h (5 Bft) 100,00 %
09.02.2017 15:44 -1,9 C 88 % 1023,6 hPa 0,0 l/m 20,5 km/h (4 Bft) O-NO 63 0 min 0,000 mm 0,0 UV-I 106 W/m -3,6 C -12,3 C 27,4 km/h (4 Bft) 100,00 %
09.02.2017 15:46 -1,9 C 88 % 1023,6 hPa 0,0 l/m 22,8 km/h (4 Bft) O 80 0 min 0,000 mm 0,0 UV-I 104 W/m -3,6 C -13,4 C 30,6 km/h (5 Bft) 98,21 %
09.02.2017 15:48 -1,9 C 88 % 1023,5 hPa 0,0 l/m 17,4 km/h (3 Bft) NO 56 0 min 0,000 mm 0,0 UV-I 92 W/m -3,6 C -10,7 C 25,7 km/h (4 Bft) 100,00 %
09.02.2017 15:50 -1,9 C 88 % 1023,5 hPa 0,0 l/m 23,6 km/h (4 Bft) O-NO 71 0 min 0,000 mm 0,0 UV-I 90 W/m -3,6 C -13,7 C 33,8 km/h (5 Bft) 100,00 %
09.02.2017 15:52 -1,9 C 88 % 1023,5 hPa 0,0 l/m 23,7 km/h (4 Bft) NO 52 0 min 0,000 mm 0,0 UV-I 85 W/m -3,6 C -13,8 C 32,2 km/h (5 Bft) 97,87 %
09.02.2017 15:54 -1,9 C 88 % 1023,5 hPa 0,0 l/m 19,6 km/h (3 Bft) NO 49 0 min 0,000 mm 0,0 UV-I 99 W/m -3,6 C -11,9 C 24,1 km/h (4 Bft) 100,00 %
09.02.2017 15:56 -1,9 C 88 % 1023,5 hPa 0,0 l/m 21,5 km/h (4 Bft) NO 55 0 min 0,000 mm 0,0 UV-I 69 W/m -3,6 C -12,8 C 35,4 km/h (5 Bft) 97,73 %
09.02.2017 15:58 -1,9 C 88 % 1023,5 hPa 0,0 l/m 22,1 km/h (4 Bft) O 89 0 min 0,000 mm 0,0 UV-I 61 W/m -3,6 C -13,1 C 30,6 km/h (5 Bft) 95,45 %
09.02.2017 16:00 -1,9 C 88 % 1023,4 hPa 0,0 l/m 20,4 km/h (4 Bft) O 79 0 min 0,051 mm 0,0 UV-I 55 W/m -3,6 C -12,3 C 29,0 km/h (5 Bft) 98,31 %
09.02.2017 16:02 -1,9 C 88 % 1023,4 hPa 0,0 l/m 19,4 km/h (3 Bft) NO 56 0 min 0,000 mm 0,0 UV-I 51 W/m -3,6 C -11,8 C 30,6 km/h (5 Bft) 95,45 %
09.02.2017 16:04 -1,9 C 88 % 1023,4 hPa 0,0 l/m 21,5 km/h (4 Bft) O-NO 62 0 min 0,000 mm 0,0 UV-I 37 W/m -3,6 C -12,8 C 29,0 km/h (5 Bft) 94,00 %
09.02.2017 16:06 -1,9 C 88 % 1023,5 hPa 0,0 l/m 22,1 km/h (4 Bft) O-NO 57 0 min 0,000 mm 0,0 UV-I 34 W/m -3,6 C -13,1 C 27,4 km/h (4 Bft) 95,74 %
09.02.2017 16:08 -1,9 C 88 % 1023,5 hPa 0,0 l/m 18,7 km/h (3 Bft) NO 45 0 min 0,000 mm 0,0 UV-I 32 W/m -3,6 C -11,4 C 24,1 km/h (4 Bft) 94,00 %
09.02.2017 16:10 -1,9 C 89 % 1023,5 hPa 0,0 l/m 18,5 km/h (3 Bft) NO 49 0 min 0,000 mm 0,0 UV-I 27 W/m -3,5 C -11,3 C 24,1 km/h (4 Bft) 95,12 %
09.02.2017 16:12 -1,9 C 89 % 1023,4 hPa 0,0 l/m 15,1 km/h (3 Bft) O-NO 76 0 min 0,000 mm 0,0 UV-I 28 W/m -3,5 C -9,3 C 19,3 km/h (3 Bft) 95,45 %
09.02.2017 16:14 -1,9 C 89 % 1023,5 hPa 0,0 l/m 16,6 km/h (3 Bft) O-NO 67 0 min 0,000 mm 0,0 UV-I 29 W/m -3,5 C -10,3 C 20,9 km/h (4 Bft) 95,45 %
09.02.2017 16:16 -1,9 C 89 % 1023,5 hPa 0,0 l/m 17,9 km/h (3 Bft) O-NO 61 0 min 0,000 mm 0,0 UV-I 25 W/m -3,5 C -11,0 C 25,7 km/h (4 Bft) 90,57 %
09.02.2017 16:18 -1,9 C 89 % 1023,4 hPa 0,0 l/m 15,2 km/h (3 Bft) O-NO 58 0 min 0,000 mm 0,0 UV-I 25 W/m -3,5 C -9,4 C 19,3 km/h (3 Bft) 92,68 %
09.02.2017 16:20 -1,9 C 89 % 1023,4 hPa 0,0 l/m 18,0 km/h (3 Bft) NO 55 0 min 0,000 mm 0,0 UV-I 22 W/m -3,5 C -11,0 C 27,4 km/h (4 Bft) 94,64 %
09.02.2017 16:22 -1,9 C 89 % 1023,4 hPa 0,0 l/m 21,7 km/h (4 Bft) NO 47 0 min 0,000 mm 0,0 UV-I 20 W/m -3,5 C -12,9 C 32,2 km/h (5 Bft) 93,62 %
09.02.2017 16:24 -1,9 C 89 % 1023,4 hPa 0,0 l/m 20,8 km/h (4 Bft) NO 54 0 min 0,000 mm 0,0 UV-I 19 W/m -3,5 C -12,5 C 29,0 km/h (5 Bft) 94,74 %
09.02.2017 16:26 -1,9 C 88 % 1023,3 hPa 0,0 l/m 22,5 km/h (4 Bft) O-NO 72 0 min 0,000 mm 0,0 UV-I 18 W/m -3,6 C -13,3 C 30,6 km/h (5 Bft) 92,86 %
09.02.2017 16:28 -1,9 C 88 % 1023,3 hPa 0,0 l/m 21,1 km/h (4 Bft) O-NO 60 0 min 0,000 mm 0,0 UV-I 16 W/m -3,6 C -12,6 C 27,4 km/h (4 Bft) 97,37 %
09.02.2017 16:30 -1,9 C 88 % 1023,3 hPa 0,0 l/m 18,8 km/h (3 Bft) O-NO 60 0 min 0,000 mm 0,0 UV-I 13 W/m -3,6 C -11,5 C 25,7 km/h (4 Bft) 94,00 %
09.02.2017 16:32 -1,9 C 88 % 1023,3 hPa 0,0 l/m 14,0 km/h (3 Bft) NO 34 0 min 0,000 mm 0,0 UV-I 12 W/m -3,6 C -8,6 C 20,9 km/h (4 Bft) 100,00 %
09.02.2017 16:34 -1,9 C 89 % 1023,3 hPa 0,0 l/m 16,8 km/h (3 Bft) O-NO 64 0 min 0,000 mm 0,0 UV-I 12 W/m -3,5 C -10,4 C 24,1 km/h (4 Bft) 94,87 %
09.02.2017 16:36 -1,9 C 89 % 1023,4 hPa 0,0 l/m 16,6 km/h (3 Bft) NO 54 0 min 0,000 mm 0,0 UV-I 12 W/m -3,5 C -10,3 C 25,7 km/h (4 Bft) 97,87 %
09.02.2017 16:38 -1,8 C 88 % 1023,3 hPa 0,0 l/m 14,5 km/h (3 Bft) N-NO 26 0 min 0,000 mm 0,0 UV-I 12 W/m -3,5 C -8,8 C 22,5 km/h (4 Bft) 91,43 %
09.02.2017 16:40 -1,8 C 89 % 1023,2 hPa 0,0 l/m 15,4 km/h (3 Bft) N-NO 26 0 min 0,000 mm 0,0 UV-I 14 W/m -3,4 C -9,4 C 22,5 km/h (4 Bft) 98,51 %
09.02.2017 16:42 -1,8 C 89 % 1023,3 hPa 0,0 l/m 16,9 km/h (3 Bft) O-NO 58 0 min 0,000 mm 0,0 UV-I 12 W/m -3,4 C -10,3 C 22,5 km/h (4 Bft) 100,00 %
09.02.2017 16:44 -1,8 C 88 % 1023,2 hPa 0,0 l/m 18,8 km/h (3 Bft) NO 46 0 min 0,000 mm 0,0 UV-I 12 W/m -3,5 C -11,3 C 22,5 km/h (4 Bft) 97,14 %
09.02.2017 16:46 -1,8 C 88 % 1023,2 hPa 0,0 l/m 15,4 km/h (3 Bft) N-NO 33 0 min 0,000 mm 0,0 UV-I 12 W/m -3,5 C -9,4 C 20,9 km/h (4 Bft) 100,00 %
09.02.2017 16:48 -1,8 C 88 % 1023,3 hPa 0,0 l/m 13,8 km/h (3 Bft) NO 40 0 min 0,000 mm 0,0 UV-I 12 W/m -3,5 C -8,4 C 17,7 km/h (3 Bft) 100,00 %
09.02.2017 16:50 -1,8 C 89 % 1023,3 hPa 0,0 l/m 17,1 km/h (3 Bft) O-NO 69 0 min 0,000 mm 0,0 UV-I 12 W/m -3,4 C -10,4 C 27,4 km/h (4 Bft) 100,00 %
09.02.2017 16:52 -1,8 C 89 % 1023,3 hPa 0,0 l/m 17,9 km/h (3 Bft) O-NO 61 0 min 0,000 mm 0,0 UV-I 11 W/m -3,4 C -10,9 C 24,1 km/h (4 Bft) 95,74 %
09.02.2017 16:54 -1,8 C 88 % 1023,3 hPa 0,0 l/m 20,9 km/h (4 Bft) NO 50 0 min 0,000 mm 0,0 UV-I 11 W/m -3,5 C -12,4 C 30,6 km/h (5 Bft) 100,00 %
09.02.2017 16:56 -1,8 C 88 % 1023,2 hPa 0,0 l/m 20,5 km/h (4 Bft) O-NO 59 0 min 0,000 mm 0,0 UV-I 9 W/m -3,5 C -12,2 C 30,6 km/h (5 Bft) 100,00 %
09.02.2017 16:58 -1,8 C 88 % 1023,2 hPa 0,0 l/m 20,1 km/h (4 Bft) NO 55 0 min 0,000 mm 0,0 UV-I 9 W/m -3,5 C -12,0 C 27,4 km/h (4 Bft) 96,15 %
09.02.2017 17:00 -1,8 C 88 % 1023,2 hPa 0,0 l/m 17,5 km/h (3 Bft) O-NO 58 0 min 0,025 mm 0,0 UV-I 9 W/m -3,5 C -10,6 C 24,1 km/h (4 Bft) 98,53 %
09.02.2017 17:02 -1,8 C 88 % 1023,2 hPa 0,0 l/m 18,5 km/h (3 Bft) NO 49 0 min 0,000 mm 0,0 UV-I 9 W/m -3,5 C -11,2 C 27,4 km/h (4 Bft) 100,00 %
09.02.2017 17:04 -1,8 C 88 % 1023,2 hPa 0,0 l/m 20,0 km/h (4 Bft) O-NO 66 0 min 0,000 mm 0,0 UV-I 7 W/m -3,5 C -12,0 C 25,7 km/h (4 Bft) 98,00 %
09.02.2017 17:06 -1,8 C 88 % 1023,1 hPa 0,0 l/m 17,6 km/h (3 Bft) O-NO 61 0 min 0,000 mm 0,0 UV-I 7 W/m -3,5 C -10,7 C 24,1 km/h (4 Bft) 96,00 %
09.02.2017 17:08 -1,8 C 88 % 1023,2 hPa 0,0 l/m 19,0 km/h (3 Bft) NO 36 0 min 0,000 mm 0,0 UV-I 7 W/m -3,5 C -11,5 C 27,4 km/h (4 Bft) 100,00 %
09.02.2017 17:10 -1,8 C 88 % 1023,1 hPa 0,0 l/m 17,7 km/h (3 Bft) NO 52 0 min 0,000 mm 0,0 UV-I 7 W/m -3,5 C -10,8 C 22,5 km/h (4 Bft) 100,00 %
09.02.2017 17:12 -1,8 C 88 % 1023,1 hPa 0,0 l/m 18,5 km/h (3 Bft) O 82 0 min 0,000 mm 0,0 UV-I 7 W/m -3,5 C -11,2 C 24,1 km/h (4 Bft) 94,74 %
09.02.2017 17:14 -1,8 C 88 % 1023,2 hPa 0,0 l/m 17,8 km/h (3 Bft) O-NO 70 0 min 0,000 mm 0,0 UV-I 6 W/m -3,5 C -10,8 C 25,7 km/h (4 Bft) 100,00 %
09.02.2017 17:16 -1,8 C 88 % 1023,2 hPa 0,0 l/m 20,3 km/h (4 Bft) O-NO 61 0 min 0,000 mm 0,0 UV-I 5 W/m -3,5 C -12,1 C 29,0 km/h (5 Bft) 100,00 %
09.02.2017 17:18 -1,8 C 88 % 1023,2 hPa 0,0 l/m 22,6 km/h (4 Bft) O-NO 65 0 min 0,000 mm 0,0 UV-I 5 W/m -3,5 C -13,2 C 32,2 km/h (5 Bft) 100,00 %
09.02.2017 17:20 -1,8 C 88 % 1023,1 hPa 0,0 l/m 20,8 km/h (4 Bft) O 83 0 min 0,000 mm 0,0 UV-I 5 W/m -3,5 C -12,3 C 27,4 km/h (4 Bft) 100,00 %
09.02.2017 17:22 -1,8 C 88 % 1023,1 hPa 0,0 l/m 20,0 km/h (4 Bft) O-NO 63 0 min 0,000 mm 0,0 UV-I 5 W/m -3,5 C -12,0 C 32,2 km/h (5 Bft) 97,37 %
09.02.2017 17:24 -1,8 C 88 % 1023,2 hPa 0,0 l/m 18,6 km/h (3 Bft) O-NO 67 0 min 0,000 mm 0,0 UV-I 4 W/m -3,5 C -11,2 C 27,4 km/h (4 Bft) 98,31 %
09.02.2017 17:26 -1,8 C 88 % 1023,1 hPa 0,0 l/m 20,4 km/h (4 Bft) O-NO 57 0 min 0,000 mm 0,0 UV-I 0 W/m -3,5 C -12,2 C 30,6 km/h (5 Bft) 97,56 %
09.02.2017 17:28 -1,9 C 88 % 1023,1 hPa 0,0 l/m 18,9 km/h (3 Bft) O-NO 61 0 min 0,000 mm 0,0 UV-I 0 W/m -3,6 C -11,5 C 24,1 km/h (4 Bft) 98,11 %
09.02.2017 17:30 -1,9 C 88 % 1023,1 hPa 0,0 l/m 20,6 km/h (4 Bft) O-NO 65 0 min 0,000 mm 0,0 UV-I 0 W/m -3,6 C -12,4 C 29,0 km/h (5 Bft) 100,00 %
09.02.2017 17:32 -1,9 C 88 % 1023,1 hPa 0,0 l/m 21,6 km/h (4 Bft) O-NO 71 0 min 0,000 mm 0,0 UV-I 0 W/m -3,6 C -12,8 C 29,0 km/h (5 Bft) 98,11 %
09.02.2017 17:34 -1,9 C 88 % 1023,1 hPa 0,0 l/m 17,6 km/h (3 Bft) O-NO 65 0 min 0,000 mm 0,0 UV-I 0 W/m -3,6 C -10,8 C 30,6 km/h (5 Bft) 98,00 %
09.02.2017 17:36 -1,9 C 88 % 1023,1 hPa 0,0 l/m 19,3 km/h (3 Bft) O-NO 77 0 min 0,000 mm 0,0 UV-I 0 W/m -3,6 C -11,7 C 29,0 km/h (5 Bft) 100,00 %
09.02.2017 17:38 -1,9 C 88 % 1023,1 hPa 0,0 l/m 16,2 km/h (3 Bft) NO 51 0 min 0,000 mm 0,0 UV-I 0 W/m -3,6 C -10,0 C 25,7 km/h (4 Bft) 100,00 %
09.02.2017 17:40 -1,9 C 88 % 1023,1 hPa 0,0 l/m 19,4 km/h (3 Bft) O-NO 64 0 min 0,000 mm 0,0 UV-I 0 W/m -3,6 C -11,8 C 25,7 km/h (4 Bft) 100,00 %
09.02.2017 17:42 -1,9 C 88 % 1023,0 hPa 0,0 l/m 20,7 km/h (4 Bft) O-NO 61 0 min 0,000 mm 0,0 UV-I 0 W/m -3,6 C -12,4 C 27,4 km/h (4 Bft) 100,00 %
09.02.2017 17:44 -1,9 C 88 % 1023,1 hPa 0,0 l/m 20,0 km/h (4 Bft) O-NO 67 0 min 0,000 mm 0,0 UV-I 0 W/m -3,6 C -12,1 C 25,7 km/h (4 Bft) 100,00 %
09.02.2017 17:46 -1,9 C 88 % 1023,1 hPa 0,0 l/m 20,8 km/h (4 Bft) O-NO 63 0 min 0,000 mm 0,0 UV-I 0 W/m -3,6 C -12,5 C 27,4 km/h (4 Bft) 100,00 %
09.02.2017 17:48 -1,9 C 88 % 1023,1 hPa 0,0 l/m 21,8 km/h (4 Bft) NO 53 0 min 0,000 mm 0,0 UV-I 0 W/m -3,6 C -12,9 C 27,4 km/h (4 Bft) 100,00 %
09.02.2017 17:50 -1,9 C 88 % 1023,1 hPa 0,0 l/m 21,6 km/h (4 Bft) O 88 0 min 0,000 mm 0,0 UV-I 0 W/m -3,6 C -12,8 C 29,0 km/h (5 Bft) 100,00 %
09.02.2017 17:52 -1,9 C 88 % 1023,0 hPa 0,0 l/m 21,6 km/h (4 Bft) O-NO 65 0 min 0,000 mm 0,0 UV-I 0 W/m -3,6 C -12,8 C 32,2 km/h (5 Bft) 100,00 %
09.02.2017 17:54 -1,9 C 88 % 1023,0 hPa 0,0 l/m 23,7 km/h (4 Bft) O-NO 57 0 min 0,000 mm 0,0 UV-I 0 W/m -3,6 C -13,8 C 30,6 km/h (5 Bft) 100,00 %
09.02.2017 17:56 -1,9 C 88 % 1023,1 hPa 0,0 l/m 21,2 km/h (4 Bft) O-NO 73 0 min 0,000 mm 0,0 UV-I 0 W/m -3,6 C -12,7 C 30,6 km/h (5 Bft) 100,00 %
09.02.2017 17:58 -1,9 C 88 % 1023,1 hPa 0,0 l/m 18,8 km/h (3 Bft) O-NO 66 0 min 0,000 mm 0,0 UV-I 0 W/m -3,6 C -11,5 C 25,7 km/h (4 Bft) 98,18 %
09.02.2017 18:00 -1,9 C 88 % 1023,0 hPa 0,0 l/m 19,7 km/h (3 Bft) O-NO 73 0 min 0,000 mm 0,0 UV-I 0 W/m -3,6 C -11,9 C 29,0 km/h (5 Bft) 95,24 %
09.02.2017 18:02 -1,9 C 88 % 1023,1 hPa 0,0 l/m 19,3 km/h (3 Bft) NO 55 0 min 0,025 mm 0,0 UV-I 0 W/m -3,6 C -11,7 C 25,7 km/h (4 Bft) 93,62 %
09.02.2017 18:04 -1,9 C 88 % 1023,1 hPa 0,0 l/m 24,8 km/h (4 Bft) O-NO 65 0 min 0,000 mm 0,0 UV-I 0 W/m -3,6 C -14,2 C 35,4 km/h (5 Bft) 93,62 %
09.02.2017 18:06 -1,9 C 88 % 1023,1 hPa 0,0 l/m 21,7 km/h (4 Bft) NO 53 0 min 0,000 mm 0,0 UV-I 0 W/m -3,6 C -12,9 C 29,0 km/h (5 Bft) 96,23 %
09.02.2017 18:08 -1,9 C 88 % 1023,1 hPa 0,0 l/m 17,4 km/h (3 Bft) NO 46 0 min 0,000 mm 0,0 UV-I 0 W/m -3,6 C -10,7 C 25,7 km/h (4 Bft) 92,00 %
09.02.2017 18:10 -1,9 C 89 % 1023,0 hPa 0,0 l/m 18,5 km/h (3 Bft) O-NO 70 0 min 0,000 mm 0,0 UV-I 0 W/m -3,5 C -11,3 C 24,1 km/h (4 Bft) 97,37 %
09.02.2017 18:13 -1,9 C 88 % 1023,0 hPa 0,0 l/m 22,1 km/h (4 Bft) O-NO 67 0 min 0,000 mm 0,0 UV-I 0 W/m -3,6 C -13,1 C 32,2 km/h (5 Bft) 94,29 %
09.02.2017 18:14 -1,9 C 88 % 1023,0 hPa 0,0 l/m 21,0 km/h (4 Bft) O-NO 59 0 min 0,000 mm 0,0 UV-I 0 W/m -3,6 C -12,6 C 25,7 km/h (4 Bft) 91,67 %
09.02.2017 18:16 -1,9 C 89 % 1023,0 hPa 0,0 l/m 21,9 km/h (4 Bft) O-NO 71 0 min 0,000 mm 0,0 UV-I 0 W/m -3,5 C -13,0 C 32,2 km/h (5 Bft) 95,12 %
09.02.2017 18:18 -1,9 C 89 % 1023,0 hPa 0,0 l/m 23,0 km/h (4 Bft) O-NO 61 0 min 0,000 mm 0,0 UV-I 0 W/m -3,5 C -13,5 C 29,0 km/h (5 Bft) 94,34 %
09.02.2017 18:20 -1,9 C 88 % 1023,0 hPa 0,0 l/m 18,6 km/h (3 Bft) O-NO 67 0 min 0,000 mm 0,0 UV-I 0 W/m -3,6 C -11,4 C 24,1 km/h (4 Bft) 98,11 %
09.02.2017 18:22 -1,9 C 89 % 1023,1 hPa 0,0 l/m 19,1 km/h (3 Bft) NO 56 0 min 0,000 mm 0,0 UV-I 0 W/m -3,5 C -11,6 C 24,1 km/h (4 Bft) 94,29 %
09.02.2017 18:24 -1,9 C 89 % 1023,1 hPa 0,0 l/m 15,8 km/h (3 Bft) O-NO 78 0 min 0,000 mm 0,0 UV-I 0 W/m -3,5 C -9,8 C 24,1 km/h (4 Bft) 94,00 %
09.02.2017 18:26 -1,9 C 89 % 1023,1 hPa 0,0 l/m 17,6 km/h (3 Bft) O 88 0 min 0,000 mm 0,0 UV-I 0 W/m -3,5 C -10,8 C 25,7 km/h (4 Bft) 96,23 %
09.02.2017 18:28 -1,9 C 89 % 1023,0 hPa 0,0 l/m 19,7 km/h (3 Bft) NO 50 0 min 0,000 mm 0,0 UV-I 0 W/m -3,5 C -11,9 C 30,6 km/h (5 Bft) 95,45 %
09.02.2017 18:30 -1,9 C 89 % 1023,0 hPa 0,0 l/m 16,8 km/h (3 Bft) O-NO 61 0 min 0,000 mm 0,0 UV-I 0 W/m -3,5 C -10,4 C 32,2 km/h (5 Bft) 92,00 %
09.02.2017 18:32 -1,9 C 89 % 1023,1 hPa 0,0 l/m 27,2 km/h (4 Bft) O-NO 73 0 min 0,000 mm 0,0 UV-I 0 W/m -3,5 C -15,1 C 37,0 km/h (5 Bft) 95,12 %
09.02.2017 18:34 -1,9 C 89 % 1023,1 hPa 0,0 l/m 20,4 km/h (4 Bft) O-NO 67 0 min 0,000 mm 0,0 UV-I 0 W/m -3,5 C -12,3 C 37,0 km/h (5 Bft) 96,00 %
09.02.2017 18:36 -1,9 C 89 % 1023,0 hPa 0,0 l/m 18,1 km/h (3 Bft) O-NO 67 0 min 0,000 mm 0,0 UV-I 0 W/m -3,5 C -11,1 C 24,1 km/h (4 Bft) 98,11 %
09.02.2017 18:38 -1,9 C 89 % 1023,0 hPa 0,0 l/m 19,0 km/h (3 Bft) NO 53 0 min 0,000 mm 0,0 UV-I 0 W/m -3,5 C -11,6 C 29,0 km/h (5 Bft) 97,62 %
09.02.2017 18:40 -1,9 C 89 % 1023,1 hPa 0,0 l/m 21,3 km/h (4 Bft) O-NO 65 0 min 0,000 mm 0,0 UV-I 0 W/m -3,5 C -12,7 C 33,8 km/h (5 Bft) 98,08 %
09.02.2017 18:43 -1,9 C 89 % 1023,0 hPa 0,0 l/m 18,4 km/h (3 Bft) O-NO 73 0 min 0,000 mm 0,0 UV-I 0 W/m -3,5 C -11,3 C 25,7 km/h (4 Bft) 100,00 %
09.02.2017 18:44 -1,9 C 89 % 1023,0 hPa 0,0 l/m 18,0 km/h (3 Bft) O-NO 74 0 min 0,000 mm 0,0 UV-I 0 W/m -3,5 C -11,0 C 22,5 km/h (4 Bft) 95,83 %
09.02.2017 18:46 -1,9 C 89 % 1023,0 hPa 0,0 l/m 18,0 km/h (3 Bft) O-NO 78 0 min 0,000 mm 0,0 UV-I 0 W/m -3,5 C -11,0 C 24,1 km/h (4 Bft) 100,00 %
09.02.2017 18:48 -1,9 C 89 % 1023,0 hPa 0,0 l/m 17,8 km/h (3 Bft) O-NO 71 0 min 0,000 mm 0,0 UV-I 0 W/m -3,5 C -10,9 C 22,5 km/h (4 Bft) 100,00 %
09.02.2017 18:50 -1,9 C 89 % 1023,0 hPa 0,0 l/m 19,6 km/h (3 Bft) NO 37 0 min 0,000 mm 0,0 UV-I 0 W/m -3,5 C -11,9 C 27,4 km/h (4 Bft) 97,56 %
09.02.2017 18:52 -1,9 C 89 % 1023,0 hPa 0,0 l/m 20,3 km/h (4 Bft) O-NO 66 0 min 0,000 mm 0,0 UV-I 0 W/m -3,5 C -12,2 C 27,4 km/h (4 Bft) 96,43 %
09.02.2017 18:54 -1,9 C 89 % 1023,0 hPa 0,0 l/m 19,1 km/h (3 Bft) O-NO 76 0 min 0,000 mm 0,0 UV-I 0 W/m -3,5 C -11,6 C 24,1 km/h (4 Bft) 100,00 %
09.02.2017 18:56 -1,9 C 89 % 1023,0 hPa 0,0 l/m 17,0 km/h (3 Bft) O 91 0 min 0,000 mm 0,0 UV-I 0 W/m -3,5 C -10,5 C 24,1 km/h (4 Bft) 100,00 %
09.02.2017 18:58 -1,9 C 89 % 1023,0 hPa 0,0 l/m 18,4 km/h (3 Bft) O-NO 66 0 min 0,000 mm 0,0 UV-I 0 W/m -3,5 C -11,3 C 27,4 km/h (4 Bft) 96,55 %
09.02.2017 19:00 -1,9 C 89 % 1023,0 hPa 0,0 l/m 18,7 km/h (3 Bft) O-NO 60 0 min 0,026 mm 0,0 UV-I 0 W/m -3,5 C -11,4 C 22,5 km/h (4 Bft) 98,53 %
09.02.2017 19:02 -1,9 C 89 % 1023,0 hPa 0,0 l/m 21,8 km/h (4 Bft) NO 52 0 min 0,000 mm 0,0 UV-I 0 W/m -3,5 C -12,9 C 32,2 km/h (5 Bft) 97,73 %
09.02.2017 19:04 -1,9 C 89 % 1023,0 hPa 0,0 l/m 21,0 km/h (4 Bft) O-NO 57 0 min 0,000 mm 0,0 UV-I 0 W/m -3,5 C -12,6 C 27,4 km/h (4 Bft) 100,00 %
09.02.2017 19:06 -1,9 C 89 % 1023,0 hPa 0,0 l/m 23,2 km/h (4 Bft) O-NO 65 0 min 0,000 mm 0,0 UV-I 0 W/m -3,5 C -13,6 C 30,6 km/h (5 Bft) 98,11 %
09.02.2017 19:08 -1,9 C 89 % 1023,0 hPa 0,0 l/m 19,3 km/h (3 Bft) O-NO 61 0 min 0,000 mm 0,0 UV-I 0 W/m -3,5 C -11,7 C 22,5 km/h (4 Bft) 100,00 %
09.02.2017 19:10 -1,9 C 89 % 1023,0 hPa 0,0 l/m 17,3 km/h (3 Bft) O-NO 62 0 min 0,000 mm 0,0 UV-I 0 W/m -3,5 C -10,7 C 24,1 km/h (4 Bft) 100,00 %
09.02.2017 19:13 -1,9 C 89 % 1022,9 hPa 0,0 l/m 22,5 km/h (4 Bft) O-NO 61 0 min 0,000 mm 0,0 UV-I 0 W/m -3,5 C -13,3 C 30,6 km/h (5 Bft) 100,00 %
09.02.2017 19:14 -1,9 C 89 % 1022,9 hPa 0,0 l/m 27,2 km/h (4 Bft) NO 55 0 min 0,000 mm 0,0 UV-I 0 W/m -3,5 C -15,1 C 35,4 km/h (5 Bft) 100,00 %
09.02.2017 19:16 -1,9 C 89 % 1022,9 hPa 0,0 l/m 22,3 km/h (4 Bft) O 82 0 min 0,000 mm 0,0 UV-I 0 W/m -3,5 C -13,2 C 32,2 km/h (5 Bft) 100,00 %
09.02.2017 19:18 -1,9 C 89 % 1022,9 hPa 0,0 l/m 25,0 km/h (4 Bft) NO 34 0 min 0,000 mm 0,0 UV-I 0 W/m -3,5 C -14,3 C 32,2 km/h (5 Bft) 100,00 %
09.02.2017 19:20 -1,9 C 89 % 1022,9 hPa 0,0 l/m 19,4 km/h (3 Bft) O-NO 69 0 min 0,000 mm 0,0 UV-I 0 W/m -3,5 C -11,8 C 30,6 km/h (5 Bft) 100,00 %
09.02.2017 19:22 -1,9 C 89 % 1022,9 hPa 0,0 l/m 23,5 km/h (4 Bft) NO 48 0 min 0,000 mm 0,0 UV-I 0 W/m -3,5 C -13,7 C 30,6 km/h (5 Bft) 100,00 %
09.02.2017 19:24 -1,9 C 89 % 1022,9 hPa 0,0 l/m 25,2 km/h (4 Bft) NO 48 0 min 0,000 mm 0,0 UV-I 0 W/m -3,5 C -14,4 C 32,2 km/h (5 Bft) 100,00 %
09.02.2017 19:26 -1,9 C 89 % 1022,8 hPa 0,0 l/m 21,6 km/h (4 Bft) O-NO 66 0 min 0,000 mm 0,0 UV-I 0 W/m -3,5 C -12,8 C 27,4 km/h (4 Bft) 100,00 %
09.02.2017 19:28 -1,9 C 89 % 1022,9 hPa 0,0 l/m 18,7 km/h (3 Bft) NO 40 0 min 0,000 mm 0,0 UV-I 0 W/m -3,5 C -11,4 C 24,1 km/h (4 Bft) 98,46 %
09.02.2017 19:30 -1,9 C 89 % 1022,9 hPa 0,0 l/m 24,1 km/h (4 Bft) O-NO 61 0 min 0,000 mm 0,0 UV-I 0 W/m -3,5 C -13,9 C 37,0 km/h (5 Bft) 97,37 %
09.02.2017 19:32 -1,9 C 90 % 1022,8 hPa 0,0 l/m 20,3 km/h (4 Bft) O-NO 74 0 min 0,000 mm 0,0 UV-I 0 W/m -3,3 C -12,2 C 29,0 km/h (5 Bft) 100,00 %
09.02.2017 19:34 -1,9 C 90 % 1022,8 hPa 0,0 l/m 21,2 km/h (4 Bft) O-NO 63 0 min 0,000 mm 0,0 UV-I 0 W/m -3,3 C -12,7 C 29,0 km/h (5 Bft) 97,87 %
09.02.2017 19:36 -1,9 C 90 % 1022,8 hPa 0,0 l/m 21,0 km/h (4 Bft) NO 42 0 min 0,000 mm 0,0 UV-I 0 W/m -3,3 C -12,6 C 27,4 km/h (4 Bft) 98,00 %
09.02.2017 19:38 -1,9 C 90 % 1022,8 hPa 0,0 l/m 19,4 km/h (3 Bft) NO 46 0 min 0,000 mm 0,0 UV-I 0 W/m -3,3 C -11,8 C 27,4 km/h (4 Bft) 95,12 %
09.02.2017 19:40 -1,9 C 90 % 1022,8 hPa 0,0 l/m 19,6 km/h (3 Bft) O-NO 62 0 min 0,000 mm 0,0 UV-I 0 W/m -3,3 C -11,9 C 27,4 km/h (4 Bft) 100,00 %
09.02.2017 19:42 -1,9 C 90 % 1022,8 hPa 0,0 l/m 20,4 km/h (4 Bft) O-NO 66 0 min 0,000 mm 0,0 UV-I 0 W/m -3,3 C -12,3 C 29,0 km/h (5 Bft) 100,00 %
09.02.2017 19:44 -1,9 C 90 % 1022,7 hPa 0,0 l/m 22,8 km/h (4 Bft) NO 53 0 min 0,000 mm 0,0 UV-I 0 W/m -3,3 C -13,4 C 27,4 km/h (4 Bft) 97,37 %
09.02.2017 19:46 -1,9 C 90 % 1022,8 hPa 0,0 l/m 18,4 km/h (3 Bft) O 86 0 min 0,000 mm 0,0 UV-I 0 W/m -3,3 C -11,3 C 25,7 km/h (4 Bft) 100,00 %
09.02.2017 19:48 -1,9 C 90 % 1022,8 hPa 0,0 l/m 21,4 km/h (4 Bft) O-NO 57 0 min 0,000 mm 0,0 UV-I 0 W/m -3,3 C -12,8 C 32,2 km/h (5 Bft) 100,00 %
09.02.2017 19:50 -1,9 C 90 % 1022,8 hPa 0,0 l/m 22,0 km/h (4 Bft) NO 46 0 min 0,000 mm 0,0 UV-I 0 W/m -3,3 C -13,0 C 30,6 km/h (5 Bft) 100,00 %
09.02.2017 19:52 -1,9 C 90 % 1022,8 hPa 0,0 l/m 21,2 km/h (4 Bft) O-NO 65 0 min 0,000 mm 0,0 UV-I 0 W/m -3,3 C -12,7 C 30,6 km/h (5 Bft) 97,22 %
09.02.2017 19:54 -1,9 C 90 % 1022,7 hPa 0,0 l/m 17,7 km/h (3 Bft) O-NO 65 0 min 0,000 mm 0,0 UV-I 0 W/m -3,3 C -10,9 C 22,5 km/h (4 Bft) 98,08 %
09.02.2017 19:56 -2,0 C 90 % 1022,7 hPa 0,0 l/m 19,2 km/h (3 Bft) O-NO 71 0 min 0,000 mm 0,0 UV-I 0 W/m -3,4 C -11,8 C 29,0 km/h (5 Bft) 96,23 %
09.02.2017 19:58 -1,9 C 90 % 1022,7 hPa 0,0 l/m 20,8 km/h (4 Bft) O-NO 75 0 min 0,000 mm 0,0 UV-I 0 W/m -3,3 C -12,5 C 30,6 km/h (5 Bft) 97,78 %
09.02.2017 20:00 -2,0 C 90 % 1022,7 hPa 0,0 l/m 18,4 km/h (3 Bft) O 80 0 min 0,000 mm 0,0 UV-I 0 W/m -3,4 C -11,4 C 25,7 km/h (4 Bft) 98,00 %
09.02.2017 20:02 -2,0 C 90 % 1022,7 hPa 0,0 l/m 22,3 km/h (4 Bft) O-NO 76 0 min 0,025 mm 0,0 UV-I 0 W/m -3,4 C -13,3 C 32,2 km/h (5 Bft) 97,37 %
09.02.2017 20:04 -1,9 C 90 % 1022,7 hPa 0,0 l/m 22,3 km/h (4 Bft) O-NO 77 0 min 0,000 mm 0,0 UV-I 0 W/m -3,3 C -13,2 C 35,4 km/h (5 Bft) 94,34 %
09.02.2017 20:06 -1,9 C 90 % 1022,8 hPa 0,0 l/m 16,7 km/h (3 Bft) O 79 0 min 0,000 mm 0,0 UV-I 0 W/m -3,3 C -10,3 C 22,5 km/h (4 Bft) 91,49 %
09.02.2017 20:08 -2,0 C 90 % 1022,7 hPa 0,0 l/m 20,9 km/h (4 Bft) O-NO 65 0 min 0,000 mm 0,0 UV-I 0 W/m -3,4 C -12,7 C 29,0 km/h (5 Bft) 94,00 %
09.02.2017 20:10 -2,0 C 90 % 1022,7 hPa 0,0 l/m 18,8 km/h (3 Bft) O-NO 67 0 min 0,000 mm 0,0 UV-I 0 W/m -3,4 C -11,6 C 24,1 km/h (4 Bft) 90,91 %
09.02.2017 20:12 -2,0 C 90 % 1022,7 hPa 0,0 l/m 23,1 km/h (4 Bft) O-NO 74 0 min 0,000 mm 0,0 UV-I 0 W/m -3,4 C -13,6 C 30,6 km/h (5 Bft) 87,80 %
09.02.2017 20:14 -1,9 C 91 % 1022,6 hPa 0,0 l/m 21,8 km/h (4 Bft) O-NO 78 0 min 0,000 mm 0,0 UV-I 0 W/m -3,2 C -12,9 C 32,2 km/h (5 Bft) 92,45 %
09.02.2017 20:16 -2,0 C 91 % 1022,7 hPa 0,0 l/m 21,5 km/h (4 Bft) NO 45 0 min 0,000 mm 0,0 UV-I 0 W/m -3,3 C -12,9 C 30,6 km/h (5 Bft) 96,00 %
09.02.2017 20:18 -1,9 C 91 % 1022,6 hPa 0,0 l/m 24,5 km/h (4 Bft) O 85 0 min 0,000 mm 0,0 UV-I 0 W/m -3,2 C -14,1 C 32,2 km/h (5 Bft) 95,74 %
09.02.2017 20:20 -1,9 C 91 % 1022,6 hPa 0,0 l/m 19,4 km/h (3 Bft) NO 53 0 min 0,000 mm 0,0 UV-I 0 W/m -3,2 C -11,8 C 25,7 km/h (4 Bft) 91,43 %
09.02.2017 20:22 -1,9 C 91 % 1022,6 hPa 0,0 l/m 19,0 km/h (3 Bft) NO 50 0 min 0,000 mm 0,0 UV-I 0 W/m -3,2 C -11,6 C 24,1 km/h (4 Bft) 96,00 %
09.02.2017 20:24 -1,9 C 91 % 1022,6 hPa 0,0 l/m 23,3 km/h (4 Bft) NO 47 0 min 0,000 mm 0,0 UV-I 0 W/m -3,2 C -13,6 C 30,6 km/h (5 Bft) 95,12 %
09.02.2017 20:26 -1,9 C 91 % 1022,6 hPa 0,0 l/m 20,1 km/h (4 Bft) O 80 0 min 0,000 mm 0,0 UV-I 0 W/m -3,2 C -12,1 C 30,6 km/h (5 Bft) 96,43 %
09.02.2017 20:28 -1,9 C 91 % 1022,6 hPa 0,0 l/m 22,1 km/h (4 Bft) O-NO 65 0 min 0,000 mm 0,0 UV-I 0 W/m -3,2 C -13,1 C 27,4 km/h (4 Bft) 96,30 %
09.02.2017 20:30 -1,9 C 91 % 1022,6 hPa 0,0 l/m 21,5 km/h (4 Bft) O-NO 58 0 min 0,000 mm 0,0 UV-I 0 W/m -3,2 C -12,8 C 30,6 km/h (5 Bft) 97,01 %
09.02.2017 20:32 -1,9 C 91 % 1022,6 hPa 0,0 l/m 17,4 km/h (3 Bft) O 94 0 min 0,000 mm 0,0 UV-I 0 W/m -3,2 C -10,7 C 32,2 km/h (5 Bft) 95,74 %
09.02.2017 20:34 -1,9 C 91 % 1022,6 hPa 0,0 l/m 20,5 km/h (4 Bft) O 82 0 min 0,000 mm 0,0 UV-I 0 W/m -3,2 C -12,3 C 29,0 km/h (5 Bft) 93,62 %
09.02.2017 20:36 -1,9 C 91 % 1022,6 hPa 0,0 l/m 22,5 km/h (4 Bft) O-NO 68 0 min 0,000 mm 0,0 UV-I 0 W/m -3,2 C -13,3 C 32,2 km/h (5 Bft) 96,00 %
09.02.2017 20:38 -1,9 C 91 % 1022,6 hPa 0,0 l/m 24,0 km/h (4 Bft) O-NO 64 0 min 0,000 mm 0,0 UV-I 0 W/m -3,2 C -13,9 C 32,2 km/h (5 Bft) 97,44 %
09.02.2017 20:40 -1,9 C 91 % 1022,6 hPa 0,0 l/m 21,2 km/h (4 Bft) O-NO 59 0 min 0,000 mm 0,0 UV-I 0 W/m -3,2 C -12,7 C 32,2 km/h (5 Bft) 100,00 %
09.02.2017 20:42 -1,9 C 91 % 1022,6 hPa 0,0 l/m 20,2 km/h (4 Bft) O-NO 71 0 min 0,000 mm 0,0 UV-I 0 W/m -3,2 C -12,2 C 25,7 km/h (4 Bft) 100,00 %
09.02.2017 20:44 -1,9 C 91 % 1022,6 hPa 0,0 l/m 19,4 km/h (3 Bft) O-NO 76 0 min 0,000 mm 0,0 UV-I 0 W/m -3,2 C -11,8 C 27,4 km/h (4 Bft) 96,43 %
09.02.2017 20:46 -1,9 C 91 % 1022,6 hPa 0,0 l/m 16,1 km/h (3 Bft) O-NO 68 0 min 0,000 mm 0,0 UV-I 0 W/m -3,2 C -10,0 C 22,5 km/h (4 Bft) 97,22 %
09.02.2017 20:49 -1,9 C 91 % 1022,6 hPa 0,0 l/m 20,9 km/h (4 Bft) O 79 0 min 0,000 mm 0,0 UV-I 0 W/m -3,2 C -12,5 C 32,2 km/h (5 Bft) 100,00 %
09.02.2017 20:50 -1,9 C 91 % 1022,6 hPa 0,0 l/m 18,0 km/h (3 Bft) O-NO 69 0 min 0,000 mm 0,0 UV-I 0 W/m -3,2 C -11,0 C 22,5 km/h (4 Bft) 100,00 %
09.02.2017 20:52 -1,9 C 91 % 1022,6 hPa 0,0 l/m 22,5 km/h (4 Bft) O-NO 77 0 min 0,000 mm 0,0 UV-I 0 W/m -3,2 C -13,3 C 29,0 km/h (5 Bft) 97,56 %
09.02.2017 20:54 -1,9 C 91 % 1022,5 hPa 0,0 l/m 22,5 km/h (4 Bft) O-NO 75 0 min 0,000 mm 0,0 UV-I 0 W/m -3,2 C -13,3 C 35,4 km/h (5 Bft) 100,00 %
09.02.2017 20:56 -1,9 C 91 % 1022,5 hPa 0,0 l/m 19,4 km/h (3 Bft) O-NO 70 0 min 0,000 mm 0,0 UV-I 0 W/m -3,2 C -11,8 C 25,7 km/h (4 Bft) 100,00 %
09.02.2017 20:58 -1,9 C 91 % 1022,5 hPa 0,0 l/m 18,8 km/h (3 Bft) O 83 0 min 0,000 mm 0,0 UV-I 0 W/m -3,2 C -11,5 C 29,0 km/h (5 Bft) 100,00 %
09.02.2017 21:00 -1,9 C 91 % 1022,5 hPa 0,0 l/m 17,5 km/h (3 Bft) O 88 0 min 0,026 mm 0,0 UV-I 0 W/m -3,2 C -10,8 C 25,7 km/h (4 Bft) 98,00 %
09.02.2017 21:02 -1,9 C 91 % 1022,5 hPa 0,0 l/m 17,8 km/h (3 Bft) O-NO 74 0 min 0,000 mm 0,0 UV-I 0 W/m -3,2 C -10,9 C 24,1 km/h (4 Bft) 100,00 %
09.02.2017 21:04 -1,9 C 91 % 1022,4 hPa 0,0 l/m 19,1 km/h (3 Bft) O-NO 67 0 min 0,000 mm 0,0 UV-I 0 W/m -3,2 C -11,6 C 24,1 km/h (4 Bft) 100,00 %
09.02.2017 21:06 -1,9 C 91 % 1022,5 hPa 0,0 l/m 17,4 km/h (3 Bft) O 84 0 min 0,000 mm 0,0 UV-I 0 W/m -3,2 C -10,7 C 24,1 km/h (4 Bft) 100,00 %
09.02.2017 21:08 -1,9 C 91 % 1022,5 hPa 0,0 l/m 19,3 km/h (3 Bft) O 90 0 min 0,000 mm 0,0 UV-I 0 W/m -3,2 C -11,7 C 30,6 km/h (5 Bft) 100,00 %
09.02.2017 21:10 -1,9 C 91 % 1022,5 hPa 0,0 l/m 23,5 km/h (4 Bft) O 94 0 min 0,000 mm 0,0 UV-I 0 W/m -3,2 C -13,7 C 30,6 km/h (5 Bft) 98,11 %
09.02.2017 21:12 -1,9 C 91 % 1022,4 hPa 0,0 l/m 19,2 km/h (3 Bft) O 94 0 min 0,000 mm 0,0 UV-I 0 W/m -3,2 C -11,7 C 27,4 km/h (4 Bft) 97,56 %
09.02.2017 21:14 -1,9 C 91 % 1022,5 hPa 0,0 l/m 19,9 km/h (4 Bft) O 82 0 min 0,000 mm 0,0 UV-I 0 W/m -3,2 C -12,0 C 29,0 km/h (5 Bft) 97,22 %
09.02.2017 21:16 -1,9 C 91 % 1022,5 hPa 0,0 l/m 21,8 km/h (4 Bft) O-NO 69 0 min 0,000 mm 0,0 UV-I 0 W/m -3,2 C -12,9 C 37,0 km/h (5 Bft) 98,39 %
09.02.2017 21:18 -1,8 C 91 % 1022,5 hPa 0,0 l/m 20,8 km/h (4 Bft) O-NO 61 0 min 0,000 mm 0,0 UV-I 0 W/m -3,1 C -12,3 C 33,8 km/h (5 Bft) 97,87 %
09.02.2017 21:20 -1,8 C 91 % 1022,4 hPa 0,0 l/m 17,4 km/h (3 Bft) NO 53 0 min 0,000 mm 0,0 UV-I 0 W/m -3,1 C -10,6 C 24,1 km/h (4 Bft) 98,00 %
09.02.2017 21:22 -1,8 C 91 % 1022,2 hPa 0,0 l/m 22,8 km/h (4 Bft) O-NO 71 0 min 0,000 mm 0,0 UV-I 0 W/m -3,1 C -13,2 C 30,6 km/h (5 Bft) 100,00 %
09.02.2017 21:24 -1,8 C 91 % 1022,3 hPa 0,0 l/m 18,7 km/h (3 Bft) O-NO 78 0 min 0,000 mm 0,0 UV-I 0 W/m -3,1 C -11,3 C 27,4 km/h (4 Bft) 97,73 %
09.02.2017 21:26 -1,8 C 91 % 1022,3 hPa 0,0 l/m 19,4 km/h (3 Bft) O-NO 62 0 min 0,000 mm 0,0 UV-I 0 W/m -3,1 C -11,7 C 29,0 km/h (5 Bft) 100,00 %
09.02.2017 21:28 -1,8 C 91 % 1022,3 hPa 0,0 l/m 19,5 km/h (3 Bft) O-NO 71 0 min 0,000 mm 0,0 UV-I 0 W/m -3,1 C -11,7 C 27,4 km/h (4 Bft) 97,37 %
09.02.2017 21:30 -1,8 C 91 % 1022,2 hPa 0,0 l/m 19,1 km/h (3 Bft) O 92 0 min 0,000 mm 0,0 UV-I 0 W/m -3,1 C -11,5 C 24,1 km/h (4 Bft) 100,00 %
09.02.2017 21:32 -1,9 C 91 % 1022,3 hPa 0,0 l/m 19,7 km/h (3 Bft) O 90 0 min 0,000 mm 0,0 UV-I 0 W/m -3,2 C -11,9 C 32,2 km/h (5 Bft) 100,00 %
09.02.2017 21:34 -1,8 C 91 % 1022,2 hPa 0,0 l/m 20,6 km/h (4 Bft) NO 51 0 min 0,000 mm 0,0 UV-I 0 W/m -3,1 C -12,2 C 30,6 km/h (5 Bft) 100,00 %
09.02.2017 21:36 -1,8 C 91 % 1022,2 hPa 0,0 l/m 17,7 km/h (3 Bft) O-NO 77 0 min 0,000 mm 0,0 UV-I 0 W/m -3,1 C -10,8 C 24,1 km/h (4 Bft) 98,11 %
09.02.2017 21:38 -1,8 C 91 % 1022,2 hPa 0,0 l/m 19,4 km/h (3 Bft) NO 50 0 min 0,000 mm 0,0 UV-I 0 W/m -3,1 C -11,7 C 27,4 km/h (4 Bft) 100,00 %
09.02.2017 21:40 -1,8 C 91 % 1022,2 hPa 0,0 l/m 19,4 km/h (3 Bft) O-NO 76 0 min 0,000 mm 0,0 UV-I 0 W/m -3,1 C -11,7 C 24,1 km/h (4 Bft) 100,00 %
09.02.2017 21:42 -1,8 C 91 % 1022,3 hPa 0,0 l/m 19,0 km/h (3 Bft) O 82 0 min 0,000 mm 0,0 UV-I 0 W/m -3,1 C -11,5 C 30,6 km/h (5 Bft) 100,00 %
09.02.2017 21:44 -1,8 C 91 % 1022,2 hPa 0,0 l/m 15,9 km/h (3 Bft) O-SO 105 0 min 0,000 mm 0,0 UV-I 0 W/m -3,1 C -9,7 C 24,1 km/h (4 Bft) 97,87 %
09.02.2017 21:46 -1,8 C 91 % 1022,2 hPa 0,0 l/m 19,6 km/h (3 Bft) O-SO 115 0 min 0,000 mm 0,0 UV-I 0 W/m -3,1 C -11,8 C 27,4 km/h (4 Bft) 100,00 %
09.02.2017 21:48 -1,8 C 91 % 1022,2 hPa 0,0 l/m 17,7 km/h (3 Bft) O 80 0 min 0,000 mm 0,0 UV-I 0 W/m -3,1 C -10,8 C 24,1 km/h (4 Bft) 100,00 %
09.02.2017 21:50 -1,8 C 91 % 1022,2 hPa 0,0 l/m 16,5 km/h (3 Bft) O 101 0 min 0,000 mm 0,0 UV-I 0 W/m -3,1 C -10,1 C 20,9 km/h (4 Bft) 96,23 %
09.02.2017 21:52 -1,8 C 91 % 1022,2 hPa 0,0 l/m 13,6 km/h (3 Bft) O 83 0 min 0,000 mm 0,0 UV-I 0 W/m -3,1 C -8,2 C 20,9 km/h (4 Bft) 97,56 %
09.02.2017 21:54 -1,9 C 91 % 1022,2 hPa 0,0 l/m 16,3 km/h (3 Bft) O-NO 69 0 min 0,000 mm 0,0 UV-I 0 W/m -3,2 C -10,1 C 22,5 km/h (4 Bft) 96,23 %
09.02.2017 21:56 -1,9 C 91 % 1022,1 hPa 0,0 l/m 20,7 km/h (4 Bft) O-NO 66 0 min 0,000 mm 0,0 UV-I 0 W/m -3,2 C -12,4 C 27,4 km/h (4 Bft) 98,00 %
09.02.2017 21:58 -1,9 C 91 % 1022,2 hPa 0,0 l/m 19,4 km/h (3 Bft) O-NO 69 0 min 0,000 mm 0,0 UV-I 0 W/m -3,2 C -11,8 C 29,0 km/h (5 Bft) 97,62 %
09.02.2017 22:00 -1,9 C 91 % 1022,2 hPa 0,0 l/m 15,9 km/h (3 Bft) O 84 0 min 0,000 mm 0,0 UV-I 0 W/m -3,2 C -9,8 C 19,3 km/h (3 Bft) 98,00 %
09.02.2017 22:02 -1,9 C 91 % 1022,2 hPa 0,0 l/m 17,1 km/h (3 Bft) O-NO 57 0 min 0,000 mm 0,0 UV-I 0 W/m -3,2 C -10,5 C 27,4 km/h (4 Bft) 94,74 %
09.02.2017 22:04 -1,8 C 91 % 1022,1 hPa 0,0 l/m 16,9 km/h (3 Bft) O 82 0 min 0,000 mm 0,0 UV-I 0 W/m -3,1 C -10,3 C 22,5 km/h (4 Bft) 97,73 %
09.02.2017 22:06 -1,8 C 91 % 1022,2 hPa 0,0 l/m 19,6 km/h (3 Bft) O-NO 67 0 min 0,000 mm 0,0 UV-I 0 W/m -3,1 C -11,8 C 27,4 km/h (4 Bft) 100,00 %
09.02.2017 22:08 -1,8 C 91 % 1022,1 hPa 0,0 l/m 17,0 km/h (3 Bft) O-SO 103 0 min 0,000 mm 0,0 UV-I 0 W/m -3,1 C -10,4 C 24,1 km/h (4 Bft) 97,37 %
09.02.2017 22:10 -1,8 C 91 % 1022,2 hPa 0,0 l/m 14,6 km/h (3 Bft) O 82 0 min 0,000 mm 0,0 UV-I 0 W/m -3,1 C -8,9 C 19,3 km/h (3 Bft) 96,23 %
09.02.2017 22:12 -1,8 C 91 % 1022,2 hPa 0,0 l/m 16,7 km/h (3 Bft) O 93 0 min 0,000 mm 0,0 UV-I 0 W/m -3,1 C -10,2 C 24,1 km/h (4 Bft) 93,18 %
09.02.2017 22:14 -1,8 C 91 % 1022,2 hPa 0,0 l/m 17,7 km/h (3 Bft) O 93 0 min 0,000 mm 0,0 UV-I 0 W/m -3,1 C -10,8 C 27,4 km/h (4 Bft) 94,00 %
09.02.2017 22:16 -1,8 C 91 % 1022,2 hPa 0,0 l/m 16,2 km/h (3 Bft) O 86 0 min 0,000 mm 0,0 UV-I 0 W/m -3,1 C -9,9 C 24,1 km/h (4 Bft) 94,00 %
09.02.2017 22:18 -1,8 C 91 % 1022,2 hPa 0,0 l/m 13,9 km/h (3 Bft) O-NO 74 0 min 0,000 mm 0,0 UV-I 0 W/m -3,1 C -8,4 C 24,1 km/h (4 Bft) 93,62 %
09.02.2017 22:20 -1,8 C 91 % 1022,1 hPa 0,0 l/m 19,5 km/h (3 Bft) O-NO 76 0 min 0,000 mm 0,0 UV-I 0 W/m -3,1 C -11,7 C 27,4 km/h (4 Bft) 94,74 %
09.02.2017 22:22 -1,8 C 91 % 1022,1 hPa 0,0 l/m 17,8 km/h (3 Bft) O 82 0 min 0,000 mm 0,0 UV-I 0 W/m -3,1 C -10,8 C 22,5 km/h (4 Bft) 96,00 %
09.02.2017 22:24 -1,8 C 91 % 1022,1 hPa 0,0 l/m 15,8 km/h (3 Bft) O-NO 71 0 min 0,000 mm 0,0 UV-I 0 W/m -3,1 C -9,7 C 22,5 km/h (4 Bft) 97,56 %
09.02.2017 22:26 -1,8 C 91 % 1022,1 hPa 0,0 l/m 14,4 km/h (3 Bft) O 89 0 min 0,000 mm 0,0 UV-I 0 W/m -3,1 C -8,8 C 20,9 km/h (4 Bft) 95,12 %
09.02.2017 22:28 -1,8 C 91 % 1022,1 hPa 0,0 l/m 15,8 km/h (3 Bft) O 88 0 min 0,000 mm 0,0 UV-I 0 W/m -3,1 C -9,7 C 20,9 km/h (4 Bft) 98,46 %
09.02.2017 22:30 -1,8 C 91 % 1022,0 hPa 0,0 l/m 19,8 km/h (3 Bft) O-NO 72 0 min 0,000 mm 0,0 UV-I 0 W/m -3,1 C -11,9 C 29,0 km/h (5 Bft) 95,74 %
09.02.2017 22:32 -1,8 C 92 % 1022,0 hPa 0,0 l/m 18,4 km/h (3 Bft) O 81 0 min 0,000 mm 0,0 UV-I 0 W/m -2,9 C -11,1 C 25,7 km/h (4 Bft) 100,00 %
09.02.2017 22:34 -1,8 C 91 % 1021,9 hPa 0,0 l/m 17,5 km/h (3 Bft) O 81 0 min 0,000 mm 0,0 UV-I 0 W/m -3,1 C -10,6 C 22,5 km/h (4 Bft) 96,15 %
09.02.2017 22:36 -1,8 C 91 % 1022,0 hPa 0,0 l/m 18,6 km/h (3 Bft) O-NO 71 0 min 0,000 mm 0,0 UV-I 0 W/m -3,1 C -11,2 C 27,4 km/h (4 Bft) 97,78 %
09.02.2017 22:38 -1,8 C 91 % 1021,9 hPa 0,0 l/m 13,7 km/h (3 Bft) O-NO 74 0 min 0,000 mm 0,0 UV-I 0 W/m -3,1 C -8,3 C 22,5 km/h (4 Bft) 96,15 %
09.02.2017 22:40 -1,8 C 91 % 1021,9 hPa 0,0 l/m 17,9 km/h (3 Bft) NO 53 0 min 0,000 mm 0,0 UV-I 0 W/m -3,1 C -10,9 C 27,4 km/h (4 Bft) 97,62 %
09.02.2017 22:42 -1,8 C 92 % 1021,9 hPa 0,0 l/m 19,4 km/h (3 Bft) O-NO 71 0 min 0,000 mm 0,0 UV-I 0 W/m -2,9 C -11,7 C 29,0 km/h (5 Bft) 97,87 %
09.02.2017 22:44 -1,8 C 92 % 1021,8 hPa 0,0 l/m 17,8 km/h (3 Bft) O-NO 62 0 min 0,000 mm 0,0 UV-I 0 W/m -2,9 C -10,8 C 22,5 km/h (4 Bft) 96,00 %
09.02.2017 22:46 -1,8 C 92 % 1021,8 hPa 0,0 l/m 21,7 km/h (4 Bft) O-NO 76 0 min 0,000 mm 0,0 UV-I 0 W/m -2,9 C -12,8 C 25,7 km/h (4 Bft) 97,87 %
09.02.2017 22:48 -1,8 C 92 % 1021,9 hPa 0,0 l/m 18,2 km/h (3 Bft) O-NO 76 0 min 0,000 mm 0,0 UV-I 0 W/m -2,9 C -11,0 C 29,0 km/h (5 Bft) 100,00 %
09.02.2017 22:50 -1,8 C 92 % 1021,8 hPa 0,0 l/m 17,3 km/h (3 Bft) O-NO 77 0 min 0,000 mm 0,0 UV-I 0 W/m -2,9 C -10,5 C 29,0 km/h (5 Bft) 100,00 %
09.02.2017 22:52 -1,8 C 91 % 1021,8 hPa 0,0 l/m 17,9 km/h (3 Bft) O-NO 77 0 min 0,000 mm 0,0 UV-I 0 W/m -3,1 C -10,9 C 27,4 km/h (4 Bft) 100,00 %
09.02.2017 22:54 -1,8 C 92 % 1021,8 hPa 0,0 l/m 15,5 km/h (3 Bft) O-NO 74 0 min 0,000 mm 0,0 UV-I 0 W/m -2,9 C -9,5 C 22,5 km/h (4 Bft) 98,21 %
09.02.2017 22:56 -1,8 C 91 % 1021,8 hPa 0,0 l/m 19,4 km/h (3 Bft) O 83 0 min 0,000 mm 0,0 UV-I 0 W/m -3,1 C -11,7 C 24,1 km/h (4 Bft) 100,00 %
09.02.2017 22:58 -1,8 C 92 % 1021,8 hPa 0,0 l/m 17,8 km/h (3 Bft) O-NO 75 0 min 0,000 mm 0,0 UV-I 0 W/m -2,9 C -10,8 C 25,7 km/h (4 Bft) 100,00 %
09.02.2017 23:00 -1,8 C 92 % 1021,8 hPa 0,0 l/m 17,4 km/h (3 Bft) O-NO 76 0 min 0,000 mm 0,0 UV-I 0 W/m -2,9 C -10,6 C 22,5 km/h (4 Bft) 97,37 %
09.02.2017 23:02 -1,8 C 91 % 1021,8 hPa 0,0 l/m 13,2 km/h (3 Bft) O-NO 78 0 min 0,000 mm 0,0 UV-I 0 W/m -3,1 C -8,0 C 19,3 km/h (3 Bft) 100,00 %
09.02.2017 23:04 -1,8 C 92 % 1021,8 hPa 0,0 l/m 17,0 km/h (3 Bft) O 83 0 min 0,000 mm 0,0 UV-I 0 W/m -2,9 C -10,4 C 29,0 km/h (5 Bft) 100,00 %
09.02.2017 23:06 -1,8 C 92 % 1021,7 hPa 0,0 l/m 19,4 km/h (3 Bft) O-SO 102 0 min 0,000 mm 0,0 UV-I 0 W/m -2,9 C -11,7 C 24,1 km/h (4 Bft) 96,43 %
09.02.2017 23:08 -1,8 C 92 % 1021,8 hPa 0,0 l/m 16,1 km/h (3 Bft) O 81 0 min 0,000 mm 0,0 UV-I 0 W/m -2,9 C -9,8 C 24,1 km/h (4 Bft) 100,00 %
09.02.2017 23:10 -1,8 C 92 % 1021,8 hPa 0,0 l/m 17,0 km/h (3 Bft) O-NO 78 0 min 0,000 mm 0,0 UV-I 0 W/m -2,9 C -10,4 C 24,1 km/h (4 Bft) 100,00 %
09.02.2017 23:12 -1,8 C 92 % 1021,7 hPa 0,0 l/m 14,9 km/h (3 Bft) O 79 0 min 0,000 mm 0,0 UV-I 0 W/m -2,9 C -9,1 C 22,5 km/h (4 Bft) 100,00 %
09.02.2017 23:14 -1,8 C 92 % 1021,7 hPa 0,0 l/m 17,5 km/h (3 Bft) O-NO 74 0 min 0,000 mm 0,0 UV-I 0 W/m -2,9 C -10,6 C 24,1 km/h (4 Bft) 100,00 %
09.02.2017 23:16 -1,8 C 92 % 1021,7 hPa 0,0 l/m 17,4 km/h (3 Bft) O 80 0 min 0,000 mm 0,0 UV-I 0 W/m -2,9 C -10,6 C 24,1 km/h (4 Bft) 100,00 %
09.02.2017 23:18 -1,8 C 92 % 1021,7 hPa 0,0 l/m 18,5 km/h (3 Bft) O-NO 74 0 min 0,000 mm 0,0 UV-I 0 W/m -2,9 C -11,2 C 22,5 km/h (4 Bft) 100,00 %
09.02.2017 23:20 -1,8 C 92 % 1021,7 hPa 0,0 l/m 16,1 km/h (3 Bft) O-SO 104 0 min 0,000 mm 0,0 UV-I 0 W/m -2,9 C -9,8 C 22,5 km/h (4 Bft) 100,00 %
09.02.2017 23:22 -1,8 C 92 % 1021,7 hPa 0,0 l/m 11,2 km/h (2 Bft) O 84 0 min 0,000 mm 0,0 UV-I 0 W/m -2,9 C -6,4 C 17,7 km/h (3 Bft) 100,00 %
09.02.2017 23:24 -1,8 C 92 % 1021,7 hPa 0,0 l/m 13,7 km/h (3 Bft) O 84 0 min 0,000 mm 0,0 UV-I 0 W/m -2,9 C -8,3 C 19,3 km/h (3 Bft) 100,00 %
09.02.2017 23:26 -1,8 C 92 % 1021,7 hPa 0,0 l/m 16,8 km/h (3 Bft) NO 55 0 min 0,000 mm 0,0 UV-I 0 W/m -2,9 C -10,3 C 25,7 km/h (4 Bft) 98,11 %
09.02.2017 23:28 -1,8 C 92 % 1021,7 hPa 0,0 l/m 17,7 km/h (3 Bft) O 83 0 min 0,000 mm 0,0 UV-I 0 W/m -2,9 C -10,8 C 25,7 km/h (4 Bft) 100,00 %
09.02.2017 23:30 -1,8 C 92 % 1021,7 hPa 0,0 l/m 14,2 km/h (3 Bft) O 90 0 min 0,000 mm 0,0 UV-I 0 W/m -2,9 C -8,6 C 20,9 km/h (4 Bft) 100,00 %
09.02.2017 23:32 -1,8 C 92 % 1021,6 hPa 0,0 l/m 18,6 km/h (3 Bft) O 82 0 min 0,000 mm 0,0 UV-I 0 W/m -2,9 C -11,2 C 24,1 km/h (4 Bft) 97,56 %
09.02.2017 23:34 -1,8 C 92 % 1021,7 hPa 0,0 l/m 14,2 km/h (3 Bft) O 84 0 min 0,000 mm 0,0 UV-I 0 W/m -2,9 C -8,6 C 19,3 km/h (3 Bft) 98,21 %
09.02.2017 23:36 -1,8 C 92 % 1021,7 hPa 0,0 l/m 16,8 km/h (3 Bft) O 88 0 min 0,000 mm 0,0 UV-I 0 W/m -2,9 C -10,3 C 22,5 km/h (4 Bft) 98,11 %
09.02.2017 23:38 -1,8 C 92 % 1021,7 hPa 0,0 l/m 19,5 km/h (3 Bft) O-NO 72 0 min 0,000 mm 0,0 UV-I 0 W/m -2,9 C -11,7 C 30,6 km/h (5 Bft) 100,00 %
09.02.2017 23:40 -1,7 C 92 % 1021,6 hPa 0,0 l/m 15,8 km/h (3 Bft) NO 55 0 min 0,000 mm 0,0 UV-I 0 W/m -2,8 C -9,5 C 24,1 km/h (4 Bft) 100,00 %
09.02.2017 23:42 -1,7 C 92 % 1021,6 hPa 0,0 l/m 18,5 km/h (3 Bft) O 86 0 min 0,000 mm 0,0 UV-I 0 W/m -2,8 C -11,1 C 30,6 km/h (5 Bft) 97,87 %
09.02.2017 23:44 -1,7 C 92 % 1021,7 hPa 0,0 l/m 15,6 km/h (3 Bft) O 80 0 min 0,000 mm 0,0 UV-I 0 W/m -2,8 C -9,4 C 24,1 km/h (4 Bft) 98,00 %
09.02.2017 23:46 -1,7 C 92 % 1021,6 hPa 0,0 l/m 16,1 km/h (3 Bft) NO 54 0 min 0,000 mm 0,0 UV-I 0 W/m -2,8 C -9,7 C 20,9 km/h (4 Bft) 97,56 %
09.02.2017 23:48 -1,7 C 92 % 1021,7 hPa 0,0 l/m 19,0 km/h (3 Bft) O-NO 65 0 min 0,000 mm 0,0 UV-I 0 W/m -2,8 C -11,3 C 25,7 km/h (4 Bft) 98,00 %
09.02.2017 23:50 -1,7 C 92 % 1021,6 hPa 0,0 l/m 18,4 km/h (3 Bft) O 83 0 min 0,000 mm 0,0 UV-I 0 W/m -2,8 C -11,0 C 25,7 km/h (4 Bft) 98,00 %
09.02.2017 23:52 -1,7 C 92 % 1021,7 hPa 0,0 l/m 16,9 km/h (3 Bft) O-NO 77 0 min 0,000 mm 0,0 UV-I 0 W/m -2,8 C -10,2 C 24,1 km/h (4 Bft) 97,56 %
09.02.2017 23:54 -1,7 C 92 % 1021,6 hPa 0,0 l/m 21,5 km/h (4 Bft) O 81 0 min 0,000 mm 0,0 UV-I 0 W/m -2,8 C -12,5 C 29,0 km/h (5 Bft) 97,62 %
09.02.2017 23:56 -1,7 C 92 % 1021,6 hPa 0,0 l/m 23,0 km/h (4 Bft) O-NO 63 0 min 0,000 mm 0,0 UV-I 0 W/m -2,8 C -13,2 C 30,6 km/h (5 Bft) 96,43 %
09.02.2017 23:58 -1,6 C 92 % 1021,6 hPa 0,0 l/m 18,8 km/h (3 Bft) O 88 0 min 0,000 mm 0,0 UV-I 0 W/m -2,7 C -11,1 C 25,7 km/h (4 Bft) 95,74 %
_ Min-Zeit 04:48 00:00 23:32 - 01:54 - - - - - - 05:36 11:50 01:14 20:12
Minimum _ -4,7 C 87 % 1021,6 hPa - 8,9 km/h (2 Bft) - - - - - - -6,4 C -18,7 C 14,5 km/h (3 Bft) 87,80 %
_ Max-Zeit 23:58 22:32 05:06 00:00 11:33 - - 07:32 14:00 12:56 12:36 23:58 01:54 14:54 00:22
Maximum _ -1,6 C 92 % 1027,1 hPa 0,0 l/m 32,5 km/h
O-NO (5 Bft)
- - 2 min 0,077 mm 0,8 UV-I 274 W/m -2,7 C -6,3 C 45,1 km/h
O-NO (6 Bft)
100,00 %
Durchschnitt _ -2,9 C 89 % 1025,0 hPa #0,0 l/m 19,0 km/h (3 Bft) O-NO - #54 min. #0,737 mm 0,6 UV-I 130 W/m -4,6 C -12,7 C 26,4 km/h (4 Bft) 97,92 %